[[{"header":{"parameterUnit":"m.s-1","parameterCategory":1,"la1":30.6,"la2":28.766,"lo1":-90.7593,"lo2":-88.6598,"dy":0.0162,"dx":0.0183,"nx":116,"ny":114,"refTime":"2024-06-23T12:00:00:Z","depth":0,"parameterNumber":2,"parameterNumberName":"U-component_of_WINDS"},"data":[0.0,0.0,0.0,0.0,0.0,0.0,0.0,0.0,0.0,0.0,0.0,0.0,0.0,0.0,0.0,0.0,0.0,0.0,0.0,0.0,0.0,0.0,0.0,0.0,0.0,0.0,0.0,0.0,0.0,0.0,0.0,0.0,0.0,0.0,0.0,0.0,0.0,0.0,0.0,0.0,0.0,0.0,0.0,0.0,0.0,0.0,0.0,0.0,0.0,0.0,0.0,0.0,0.0,0.0,0.0,0.0,0.0,0.0,0.0,0.0,0.0,0.0,0.0,0.0,0.0,0.0,0.0,0.0,0.0,0.0,0.0,0.0,0.0,0.0,0.0,0.0,0.0,0.0,0.0,0.0,0.0,0.0,0.0,0.0,0.0,0.0,0.0,0.0,0.0,0.0,0.0,0.0,0.0,0.0,0.0,0.0,0.0,0.0,0.0,0.0,0.0,0.0,0.0,0.0,0.0,0.0,0.0,0.0,0.0,0.0,0.0,0.0,0.0,0.0,0.0,0.0,0.0,0.0,0.0,0.0,0.0,0.0,0.0,0.0,0.0,0.0,0.0,0.0,0.0,0.0,0.0,0.0,0.0,0.0,0.0,0.0,0.0,0.0,0.0,0.0,0.0,0.0,0.0,0.0,0.0,0.0,0.0,0.0,0.0,0.0,0.0,0.0,0.0,0.0,0.0,0.0,0.0,0.0,0.0,0.0,0.0,0.0,0.0,0.0,0.0,0.0,0.0,0.0,0.0,0.0,0.0,0.0,0.0,0.0,0.0,0.0,0.0,0.0,0.0,0.0,0.0,0.0,0.0,0.0,0.0,0.0,0.0,0.0,0.0,0.0,0.0,0.0,0.0,0.0,0.0,0.0,0.0,0.0,0.0,0.0,0.0,0.0,0.0,0.0,0.0,0.0,0.0,0.0,0.0,0.0,0.0,0.0,0.0,0.0,0.0,0.0,0.0,0.0,0.0,0.0,0.0,0.0,0.0,0.0,0.0,0.0,0.0,0.0,0.0,0.0,0.0,0.0,0.0,0.0,0.0,0.0,0.0,0.0,0.0,0.0,0.0,0.0,0.0,0.0,0.0,0.0,0.0,0.0,0.0,0.0,0.0,0.0,0.0,0.0,0.0,0.0,0.0,0.0,0.0,0.0,0.0,0.0,0.0,0.0,0.0,0.0,0.0,0.0,0.0,0.0,0.0,0.0,0.0,0.0,0.0,0.0,0.0,0.0,0.0,0.0,0.0,0.0,0.0,0.0,0.0,0.0,0.0,0.0,0.0,0.0,0.0,0.0,0.0,0.0,0.0,0.0,0.0,0.0,0.0,0.0,0.0,0.0,0.0,0.0,0.0,0.0,0.0,0.0,0.0,0.0,0.0,0.0,0.0,0.0,0.0,0.0,0.0,0.0,0.0,0.0,0.0,0.0,0.0,0.0,0.0,0.0,0.0,0.0,0.0,0.0,0.0,0.0,0.0,0.0,0.0,0.0,0.0,0.0,0.0,0.0,0.0,0.0,0.0,0.0,0.0,0.0,0.0,0.0,0.0,0.0,0.0,0.0,0.0,0.0,0.0,0.0,0.0,0.0,0.0,0.0,0.0,0.0,0.0,0.0,0.0,0.0,0.0,0.0,0.0,0.0,0.0,0.0,0.0,0.0,0.0,0.0,0.0,0.0,0.0,0.0,0.0,0.0,0.0,0.0,0.0,0.0,0.0,0.0,0.0,0.0,0.0,0.0,0.0,0.0,0.0,0.0,0.0,0.0,0.0,0.0,0.0,0.0,0.0,0.0,0.0,0.0,0.0,0.0,0.0,0.0,0.0,0.0,0.0,0.0,0.0,0.0,0.0,0.0,0.0,0.0,0.0,0.0,0.0,0.0,0.0,0.0,0.0,0.0,0.0,0.0,0.0,0.0,0.0,0.0,0.0,0.0,0.0,0.0,0.0,0.0,0.0,0.0,0.0,0.0,0.0,0.0,0.0,0.0,0.0,0.0,0.0,0.0,0.0,0.0,0.0,0.0,0.0,0.0,0.0,0.0,0.0,0.0,0.0,0.0,0.0,0.0,0.0,0.0,0.0,0.0,0.0,0.0,0.0,0.0,0.0,0.0,0.0,0.0,0.0,0.0,0.0,0.0,0.0,0.0,0.0,0.0,0.0,0.0,0.0,0.0,0.0,0.0,0.0,0.0,0.0,0.0,0.0,0.0,0.0,0.0,0.0,0.0,0.0,0.0,0.0,0.0,0.0,0.0,0.0,0.0,0.0,0.0,0.0,0.0,0.0,0.0,0.0,0.0,0.0,0.0,0.0,0.0,0.0,0.0,0.0,0.0,0.0,0.0,0.0,0.0,0.0,0.0,0.0,0.0,0.0,0.0,0.0,0.0,0.0,0.0,0.0,0.0,0.0,0.0,0.0,0.0,0.0,0.0,0.0,0.0,0.0,0.0,0.0,0.0,0.0,0.0,0.0,0.0,0.0,0.0,0.0,0.0,0.0,0.0,0.0,0.0,0.0,0.0,0.0,0.0,0.0,0.0,0.0,0.0,0.0,0.0,0.0,0.0,0.0,0.0,0.0,0.0,0.0,0.0,0.0,0.0,0.0,0.0,0.0,0.0,0.0,0.0,0.0,0.0,0.0,0.0,0.0,0.0,0.0,0.0,0.0,0.0,0.0,0.0,0.0,0.0,0.0,0.0,0.0,0.0,0.0,0.0,0.0,0.0,0.0,0.0,0.0,0.0,0.0,0.0,0.0,0.0,0.0,0.0,0.0,0.0,0.0,0.0,0.0,0.0,0.0,0.0,0.0,0.0,0.0,0.0,0.0,0.0,0.0,0.0,0.0,0.0,0.0,0.0,0.0,0.0,0.0,0.0,0.0,0.0,0.0,0.0,0.0,0.0,0.0,0.0,0.0,0.0,0.0,0.0,0.0,0.0,0.0,0.0,0.0,0.0,0.0,0.0,0.0,0.0,0.0,0.0,0.0,0.0,0.0,0.0,0.0,0.0,0.0,0.0,0.0,0.0,0.0,0.0,0.0,0.0,0.0,0.0,0.0,0.0,0.0,0.0,0.0,0.0,0.0,0.0,0.0,0.0,0.0,0.0,0.0,0.0,0.0,0.0,0.0,0.0,0.0,0.0,0.0,0.0,0.0,0.0,0.0,0.0,0.0,0.0,0.0,0.0,0.0,0.0,0.0,0.0,0.0,0.0,0.0,0.0,0.0,0.0,0.0,0.0,0.0,0.0,0.0,0.0,0.0,0.0,0.0,0.0,0.0,0.0,0.0,0.0,0.0,0.0,0.0,0.0,0.0,0.0,0.0,0.0,0.0,0.0,0.0,0.0,0.0,0.0,0.0,0.0,0.0,0.0,0.0,0.0,0.0,0.0,0.0,0.0,0.0,0.0,0.0,0.0,0.0,0.0,0.0,0.0,0.0,0.0,0.0,0.0,0.0,0.0,0.0,0.0,0.0,0.0,0.0,0.0,0.0,0.0,0.0,0.0,0.0,0.0,0.0,0.0,0.0,0.0,0.0,0.0,0.0,0.0,0.0,0.0,0.0,0.0,0.0,0.0,0.0,0.0,0.0,0.0,0.0,0.0,0.0,0.0,0.0,0.0,0.0,0.0,0.0,0.0,0.0,0.0,0.0,0.0,0.0,0.0,0.0,0.0,0.0,0.0,0.0,0.0,0.0,0.0,0.0,0.0,0.0,0.0,0.0,0.0,0.0,0.0,0.0,0.0,0.0,0.0,0.0,0.0,0.0,0.0,0.0,0.0,0.0,0.0,0.0,0.0,0.0,0.0,0.0,0.0,0.0,0.0,0.0,0.0,0.0,0.0,0.0,0.0,0.0,0.0,0.0,0.0,0.0,0.0,0.0,0.0,0.0,0.0,0.0,0.0,0.0,0.0,0.0,0.0,0.0,0.0,0.0,0.0,0.0,0.0,0.0,0.0,0.0,0.0,0.0,0.0,0.0,0.0,0.0,0.0,0.0,0.0,0.0,0.0,0.0,0.0,0.0,0.0,0.0,0.0,0.0,0.0,0.0,0.0,0.0,0.0,0.0,0.0,0.0,0.0,0.0,0.0,0.0,0.0,0.0,0.0,0.0,0.0,0.0,0.0,0.0,0.0,0.0,0.0,0.0,0.0,0.0,0.0,0.0,0.0,0.0,0.0,0.0,0.0,0.0,0.0,0.0,0.0,0.0,0.0,0.0,0.0,0.0,0.0,0.0,0.0,0.0,0.0,0.0,0.0,0.0,0.0,0.0,0.0,0.0,0.0,0.0,0.0,0.0,0.0,0.0,0.0,0.0,0.0,0.0,0.0,0.0,0.0,0.0,0.0,0.0,0.0,0.0,0.0,0.0,0.0,0.0,0.0,0.0,0.0,0.0,0.0,0.0,0.0,0.0,0.0,0.0,0.0,0.0,0.0,0.0,0.0,0.0,0.0,0.0,0.0,0.0,0.0,0.0,0.0,0.0,0.0,0.0,0.0,0.0,0.0,0.0,0.0,0.0,0.0,0.0,0.0,0.0,0.0,0.0,0.0,0.0,0.0,0.0,0.0,0.0,0.0,0.0,0.0,0.0,0.0,0.0,0.0,0.0,0.0,0.0,0.0,0.0,0.0,0.0,0.0,0.0,0.0,0.0,0.0,0.0,0.0,0.0,0.0,0.0,0.0,0.0,0.0,0.0,0.0,0.0,0.0,0.0,0.0,0.0,0.0,0.0,0.0,0.0,0.0,0.0,0.0,0.0,0.0,0.0,0.0,0.0,0.0,0.0,0.0,0.0,0.0,0.0,0.0,0.0,0.0,0.0,0.0,0.0,0.0,0.0,0.0,0.0,0.0,0.0,0.0,0.0,0.0,0.0,0.0,0.0,0.0,0.0,0.0,0.0,0.0,0.0,0.0,0.0,0.0,0.0,0.0,0.0,0.0,0.0,0.0,0.0,0.0,0.0,0.0,0.0,0.0,0.0,0.0,0.0,0.0,0.0,0.0,0.0,0.0,0.0,0.0,0.0,0.0,0.0,0.0,0.0,0.0,0.0,0.0,0.0,0.0,0.0,0.0,0.0,0.0,0.0,0.0,0.0,0.0,0.0,0.0,0.0,0.0,0.0,0.0,0.0,0.0,0.0,0.0,0.0,0.0,0.0,0.0,0.0,0.0,0.0,0.0,0.0,0.0,0.0,0.0,0.0,0.0,0.0,0.0,0.0,0.0,0.0,0.0,0.0,0.0,0.0,0.0,0.0,0.0,0.0,0.0,0.0,0.0,0.0,0.0,0.0,0.0,0.0,0.0,0.0,0.0,0.0,0.0,0.0,0.0,0.0,0.0,0.0,0.0,0.0,0.0,0.0,0.0,0.0,0.0,0.0,0.0,0.0,0.0,0.0,0.0,0.0,0.0,0.0,0.0,0.0,0.0,0.0,0.0,0.0,0.0,0.0,0.0,0.0,0.0,0.0,0.0,0.0,0.0,0.0,0.0,0.0,0.0,0.0,0.0,0.0,0.0,0.0,0.0,0.0,0.0,0.0,0.0,0.0,0.0,0.0,0.0,0.0,0.0,0.0,0.0,0.0,0.0,0.0,0.0,0.0,0.0,0.0,0.0,0.0,0.0,0.0,0.0,0.0,0.0,0.0,0.0,0.0,0.0,0.0,0.0,0.0,0.0,0.0,0.0,0.0,0.0,0.0,0.0,0.0,0.0,0.0,0.0,0.0,0.0,0.0,0.0,0.0,0.0,0.0,0.0,0.0,0.0,0.0,0.0,0.0,0.0,0.0,0.0,0.0,0.0,0.0,0.0,0.0,0.0,0.0,0.0,0.0,0.0,0.0,0.0,0.0,0.0,0.0,0.0,0.0,0.0,0.0,0.0,0.0,0.0,0.0,0.0,0.0,0.0,0.0,0.0,0.0,0.0,0.0,0.0,0.0,0.0,0.0,0.0,0.0,0.0,0.0,0.0,0.0,0.0,0.0,0.0,0.0,0.0,0.0,0.0,0.0,0.0,0.0,0.0,0.0,0.0,0.0,0.0,0.0,0.0,0.0,0.0,0.0,0.0,0.0,0.0,0.0,0.0,0.0,0.0,0.0,0.0,0.0,0.0,0.0,0.0,-3.7736,-3.7516,0.0,0.0,0.0,0.0,0.0,0.0,0.0,0.0,0.0,0.0,0.0,0.0,0.0,0.0,0.0,0.0,0.0,0.0,0.0,0.0,0.0,0.0,0.0,-1.8471,-1.9183,-2.0199,-2.0318,-2.0528,-2.0887,0.0,0.0,0.0,0.0,0.0,-2.0781,-2.0831,-2.0906,-2.0963,-2.0258,-2.0191,-2.0694,-2.0323,-2.0081,-2.0028,0.0,0.0,0.0,0.0,0.0,0.0,0.0,0.0,0.0,0.0,0.0,0.0,0.0,0.0,0.0,0.0,0.0,0.0,0.0,0.0,0.0,0.0,0.0,0.0,0.0,0.0,0.0,0.0,0.0,0.0,0.0,0.0,0.0,0.0,0.0,0.0,0.0,0.0,0.0,0.0,0.0,0.0,0.0,0.0,0.0,0.0,0.0,0.0,0.0,0.0,0.0,0.0,0.0,0.0,0.0,0.0,0.0,0.0,0.0,0.0,0.0,0.0,0.0,0.0,0.0,0.0,0.0,0.0,0.0,0.0,-3.8151,-3.7728,0.0,0.0,0.0,0.0,0.0,0.0,0.0,0.0,0.0,0.0,0.0,0.0,0.0,0.0,0.0,0.0,0.0,0.0,0.0,0.0,0.0,-1.6087,-1.8365,-1.8929,-1.9586,-2.0732,-2.1215,-2.155,-2.1687,-2.2209,0.0,0.0,0.0,-2.2143,-2.1713,-2.1696,-2.1747,-2.1823,-2.1174,-2.0747,-2.0556,-2.056,-2.0221,-1.9641,-1.9767,0.0,0.0,0.0,0.0,0.0,0.0,0.0,0.0,0.0,0.0,0.0,0.0,0.0,0.0,0.0,0.0,0.0,0.0,0.0,0.0,0.0,0.0,0.0,0.0,0.0,0.0,0.0,0.0,0.0,0.0,0.0,0.0,0.0,0.0,0.0,0.0,0.0,0.0,0.0,0.0,0.0,0.0,0.0,0.0,0.0,0.0,0.0,0.0,0.0,0.0,0.0,0.0,0.0,0.0,0.0,0.0,0.0,0.0,0.0,0.0,0.0,0.0,0.0,-3.8098,-3.8164,-3.9362,-3.8955,-3.9125,-3.9662,-3.8355,-3.7885,-3.7968,-3.6657,0.0,0.0,0.0,0.0,0.0,0.0,0.0,0.0,0.0,0.0,0.0,0.0,0.0,0.0,0.0,0.0,0.0,0.0,0.0,-1.5542,-1.7993,-1.8375,-1.9223,-2.1156,-2.137,-2.1713,-2.2417,-2.2581,0.0,0.0,-2.2607,-2.2607,-2.2548,-2.2548,-2.2609,-2.2737,-2.2384,-2.161,-2.0428,-2.0368,-2.0293,-2.0208,-2.0528,-2.0732,-2.0909,0.0,0.0,0.0,0.0,0.0,0.0,0.0,0.0,0.0,0.0,0.0,0.0,0.0,0.0,0.0,0.0,0.0,0.0,0.0,0.0,0.0,0.0,0.0,0.0,0.0,0.0,0.0,0.0,0.0,0.0,0.0,0.0,0.0,0.0,0.0,0.0,0.0,0.0,0.0,0.0,0.0,-2.9297,-3.0851,0.0,0.0,0.0,0.0,0.0,0.0,0.0,0.0,0.0,0.0,0.0,0.0,0.0,-3.8214,-3.9043,-3.8944,-3.9043,-3.9309,-3.9126,-3.9232,-3.9625,-3.9577,-3.9697,-3.9833,-3.9441,0.0,-3.9272,-3.7444,0.0,0.0,0.0,0.0,0.0,0.0,0.0,0.0,0.0,0.0,0.0,0.0,0.0,0.0,0.0,0.0,0.0,0.0,0.0,0.0,0.0,-1.8935,-1.9942,-2.1487,-2.1739,-2.2076,-2.2738,-2.2825,-2.285,-2.2816,-2.364,-2.3692,-2.2834,-2.3285,-2.338,-2.302,-2.2892,-2.2193,-2.099,-2.0827,-2.0406,-1.9808,-2.0188,-2.0544,-2.0893,-2.0877,0.0,0.0,0.0,0.0,0.0,0.0,0.0,0.0,0.0,0.0,0.0,0.0,0.0,0.0,0.0,0.0,0.0,0.0,0.0,0.0,0.0,0.0,0.0,0.0,0.0,0.0,0.0,0.0,0.0,0.0,0.0,0.0,0.0,0.0,0.0,0.0,0.0,0.0,0.0,-2.8913,-3.0415,-3.1788,-3.2965,-3.3576,0.0,0.0,0.0,0.0,0.0,0.0,0.0,0.0,0.0,-3.6572,-3.7218,-3.8129,-3.9309,-3.9272,-3.9487,-3.9885,-3.9578,-3.9484,-3.959,-3.9677,-3.9729,-3.9781,-3.9484,-3.9115,-3.8652,-3.7247,-3.5905,-3.4698,0.0,0.0,0.0,0.0,-3.2969,-3.3151,0.0,0.0,0.0,0.0,0.0,0.0,0.0,0.0,0.0,0.0,0.0,0.0,-1.8344,-1.9301,-2.0281,-2.1399,-2.1634,-2.1885,-2.23,-2.2601,-2.2818,-2.296,-2.4086,-2.4287,-2.3292,-2.371,-2.3673,-2.3095,-2.2933,-2.2439,-2.167,-2.1054,-2.0327,-1.9541,-1.9871,-2.0256,-2.0655,-2.0748,-2.0326,0.0,0.0,0.0,0.0,0.0,0.0,0.0,0.0,0.0,0.0,0.0,0.0,0.0,0.0,0.0,0.0,0.0,0.0,0.0,0.0,0.0,0.0,0.0,0.0,0.0,0.0,0.0,0.0,0.0,0.0,0.0,0.0,0.0,0.0,0.0,0.0,0.0,0.0,-3.0386,-3.1543,-3.2266,-3.3706,-3.4375,0.0,0.0,0.0,0.0,0.0,0.0,-3.6226,-3.6945,-3.7143,-3.6605,-3.7284,-3.8179,-3.9309,-3.9325,-3.9607,-4.0138,-3.9751,-3.9537,-3.9537,-3.9625,-3.9677,-3.9625,-3.9432,-3.8772,-3.7732,-3.7091,-3.6044,-3.4711,-3.4654,-3.4559,-3.4414,-3.4414,-3.4414,-3.4414,0.0,0.0,0.0,0.0,0.0,0.0,0.0,0.0,0.0,0.0,0.0,-1.666,-1.8402,-1.887,-1.9487,-2.0564,-2.0657,-2.072,-2.08,-2.1587,-2.2394,-2.3146,-2.3318,-2.3689,-2.431,-2.3615,-2.3203,-2.3095,-2.2464,-2.2167,-2.2118,-2.0656,-1.9926,-1.9875,-1.9971,-1.9969,-2.0003,-2.0558,-2.0308,-1.9523,0.0,0.0,0.0,0.0,0.0,0.0,0.0,0.0,0.0,0.0,0.0,0.0,0.0,0.0,0.0,0.0,0.0,0.0,0.0,0.0,0.0,0.0,0.0,0.0,0.0,0.0,0.0,0.0,0.0,0.0,0.0,0.0,0.0,0.0,0.0,0.0,0.0,0.0,0.0,-3.1479,-3.3951,0.0,0.0,0.0,0.0,-3.7821,-3.9093,-3.9486,-3.859,-3.9358,-3.9295,-3.8129,-3.8791,-3.9206,-3.9272,-3.9448,-3.9518,-3.9551,-3.9659,-3.9677,-3.9677,-3.9677,-3.9642,-3.9501,-3.9501,-3.8606,-3.7178,-3.7468,-3.67,-3.535,-3.5312,-3.4951,-3.4414,-3.4414,-3.4414,-3.4346,0.0,0.0,0.0,-1.2325,-1.2374,-1.2763,-1.379,-1.4092,-1.4616,-1.5741,-1.6369,-1.7003,-1.7816,-1.8722,-1.9443,-1.9926,-2.0069,-2.0279,-2.0615,-2.1493,-2.2125,-2.2412,-2.3947,-2.466,-2.4474,-2.3671,-2.3018,-2.2534,-2.2322,-2.1704,-2.0684,-1.9987,-1.9276,-1.8612,-1.8864,-1.8848,-1.8696,-2.0194,-2.047,-1.9965,-1.9977,-1.9595,0.0,0.0,0.0,0.0,0.0,0.0,0.0,0.0,0.0,0.0,0.0,0.0,0.0,0.0,0.0,0.0,0.0,0.0,0.0,0.0,0.0,0.0,0.0,0.0,0.0,0.0,0.0,0.0,0.0,0.0,0.0,0.0,0.0,0.0,0.0,0.0,0.0,-3.3245,-3.5654,0.0,-3.6131,-3.7667,-3.8582,-3.8274,-3.9651,-4.0088,-3.9066,-3.9788,-3.9901,-3.9206,-3.9439,-3.9537,-3.9448,-3.9379,-3.9379,-3.9379,-3.9432,-3.9484,-3.959,-3.959,-3.9554,-3.9448,-3.8843,-3.7937,-3.6874,-3.6505,-3.5739,-3.4964,-3.4797,-3.4617,-3.4414,-3.4414,-3.4346,-3.4196,-1.1355,-1.1517,0.0,-1.1927,-1.2112,-1.2584,-1.3624,-1.4298,-1.4876,-1.5427,-1.6524,-1.7136,-1.6825,-1.7973,-1.8696,-1.8489,-1.8833,-1.9078,-1.9143,-2.0473,-2.1379,-2.1615,-2.3633,-2.4406,-2.3678,-2.29,-2.2291,-2.1825,-2.1622,-2.0921,-1.9712,-1.9206,-1.8508,-1.7721,-1.8104,-1.8087,-1.7892,-1.9264,-1.9745,-1.9595,-1.9846,-1.9378,-1.858,0.0,0.0,0.0,0.0,0.0,0.0,0.0,0.0,0.0,0.0,0.0,0.0,0.0,0.0,0.0,0.0,0.0,0.0,0.0,0.0,0.0,0.0,0.0,0.0,0.0,0.0,0.0,0.0,0.0,0.0,0.0,0.0,0.0,0.0,-3.2603,-3.4064,-3.4474,-3.6678,-3.8011,-3.7598,-3.9029,-3.9748,-3.9316,-4.02,-4.0401,-3.9696,-3.9997,-4.0172,-4.0098,-4.0046,-4.001,-3.9814,-3.9814,-3.9628,-3.9272,-3.9379,-3.9484,-3.9501,-3.9501,-3.9501,-3.9379,-3.8479,-3.7632,-3.6843,-3.593,-3.5219,-3.4698,-3.4481,-3.4414,-3.4414,-3.4346,-3.4196,-3.4128,-1.0299,-1.0374,-1.0632,-1.1378,-1.1637,-1.2377,-1.4309,-1.4729,-1.5007,-1.5492,-1.6731,-1.7025,-1.558,-1.6638,-1.7151,-1.6354,-1.6958,-1.7082,-1.6374,-1.848,-2.0106,-2.085,-2.2271,-2.2693,-2.1983,-2.1322,-2.1015,-2.1061,-2.0356,-1.9772,-1.9338,-1.8358,-1.7704,-1.7329,-1.7773,-1.7816,-1.7556,-1.7838,-1.8017,-1.8279,-1.95,-1.881,-1.7285,0.0,0.0,0.0,0.0,0.0,0.0,0.0,0.0,0.0,0.0,0.0,0.0,0.0,0.0,0.0,0.0,0.0,0.0,0.0,0.0,0.0,0.0,0.0,0.0,0.0,0.0,0.0,0.0,0.0,0.0,0.0,0.0,0.0,-3.1791,-3.3812,-3.5172,-3.501,-3.6951,-3.8359,-3.8408,-3.9988,-4.1056,-4.1016,-4.0777,-4.0577,-4.0577,-4.002,-4.0046,-4.0766,-4.0816,-4.0708,-4.0382,-4.0638,-4.0271,-3.9272,-3.9573,-3.9625,-3.9501,-3.9501,-3.9448,-3.9272,-3.8423,-3.7706,-3.6995,-3.6009,-3.5219,-3.4631,-3.4481,-3.4414,-3.4346,-3.4196,-3.4059,-3.4074,-1.0523,-1.0621,-1.0897,-1.1527,-1.2104,-1.2978,-1.4372,-1.5137,-1.5735,-1.6305,-1.6539,-1.652,-1.6146,-1.6388,-1.6464,-1.6253,-1.6546,-1.6846,-1.7082,-1.8248,-1.9459,-2.062,-2.112,-2.1266,-2.1055,-2.1017,-2.0714,-2.0167,-2.0091,-1.9527,-1.8523,-1.8284,-1.7868,-1.7296,-1.7363,-1.7008,-1.6298,-1.6391,-1.6161,-1.5978,-1.8234,-1.8841,-1.8429,0.0,0.0,0.0,0.0,0.0,0.0,0.0,0.0,0.0,0.0,0.0,0.0,0.0,0.0,0.0,0.0,0.0,0.0,0.0,0.0,0.0,0.0,0.0,0.0,0.0,0.0,0.0,0.0,0.0,0.0,0.0,-3.0603,-3.2223,-3.2684,-3.3598,-3.4801,-3.6441,-3.7948,-3.9388,-4.0634,-4.1703,-4.1993,-4.1253,-4.1073,-4.0655,-3.9986,-4.0285,-4.0511,-4.0588,-4.123,-4.1083,-4.0199,-4.0238,-3.9875,-3.9094,-3.9131,-3.9255,-3.9325,-3.9325,-3.9325,-3.9218,-3.7806,-3.7024,-3.6783,-3.532,-3.452,-3.4264,-3.4196,-3.4196,-3.4128,-3.4005,-3.3951,-3.3951,-1.0597,-1.0632,-1.0942,-1.1786,-1.2401,-1.3236,-1.4664,-1.5487,-1.5903,-1.5788,-1.6138,-1.602,-1.5031,-1.5054,-1.5199,-1.5282,-1.5963,-1.6422,-1.6512,-1.777,-1.893,-1.9849,-2.0095,-2.0223,-2.0228,-2.0079,-1.9593,-1.8797,-1.9096,-1.8633,-1.7399,-1.7365,-1.7188,-1.6894,-1.6109,-1.5723,-1.5565,-1.4935,-1.4542,-1.4509,-1.6401,-1.7008,-1.6879,-1.7525,-1.7472,-1.6919,-1.6207,-1.6138,-1.6349,-1.624,0.0,0.0,0.0,0.0,0.0,0.0,0.0,0.0,0.0,0.0,0.0,0.0,0.0,0.0,0.0,0.0,0.0,0.0,0.0,0.0,0.0,0.0,0.0,0.0,-3.1609,-3.3241,-3.3648,-3.4049,-3.5245,-3.7708,-3.8685,-3.9814,-4.1697,-4.2133,-4.199,-4.123,-4.081,-4.03,-3.9625,-4.0221,-4.07,-4.1,-4.1772,-4.1693,-4.0717,-4.0717,-4.0133,-3.9023,-3.9023,-3.9094,-3.9272,-3.9272,-3.9272,-3.9202,-3.7499,-3.6767,-3.6645,-3.4942,-3.4196,-3.4128,0.0,0.0,0.0,0.0,-3.3758,-3.3827,-1.0784,-1.0773,-1.1085,-1.2202,-1.2687,-1.3467,-1.5046,-1.5727,-1.5717,-1.4774,-1.5533,-1.5337,-1.311,-1.3259,-1.3552,-1.3662,-1.5027,-1.5746,-1.5431,-1.7202,-1.8383,-1.8687,-1.9041,-1.9291,-1.9321,-1.8755,-1.8113,-1.7394,-1.7824,-1.7403,-1.6221,-1.6063,-1.6031,-1.6049,-1.4491,-1.4275,-1.4963,-1.3651,-1.3261,-1.362,-1.4336,-1.4328,-1.4121,-1.5695,-1.5729,-1.4994,-1.5037,-1.5641,-1.6325,-1.5625,0.0,0.0,0.0,0.0,0.0,0.0,0.0,0.0,0.0,0.0,0.0,0.0,0.0,0.0,0.0,0.0,0.0,0.0,0.0,0.0,0.0,0.0,0.0,0.0,-3.2755,-3.4189,-3.4528,-3.5011,-3.6197,-3.8608,-3.9076,-4.0004,-4.1919,-4.1846,-4.1508,-4.1065,-4.0397,-3.9885,-3.9501,-4.0072,0.0,0.0,0.0,-4.2368,-4.1435,-4.1418,-4.0618,-3.9023,-3.9023,-3.9148,-3.9272,-3.9272,-3.9272,-3.9202,-3.7499,-3.6767,-3.6661,-3.481,-3.4059,-3.4059,-3.4059,-3.3937,-3.3827,-3.3605,-3.3605,-3.3605,-1.1977,-1.2046,-1.2252,-1.2782,-1.3677,-1.4528,-1.5201,-1.558,-1.5719,-1.5575,-1.4748,-1.3799,-1.2851,-1.2489,-1.2129,-1.1625,-1.2981,-1.4502,0.0,0.0,-1.7448,-1.746,-1.7629,-1.7726,-1.7679,-1.7629,-1.7563,-1.7412,-1.7535,-1.6967,-1.5727,-1.5814,-1.5304,-1.4369,-1.3976,-1.3704,-1.3492,-1.3168,-1.2884,-1.2662,-1.2806,-1.3418,-1.4281,-1.4908,-1.5,-1.4796,-1.445,-1.444,-1.4731,-1.559,-1.5697,-1.5648,-1.652,0.0,0.0,0.0,0.0,0.0,0.0,0.0,0.0,0.0,0.0,0.0,0.0,0.0,0.0,0.0,0.0,0.0,0.0,0.0,0.0,-3.1418,-3.3011,-3.4263,-3.4841,-3.6242,-3.7508,-3.827,-3.9373,-4.0662,-4.2115,-4.2351,-4.205,-4.1139,-4.0874,-4.0317,-3.9379,-4.0586,-4.1139,-4.0909,-4.2541,-4.2591,-4.0867,-4.1099,-4.0489,-3.9023,-3.9148,0.0,-3.9272,-3.9272,-3.9272,-3.9202,-3.7381,-3.6661,-3.6477,-3.4691,-3.3813,-3.3675,-3.3675,-3.3605,-3.3396,-3.3396,-3.3466,-3.3605,-1.3063,-1.274,-1.2619,-1.3206,-1.3841,-1.4537,-1.5282,-1.5668,-1.5655,-1.5129,-1.4442,-1.3642,-1.2689,-1.209,-1.1827,-1.2022,-1.3429,0.0,0.0,-1.7126,-1.6889,-1.6216,-1.6475,-1.6626,-1.6602,-1.6617,-1.642,-1.6046,-1.624,-1.5631,-1.4257,-1.4178,-1.4135,-1.4042,-1.2953,-1.2759,-1.32,-1.2461,-1.2133,-1.2077,-1.1884,-1.2054,-1.248,-1.3006,-1.3194,-1.3122,-1.2947,-1.3355,-1.3985,-1.4644,-1.4987,-1.5318,-1.617,-1.6254,-1.6327,0.0,0.0,0.0,0.0,0.0,0.0,0.0,0.0,0.0,0.0,0.0,0.0,0.0,0.0,-2.7625,-2.8886,0.0,-3.1329,-3.2272,-3.3868,-3.5043,-3.517,-3.699,-3.8433,-3.8755,-3.9944,-4.1132,-4.2239,-4.2192,-4.1743,-4.0856,-4.0508,-3.9935,-3.9077,-4.0094,-4.0778,-4.0934,-4.1906,-4.1939,-4.1083,-4.0795,-4.0127,-3.9148,-3.9148,-3.9202,-3.9272,-3.9148,-3.8843,-3.8463,-3.7008,-3.6166,-3.574,-3.4303,-3.3605,-3.3466,-3.3466,-3.3396,-3.3326,-3.3326,-3.3396,-3.3466,-1.3815,-1.3254,-1.2925,-1.3591,-1.3919,-1.4398,-1.5242,-1.5605,-1.5415,-1.4498,-1.4357,-1.3882,-1.2707,-1.2136,-1.2215,-1.3216,-1.436,0.0,0.0,-1.6953,-1.6335,-1.5443,-1.5662,-1.5878,-1.5984,-1.5863,-1.5519,-1.4923,-1.5034,-1.4393,-1.2991,-1.2629,-1.2879,-1.3557,-1.1855,-1.1789,-1.2864,-1.1776,-1.1431,-1.1601,-1.1303,-1.0887,-1.0558,-1.1125,-1.1349,-1.1352,-1.163,-1.2414,-1.3374,-1.3601,-1.4082,-1.4758,-1.5631,-1.5603,-1.5498,-1.7026,-1.719,0.0,0.0,0.0,0.0,0.0,0.0,0.0,0.0,-2.3839,-2.5311,-2.6125,-2.7442,-2.8761,-2.9849,-3.1306,-3.2595,-3.3307,-3.494,-3.5973,-3.5644,-3.7423,-3.889,-3.9244,-4.0384,-4.1493,-4.2342,-4.2074,-4.149,-4.0651,-4.015,-3.963,-3.8898,-3.9549,-4.0261,-4.091,-4.1132,-4.1205,-4.1153,-4.0479,-3.9875,-3.9272,-3.9094,-3.904,-3.9202,-3.8876,-3.8367,-3.7642,-3.6384,-3.5404,-3.4662,-3.3854,-3.3466,-3.3326,-3.3326,-3.3326,-3.3326,-3.3326,-3.3326,-3.3396,-1.3894,-1.3854,-1.3891,-1.4082,-1.4512,-1.4836,-1.4968,-1.4905,-1.4809,-1.4674,-1.4308,-1.3746,-1.3031,-1.2923,-1.3198,-1.393,-1.4043,0.0,-1.5913,-1.5467,-1.533,-1.5734,-1.5408,-1.5415,-1.589,-1.5905,-1.5831,-1.5672,-1.5076,-1.4272,-1.333,-1.2635,-1.1951,-1.1264,-1.1089,-1.1133,-1.1331,-1.1308,-1.1184,-1.0985,-1.1004,-1.0637,-1.0089,-1.0338,-1.0508,-1.074,-1.1553,-1.1995,-1.2204,-1.2975,-1.3167,-1.3254,-1.427,-1.4628,-1.4851,-1.6244,-1.6585,-1.6691,-1.7352,-1.8012,-1.8642,-1.9342,-2.0243,-2.1425,0.0,-2.4009,-2.4976,-2.6991,-2.8246,-2.9452,-3.0943,-3.2544,-3.3874,-3.4525,-3.5799,-3.6625,-3.6392,-3.7686,-3.8714,-3.8936,-4.0316,-4.1629,-4.248,-4.2649,-4.2175,-4.0949,-4.081,-4.0234,-3.9061,-3.9676,-4.0048,-4.0074,-4.0908,-4.0998,-4.0242,-4.036,-4.0001,-3.9272,-3.8985,-3.886,-3.886,-3.8544,-3.8042,-3.7306,-3.5631,-3.4394,-3.3507,-3.3382,-3.3326,-3.3326,-3.3326,-3.3326,-3.3326,-3.3326,-3.3396,-3.3605,-1.3921,-1.4026,-1.4111,-1.4189,-1.4651,-1.5081,-1.5282,-1.5184,-1.5003,-1.4693,-1.4352,-1.3842,-1.3137,-1.3412,-1.3892,-1.4567,-1.4172,-1.442,-1.5608,-1.5082,-1.463,-1.4412,-1.4134,-1.3943,-1.3856,-1.3749,-1.3656,-1.3573,-1.329,-1.2664,-1.1804,-1.1587,-1.1405,-1.1259,-1.1196,-1.133,-1.1543,-1.1223,-1.0987,-1.0845,-1.0389,-1.0004,-0.9798,-0.9883,-1.0211,-1.0684,-1.1072,-1.1384,0.0,0.0,-1.2473,-1.2733,-1.3234,-1.3538,-1.3913,-1.4879,-1.5217,-1.5412,-1.6158,-1.7409,-1.8584,-1.8782,-2.0323,-2.2004,-2.2742,-2.3855,-2.517,-2.6683,-2.8091,-2.9564,-3.1214,-3.2364,-3.345,-3.4622,-3.5547,-3.6275,-3.6563,-3.7432,-3.8237,-3.8832,-3.9851,-4.0674,-4.1112,-4.1281,-4.0976,-4.0089,-4.0043,-3.9586,-3.836,-3.9051,-3.9374,-3.9152,-3.9654,-3.9827,-3.9748,-3.9493,-3.9171,-3.886,-3.8805,-3.8805,-3.8805,-3.8504,-3.7637,-3.6213,-3.4647,-3.3701,-3.3326,-3.3326,-3.3326,-3.3326,-3.3326,-3.3326,-3.3326,-3.3326,-3.3466,-3.3605,-1.3921,-1.4007,-1.4138,-1.4203,-1.4702,-1.5107,-1.5153,-1.5263,-1.5175,-1.4802,-1.4787,-1.4559,-1.3834,-1.4116,-1.4475,-1.4827,-1.4313,-1.4308,-1.5106,-1.4494,-1.3919,-1.3506,-1.3173,-1.2843,-1.2457,-1.2279,-1.2061,-1.1843,-1.1689,-1.1337,-1.0897,-1.0792,-1.0902,-1.1181,-1.1124,-1.1159,-1.1259,-1.0816,-1.0573,-1.0389,-0.9786,-0.9533,-0.9534,-0.9637,-1.0016,-1.0539,-1.0609,-1.1012,0.0,0.0,-1.1666,-1.2063,-1.2454,-1.2696,-1.3017,-1.3828,-1.4236,-1.4494,-1.5262,-1.6692,-1.7984,-1.8266,-2.0224,-2.2148,-2.2233,-2.3713,-2.5238,-2.6037,-2.7656,-2.9407,-3.1101,-3.2128,-3.3275,-3.4977,-3.5593,-3.613,-3.6803,-3.7281,-3.7862,-3.874,-3.9292,-3.9682,-3.9953,-4.0518,-4.0651,-4.0043,-3.9905,-3.9416,-3.8391,-3.8743,-3.886,-3.8639,-3.875,-3.8956,-3.9284,-3.8844,-3.8639,-3.8639,-3.8694,-3.8694,-3.8655,-3.7943,-3.689,-3.5499,-3.4031,-3.3326,-3.3326,-3.3396,-3.3326,-3.3326,-3.3326,-3.3326,-3.3312,-3.3241,-3.3312,-3.3536,-1.3888,-1.3921,-1.3974,-1.4268,-1.4755,-1.4877,-1.4139,-1.4661,-1.5114,-1.5087,-1.5882,-1.616,-1.5491,-1.5336,-1.5015,-1.4465,-1.4288,-1.416,-1.4052,-1.3319,-1.3101,-1.3677,-1.2942,-1.2525,-1.2582,-1.2462,-1.2106,-1.1513,-1.0853,-1.0821,-1.1365,-1.0638,-1.0361,-1.0442,-1.0485,-1.0252,-0.9789,-0.9897,-0.967,-0.9282,-0.9452,-0.9411,-0.9323,-0.9533,-0.9762,-1.0041,-1.0303,0.0,0.0,-1.0904,-1.0696,-1.0831,-1.1887,-1.2136,0.0,-1.3445,-1.4014,-1.4376,-1.5209,-1.5788,-1.6535,-1.8011,-1.9754,-2.1345,-2.2028,-2.3655,-2.5028,-2.5205,-2.7056,-2.9108,-3.0703,-3.2278,-3.3955,-3.6027,-3.6316,-3.6522,-3.7299,-3.7374,-3.7714,-3.8513,-3.8732,-3.9053,-3.9585,-4.1266,-4.2098,-4.1481,-4.0949,-4.0412,-3.9749,-3.9135,-3.8805,-3.8805,-3.8805,-3.8805,-3.8838,-3.8805,-3.8805,-3.8805,-3.8544,-3.8391,-3.8335,-3.6508,-3.5627,-3.5499,-3.4182,-3.3466,-3.3326,-3.3536,-3.3466,-3.3326,-3.3326,-3.3326,-3.3255,-3.3072,-3.3157,-3.3326,-1.3947,-1.4359,-1.4741,-1.4884,-1.5046,-1.508,-1.4762,-1.4958,-1.4999,-1.473,-1.5017,0.0,0.0,0.0,0.0,0.0,-1.3828,-1.363,-1.3861,-1.3116,-1.2697,-1.2765,-1.2386,-1.1789,-1.1014,-1.1255,-1.1094,-1.0515,-1.0544,-1.0607,-1.0721,-1.0083,-0.9725,-0.9679,-0.9359,-0.9341,-0.9552,-0.9316,-0.9282,-0.9321,-0.9326,-0.9184,-0.904,-0.9643,-1.0372,-1.1082,0.0,0.0,0.0,-1.0303,-1.0277,-1.0404,-1.1219,-1.1636,-1.2193,-1.3842,-1.4882,-1.5603,-1.5869,-1.6748,-1.7692,-1.8246,-1.9586,-2.0982,-2.1873,-2.2684,-2.3535,-2.4699,-2.5605,-2.7022,-2.9617,-3.0445,-3.1785,-3.5015,-3.5531,-3.5925,-3.717,-3.7354,-3.7714,-3.8513,-3.91,-3.974,-4.0481,-4.0637,-4.0694,-4.0639,-4.0055,-3.9469,-3.8942,-3.8743,-3.8388,-3.7679,-3.8244,-3.8432,-3.8205,-3.8319,-3.8375,-3.8375,-3.8391,-3.8391,-3.8335,-3.6538,-3.5695,-3.5646,-3.4221,-3.3466,-3.3326,-3.3536,-3.3382,-3.3072,-3.3072,-3.3002,-3.286,-3.2846,-3.2846,-3.2931,-1.4313,-1.4789,-1.5229,-1.5502,-1.5543,0.0,0.0,0.0,0.0,0.0,0.0,0.0,0.0,0.0,0.0,0.0,0.0,-1.3045,-1.3213,-1.2684,-1.2282,-1.2077,-1.1733,-1.1182,-1.0471,-1.0354,-1.0146,-0.9819,-0.9654,-0.9617,-0.9751,-0.91,-0.8833,-0.8807,-0.8627,-0.8691,-0.8898,-0.8674,-0.8786,-0.9096,-0.8968,-0.8892,-0.8945,-0.9783,-1.0517,0.0,0.0,0.0,0.0,-1.0696,-1.0616,-1.0475,-1.1267,-1.1816,-1.2378,-1.3586,-1.4518,-1.5259,-1.5598,-1.6464,-1.7287,-1.7517,-1.8673,-2.0019,-2.0981,-2.1347,-2.2064,-2.3939,-2.4648,-2.5715,-2.8511,-2.9571,-3.1108,-3.4404,-3.5134,-3.5784,-3.7058,-3.7241,-3.7668,-3.8809,-3.9394,-4.0179,-4.1286,-4.0994,-4.0806,-4.0866,-4.0072,-3.9486,-3.9159,-3.8743,-3.8237,-3.76,-3.8109,-3.8278,-3.8107,-3.8237,-3.8278,-3.8278,-3.8351,-3.8391,-3.8335,-3.6661,-3.5885,-3.5821,-3.4409,-3.3675,-3.3536,-3.3605,-3.3382,-3.3072,-3.2917,-3.2846,-3.2704,-3.2632,-3.2561,-3.2574,-1.4971,-1.5202,-1.5488,0.0,0.0,0.0,0.0,0.0,0.0,0.0,0.0,0.0,0.0,0.0,0.0,0.0,0.0,0.0,-1.221,-1.2018,0.0,-1.1682,-1.1061,-1.0784,-1.084,-0.9902,-0.9422,-0.9523,-0.8351,-0.8089,-0.8628,-0.7902,-0.7698,-0.79,-0.8236,-0.8174,-0.7841,-0.7955,-0.821,-0.858,-0.847,-0.867,-0.9065,-0.9887,0.0,0.0,0.0,0.0,0.0,-1.191,-1.1544,-1.1025,-1.1941,-1.251,-1.2868,-1.2899,-1.3159,-1.361,-1.4594,-1.5084,-1.5439,-1.5968,-1.7177,-1.8458,-1.9447,-1.9897,-2.0797,-2.2977,-2.4059,-2.5306,-2.7467,-2.9588,-3.182,-3.4181,-3.5203,-3.6032,-3.6964,-3.7048,-3.7611,-3.9328,-3.9527,-4.017,-4.1795,-4.208,-4.2139,-4.205,-4.0995,-4.0314,-4.0231,-3.9102,-3.8448,-3.8391,-3.8391,-3.8391,-3.8391,-3.8391,-3.8391,-3.8391,-3.8391,-3.8391,-3.8335,-3.6798,-3.6089,-3.5963,-3.4677,-3.4005,-3.3813,-3.3675,-3.3466,-3.3241,-3.2846,-3.2704,-3.2632,-3.2489,-3.23,-3.2241,0.0,0.0,0.0,0.0,0.0,0.0,0.0,0.0,0.0,0.0,0.0,0.0,0.0,0.0,0.0,0.0,0.0,0.0,-1.2365,-1.2066,0.0,0.0,0.0,-1.1053,-1.0254,-1.0488,0.0,0.0,0.0,-0.9006,-0.8945,-0.7918,-0.7637,-0.7962,-0.7354,-0.7383,-0.7955,-0.8106,-0.8252,-0.849,0.0,-0.8811,-0.8878,0.0,0.0,0.0,0.0,0.0,0.0,-1.1514,-1.1571,-1.1764,-1.2289,-1.306,-1.3882,-1.4185,-1.458,-1.5018,-1.5411,-1.5553,-1.5644,-1.6141,-1.6709,-1.7495,-1.8768,-1.9358,-2.0196,-2.2017,-2.2972,-2.4358,-2.709,-2.8936,-3.0997,-3.3852,-3.5014,-3.5859,-3.6746,-3.693,-3.7418,-3.8488,-3.8651,-3.9062,-4.0116,-4.0263,-4.0552,-4.1215,-4.1139,-4.0568,-3.9546,-3.9276,-3.8952,-3.8391,-3.8391,-3.8391,-3.8391,-3.8391,-3.8391,-3.8391,-3.8391,-3.8391,-3.8335,-3.6798,-3.5963,-3.5646,-3.4288,-3.3437,-3.3002,-3.3143,-3.2931,-3.2632,-3.2489,-3.2431,-3.23,-3.2241,-3.2241,-3.2169,0.0,0.0,0.0,0.0,0.0,0.0,0.0,0.0,0.0,0.0,0.0,0.0,0.0,0.0,0.0,0.0,0.0,0.0,0.0,-1.2805,0.0,0.0,0.0,-1.1768,-1.1185,-1.1006,-1.0807,0.0,0.0,0.0,0.0,-0.7649,-0.7276,-0.7481,-0.711,-0.7315,-0.7898,-0.8056,0.0,0.0,0.0,0.0,0.0,0.0,0.0,0.0,0.0,0.0,0.0,0.0,0.0,-1.251,-1.2663,-1.3219,-1.3903,-1.4108,-1.4399,-1.4729,-1.4955,-1.5091,-1.5246,-1.5414,-1.5774,-1.6459,-1.779,-1.8315,-1.9118,-2.1163,-2.2447,-2.3913,-2.6241,-2.839,-3.0598,-3.308,-3.4535,-3.5659,-3.6545,-3.6788,-3.7206,-3.8139,-3.8267,-3.8589,-3.9509,-3.9979,-4.0144,-3.9913,-4.0411,-4.0429,-3.9717,-3.9496,-3.9082,-3.8391,-3.8391,-3.8391,-3.8391,-3.8391,-3.8391,-3.8391,-3.8391,-3.8351,-3.8278,-3.7131,-3.6244,-3.5518,-3.4461,-3.3618,-3.2988,-3.2917,-3.2775,-3.2489,-3.2359,-3.2241,-3.2182,-3.2182,-3.2182,-3.2182,0.0,0.0,0.0,0.0,0.0,0.0,0.0,0.0,0.0,-1.5114,-1.5309,-1.5432,-1.541,-1.512,0.0,0.0,0.0,0.0,0.0,0.0,0.0,0.0,-1.2508,-1.2654,-1.263,-1.1494,-1.1061,0.0,0.0,0.0,0.0,0.0,0.0,0.0,0.0,0.0,0.0,0.0,0.0,0.0,0.0,0.0,0.0,0.0,0.0,0.0,0.0,0.0,0.0,0.0,-1.3049,-1.3036,-1.2999,-1.3159,-1.3398,-1.3435,-1.3536,-1.3702,-1.3967,-1.4339,-1.4605,-1.4474,-1.4883,-1.5675,-1.6949,-1.7369,-1.8209,-2.0603,-2.2311,-2.3837,-2.5452,-2.8056,-3.0569,-3.2417,-3.4048,-3.5415,-3.6357,-3.6602,-3.7027,-3.7912,-3.8023,-3.835,-3.9208,-4.0037,-3.9931,-3.861,-3.934,-3.9874,-3.9941,-3.9699,-3.9189,-3.8391,-3.8391,-3.8391,-3.8391,-3.8391,-3.8391,-3.8391,-3.8391,-3.8294,-3.8107,-3.7397,-3.6492,-3.5503,-3.4743,-3.3916,-3.3143,-3.2775,-3.2632,-3.2632,-3.23,-3.2182,-3.2182,-3.2182,-3.2182,-3.2241,0.0,0.0,0.0,0.0,0.0,0.0,0.0,-1.6208,-1.6357,-1.6092,-1.5644,-1.5612,-1.6291,-1.5583,0.0,0.0,0.0,0.0,0.0,0.0,0.0,-1.2748,-1.3098,-1.3044,-1.2391,-1.2161,-1.1901,0.0,0.0,0.0,0.0,0.0,0.0,0.0,0.0,0.0,0.0,0.0,0.0,0.0,0.0,0.0,0.0,0.0,0.0,0.0,0.0,0.0,0.0,0.0,-1.336,-1.2792,-1.29,-1.3139,-1.3462,-1.3681,-1.3827,-1.3967,-1.4189,-1.4303,-1.4409,-1.4602,-1.5318,-1.6214,-1.7223,-1.8095,-1.917,-2.0761,-2.242,-2.4156,-2.6048,-2.8481,-3.0849,-3.3053,-3.4309,-3.5356,-3.634,-3.6602,-3.6777,-3.7021,-3.7158,-3.7312,-3.7535,-3.7771,-3.8135,-3.8546,-3.8717,-3.8653,-3.8248,-3.9455,-3.9612,-3.8448,-3.8391,-3.8391,-3.8391,-3.8391,-3.8335,-3.8221,-3.8221,-3.8107,-3.7918,-3.6656,-3.5723,-3.5056,-3.3783,-3.297,-3.2386,-3.2314,-3.2314,-3.2314,-3.2241,-3.2182,-3.2182,-3.2182,-3.2182,-3.2241,0.0,0.0,0.0,0.0,0.0,0.0,0.0,-1.6649,-1.7166,-1.7377,-1.7246,-1.7047,-1.682,-1.6704,-1.6441,0.0,0.0,0.0,0.0,0.0,0.0,0.0,0.0,-1.4595,-1.3233,-1.3132,-1.2782,-1.2101,0.0,0.0,0.0,-0.9867,0.0,0.0,0.0,0.0,0.0,0.0,0.0,0.0,0.0,0.0,0.0,0.0,0.0,0.0,0.0,0.0,0.0,0.0,-1.3729,-1.3372,-1.308,-1.322,-1.3493,-1.3775,-1.3908,-1.4013,-1.4337,-1.4383,-1.4397,-1.4525,-1.5153,-1.5958,-1.6828,-1.8,-1.9241,-2.049,-2.2411,-2.438,-2.6065,-2.801,-3.0095,-3.2377,-3.3541,-3.4499,-3.5521,-3.6219,-3.6643,-3.6788,-3.697,-3.7069,-3.7203,-3.7651,-3.7957,-3.794,-3.8723,-3.8872,-3.8013,-3.8136,-3.814,-3.7936,-3.7841,-3.7963,-3.8278,-3.8294,-3.8221,-3.8049,-3.768,-3.7639,-3.7786,-3.6342,-3.5414,-3.4809,-3.3864,-3.2925,-3.2182,-3.2182,-3.2182,-3.2182,-3.2182,-3.2182,-3.2182,-3.2182,-3.2182,-3.2241,0.0,0.0,0.0,0.0,0.0,0.0,-1.6243,-1.6928,-1.7697,-1.8346,-1.8768,-1.8628,-1.7609,-1.7879,-1.7841,0.0,0.0,0.0,0.0,0.0,0.0,0.0,0.0,0.0,-1.4503,0.0,0.0,-1.2869,-1.2295,0.0,0.0,0.0,0.0,0.0,-0.9915,-0.9799,0.0,0.0,0.0,0.0,0.0,-1.1007,0.0,0.0,0.0,0.0,0.0,0.0,0.0,0.0,-1.4175,-1.4105,-1.3587,-1.3535,-1.3735,-1.4026,-1.4189,-1.4305,-1.4515,-1.456,-1.4602,-1.4759,-1.5192,-1.5885,-1.701,-1.8182,-1.9331,-2.0434,-2.2628,-2.473,-2.5955,-2.7698,-2.9654,-3.1926,-3.3086,-3.4024,-3.5044,-3.6094,-3.6759,-3.6806,-3.7009,-3.7203,-3.7297,-3.796,-3.8067,-3.737,-3.8429,-3.8824,-3.8123,-3.707,-3.6743,-3.7243,-3.7151,-3.73,-3.7826,-3.777,-3.7713,-3.747,-3.691,-3.6829,-3.715,-3.5895,-3.5069,-3.4581,-3.3853,-3.3054,-3.2182,-3.2182,-3.2182,-3.2182,-3.2182,-3.2182,-3.2182,-3.2182,-3.2182,-3.2241,0.0,0.0,0.0,0.0,0.0,0.0,-1.6222,-1.7045,-1.7866,-1.8438,-1.9198,-1.954,-1.9148,-1.8622,-1.8305,0.0,0.0,0.0,0.0,0.0,0.0,0.0,0.0,0.0,0.0,0.0,0.0,-1.4299,-1.4139,0.0,0.0,0.0,0.0,0.0,0.0,-1.0509,-1.0517,0.0,0.0,0.0,0.0,0.0,0.0,0.0,0.0,0.0,0.0,0.0,0.0,0.0,0.0,-1.4475,-1.4442,-1.4365,-1.4301,-1.469,-1.509,-1.527,-1.4873,-1.4904,-1.5203,-1.5937,-1.616,-1.6768,-1.8933,-1.958,-2.0039,-2.1227,-2.3405,-2.5329,-2.6054,-2.8243,-3.0678,-3.2916,-3.415,-3.5153,-3.6052,-3.704,-3.745,-3.6858,-3.7105,-3.7297,-3.7392,-3.7445,-3.7463,-3.7392,-3.7097,-3.7195,-3.7853,-3.7448,-3.6967,-3.6453,-3.6474,-3.6527,-3.6539,-3.6534,-3.6373,-3.6162,-3.6005,-3.5784,-3.5609,-3.4802,-3.4241,-3.3839,-3.3098,-3.2573,-3.2182,-3.2182,-3.2182,-3.2182,-3.2182,-3.2182,-3.2182,-3.2182,-3.2182,-3.2241,0.0,0.0,0.0,0.0,0.0,0.0,-1.6436,-1.7135,-1.7836,-1.8422,-1.9119,-1.9626,-1.9778,-1.9391,-1.8869,-1.8159,0.0,0.0,0.0,0.0,0.0,0.0,0.0,0.0,0.0,0.0,-1.6396,-1.554,-1.544,0.0,0.0,0.0,0.0,0.0,0.0,-1.1994,-1.1984,0.0,0.0,0.0,0.0,0.0,0.0,0.0,0.0,0.0,0.0,0.0,-1.6083,-1.6023,-1.6293,0.0,-1.6777,-1.6363,0.0,0.0,-1.5136,-1.521,-1.5285,-1.5285,-1.546,-1.6242,-1.6728,-1.7518,-1.9248,-2.0,-2.0585,-2.1495,-2.3617,-2.5514,-2.6106,-2.8313,-3.061,-3.2418,-3.3439,-3.4592,-3.6146,-3.7126,-3.7701,-3.7752,-3.8026,-3.8055,-3.7739,-3.7703,-3.7667,-3.754,-3.7261,-3.6905,-3.6576,-3.6169,-3.5844,-3.5763,-3.5711,-3.5853,-3.6185,-3.6147,-3.6039,-3.586,-3.539,-3.5297,-3.5459,-3.4317,-3.382,-3.375,-3.301,-3.2516,-3.2182,-3.2182,-3.2182,-3.2182,-3.2182,-3.2182,-3.2182,-3.2182,-3.2182,-3.2241,0.0,0.0,0.0,0.0,0.0,-1.6394,-1.6463,-1.7274,-1.7983,-1.8361,-1.9153,-1.9783,-1.9949,-1.9818,-1.9295,-1.8316,-1.8422,0.0,0.0,0.0,0.0,0.0,0.0,0.0,0.0,0.0,-1.7341,-1.6524,-1.6481,-1.6225,0.0,0.0,-1.5039,-1.4869,0.0,0.0,0.0,0.0,0.0,0.0,0.0,0.0,0.0,0.0,0.0,0.0,0.0,0.0,0.0,0.0,0.0,0.0,0.0,0.0,0.0,0.0,-1.561,-1.5492,-1.5638,-1.5845,-1.6114,-1.6724,-1.7443,-1.8331,-1.9608,-2.0336,-2.0975,-2.1911,-2.3879,-2.5665,-2.6584,-2.8578,-3.0675,-3.2496,-3.3461,-3.4675,-3.6624,-3.76,-3.8262,-3.8709,-3.8958,-3.8863,-3.8241,-3.7989,-3.7775,-3.7613,-3.754,-3.6978,-3.5769,-3.5504,-3.5268,-3.5049,-3.4964,-3.5104,-3.5485,-3.5448,-3.5395,-3.5289,-3.4723,-3.4649,-3.5004,-3.4171,-3.3707,-3.3534,-3.3191,-3.2687,-3.2182,-3.2182,-3.2182,-3.2182,-3.2182,-3.2182,-3.2182,-3.2182,-3.2241,-3.23,0.0,0.0,0.0,0.0,0.0,0.0,-1.6194,-1.7508,-1.8408,-1.8129,-1.9425,-2.0224,-1.9747,-1.969,-1.9581,-1.9302,-1.9093,0.0,0.0,0.0,0.0,0.0,0.0,0.0,0.0,0.0,-1.8277,-1.73,-1.73,-1.6873,-1.6108,-1.6108,-1.5847,-1.5386,0.0,0.0,0.0,0.0,0.0,0.0,0.0,0.0,-1.6087,0.0,0.0,0.0,0.0,0.0,0.0,0.0,0.0,0.0,0.0,-1.874,-1.8479,0.0,-1.6828,-1.649,-1.6026,-1.6613,-1.7449,-1.7633,-1.8346,-1.928,-2.0344,-2.0716,-2.1231,-2.2787,-2.4325,-2.5933,-2.7658,-2.9261,-3.1131,-3.3658,-3.4794,-3.5977,-3.7755,-3.873,-3.937,-3.9562,-3.9718,-3.9533,-3.8957,-3.8169,-3.7667,-3.7631,-3.7685,-3.7152,-3.5865,-3.6053,-3.5531,-3.4151,-3.425,-3.4316,-3.4316,-3.4167,-3.4117,-3.4117,-3.3965,-3.3864,-3.3742,-3.4271,-3.3893,-3.2963,-3.3564,-3.3182,-3.2182,-3.2182,-3.2182,-3.2182,-3.2182,-3.2182,-3.2182,-3.2182,-3.23,-3.2417,0.0,0.0,0.0,0.0,0.0,0.0,-1.6194,-1.6976,-1.7669,-1.8037,-1.8877,-1.9558,-1.9874,-1.9762,-1.9654,-1.9538,-1.9228,0.0,0.0,0.0,0.0,0.0,0.0,0.0,0.0,0.0,-1.8846,-1.8511,-1.8511,-1.8263,-1.7814,-1.7354,-1.7037,-1.6811,-1.6373,-1.6102,0.0,0.0,0.0,0.0,0.0,-1.6944,-1.7523,0.0,0.0,0.0,0.0,0.0,0.0,0.0,0.0,0.0,0.0,0.0,0.0,-1.9196,-1.8641,-1.8134,-1.799,-1.8219,-1.8638,-1.9276,-1.967,-2.0287,-2.1825,-2.2292,-2.2677,-2.3771,-2.5695,-2.7335,-2.7844,-3.0204,-3.2689,-3.4479,-3.5572,-3.695,-3.9233,-3.9894,-4.001,-3.9673,-3.8986,-3.8438,-3.8223,-3.79,-3.7721,-3.7793,-3.7394,-3.6843,-3.6138,-3.583,-3.5174,-3.4134,-3.425,-3.425,-3.4151,-3.4101,-3.3808,-3.3256,-3.3673,-3.359,-3.3056,-3.3658,-3.3557,-3.2919,-3.3077,-3.2835,-3.2182,-3.2182,-3.2182,-3.2182,-3.2182,-3.2182,-3.2182,-3.2182,-3.2241,-3.23,0.0,0.0,0.0,0.0,0.0,0.0,-1.6055,-1.6831,-1.7563,-1.7879,-1.8791,-1.9515,-1.9818,-1.9705,-1.9596,-1.9611,-1.9376,0.0,0.0,0.0,0.0,0.0,0.0,0.0,0.0,-1.9398,-1.9236,-1.9236,-1.9213,-1.9101,-1.8808,-1.8355,-1.804,-1.7814,-1.7463,-1.719,0.0,0.0,0.0,0.0,-1.7732,-1.8154,-1.8976,0.0,0.0,0.0,0.0,0.0,0.0,0.0,0.0,0.0,0.0,0.0,0.0,0.0,-2.1176,-2.0548,-1.9305,-1.9489,-2.0049,-2.0333,-2.1111,-2.2092,-2.3291,-2.3829,-2.4447,-2.5683,-2.7125,-2.839,-2.9008,-3.1042,-3.3162,-3.4745,-3.5953,-3.7487,-3.9726,-4.0134,-4.0106,-3.9811,-3.8883,-3.8259,-3.8259,-3.8007,-3.7863,-3.7916,-3.7413,-3.6685,-3.5873,-3.5343,-3.4726,-3.3877,-3.386,-3.3632,-3.3143,-3.3417,-3.3337,-3.2835,-3.3526,-3.3572,-3.3171,-3.3774,-3.3575,-3.2763,-3.3129,-3.2801,0.0,-3.1915,-3.1965,-3.2155,-3.1938,-3.1979,-3.2182,-3.2182,-3.2182,-3.2214,0.0,0.0,0.0,0.0,0.0,0.0,0.0,-1.7091,-1.797,-1.7882,-1.9159,-2.0025,-1.9781,-1.959,-1.9524,-1.9685,-1.9531,0.0,0.0,0.0,0.0,0.0,0.0,0.0,-1.9797,-1.9603,-1.953,-1.953,-1.9472,-1.9362,-1.9244,-1.9161,-1.8884,-1.8458,-1.8458,-1.821,0.0,0.0,0.0,0.0,-1.8885,-1.9315,0.0,0.0,0.0,0.0,0.0,0.0,0.0,0.0,0.0,0.0,0.0,0.0,0.0,0.0,0.0,0.0,0.0,-2.0613,-2.1671,-2.1183,-2.2638,-2.4329,-2.4778,-2.5346,0.0,-2.8125,-2.865,-2.9286,-3.0973,-3.1899,-3.2985,-3.4781,-3.6277,-3.7774,-3.9492,-3.9771,-3.9872,-3.9985,-3.9314,-3.8868,-3.8885,-3.8348,-3.8018,-3.7984,-3.7506,-3.6655,-3.5283,-3.4785,-3.4129,-3.3252,-3.3063,-3.2579,-3.179,-3.2447,-3.2752,-3.2704,-3.3374,-3.3729,-3.3799,-3.435,-3.3865,-3.2615,-3.3478,-3.2961,-3.1459,-3.136,-3.1544,-3.2006,-3.1436,-3.1558,-3.2119,-3.206,-3.2119,-3.2037,0.0,0.0,0.0,0.0,0.0,0.0,0.0,0.0,0.0,0.0,-2.0355,-2.1057,-2.1257,-2.0737,-2.0415,0.0,0.0,0.0,0.0,0.0,0.0,0.0,0.0,0.0,-1.9955,-1.9797,-1.9726,-1.9726,-1.9812,-1.9762,-1.9566,-1.9581,-1.942,-1.9161,-1.9161,-1.9087,0.0,0.0,0.0,0.0,-2.041,-2.062,0.0,0.0,0.0,0.0,-1.9884,-2.0317,0.0,0.0,0.0,0.0,0.0,0.0,0.0,0.0,-2.4444,-2.4231,-2.357,0.0,-2.3629,-2.3518,-2.3974,-2.4782,0.0,-2.6666,-2.7356,-2.9101,0.0,-3.1091,-3.2687,-3.3776,-3.5102,-3.7297,-3.8507,-3.9583,-4.0602,-4.0384,-4.0339,-4.0969,-3.941,-3.8507,-3.8977,-3.8471,-3.8052,-3.8018,-3.7024,-3.6125,-3.5384,-3.4288,-3.3033,-3.1671,-3.158,-3.2203,-3.3483,-3.3476,-3.3131,-3.257,-3.322,-3.3268,-3.2825,-3.3475,-3.3497,-3.305,-3.2781,-3.2276,-3.1545,-3.0979,-3.0814,-3.0812,-3.0676,-3.0759,-3.0993,-3.0881,-3.102,-3.1186,0.0,0.0,0.0,0.0,0.0,0.0,0.0,0.0,0.0,0.0,-2.0763,-2.1421,-2.1747,-2.1143,-2.0753,0.0,0.0,0.0,0.0,0.0,0.0,0.0,0.0,-2.0146,-2.0146,-2.0061,-2.001,-2.001,-2.0045,-1.9975,-1.9889,-1.9833,-1.9777,-1.9683,-1.9683,-1.9683,0.0,0.0,0.0,-2.1995,-2.1347,0.0,0.0,0.0,0.0,0.0,-2.0936,-2.1291,0.0,-2.1814,-2.2584,-2.3532,0.0,0.0,0.0,0.0,-2.5791,-2.5743,-2.5822,-2.5698,-2.5639,-2.6012,-2.6497,-2.7324,-2.8987,0.0,0.0,0.0,0.0,-3.2292,-3.3493,-3.4835,-3.6203,-3.782,-3.9447,-4.0706,-4.1157,-4.0646,-4.0236,-4.04,-3.9029,-3.8249,-3.8615,-3.7998,-3.7594,-3.7528,-3.6379,-3.5277,-3.4446,-3.3431,-3.2404,-3.1314,-3.1165,-3.1507,-3.2401,-3.2574,-3.2567,-3.2419,-3.3065,-3.326,-3.2946,-3.3328,-3.3291,-3.2906,-3.2508,-3.1951,-3.1368,-3.0547,-3.0323,-3.0433,-3.0093,-3.0065,-3.0282,-3.0323,-3.0309,-3.0241,0.0,0.0,0.0,0.0,0.0,0.0,0.0,0.0,0.0,0.0,0.0,0.0,0.0,0.0,0.0,0.0,0.0,0.0,0.0,0.0,0.0,0.0,0.0,-2.0601,-2.0493,-2.0601,-2.0555,-2.0339,-2.0327,-2.0277,-2.015,-2.0096,-2.0122,-2.0248,-2.0142,-2.0157,0.0,0.0,-2.1341,-2.2518,-2.2034,0.0,0.0,0.0,0.0,0.0,0.0,0.0,0.0,-2.2807,-2.3361,-2.4098,-2.4948,0.0,0.0,0.0,0.0,0.0,-2.7445,-2.7572,-2.7784,-2.8182,-2.9037,-3.0174,-3.1758,0.0,0.0,0.0,0.0,0.0,-3.4157,-3.5561,-3.6952,-3.79,-3.9926,-4.1423,-4.1461,-4.0796,-4.0077,-3.9516,-3.8715,-3.8223,-3.8316,-3.7519,-3.7043,-3.7011,-3.5731,-3.4447,-3.326,-3.2599,-3.1972,-3.1341,-3.1078,-3.083,-3.0496,-3.1165,-3.1815,-3.2317,-3.2961,-3.3346,-3.345,-3.3339,-3.3066,-3.2532,-3.2158,-3.1648,-3.096,-2.99,-2.9695,-3.0105,-2.9401,-2.9228,-2.9453,-2.9806,-2.9696,-2.9313,0.0,0.0,0.0,0.0,0.0,0.0,0.0,0.0,0.0,0.0,0.0,0.0,0.0,0.0,0.0,0.0,0.0,0.0,0.0,0.0,0.0,-2.3234,-2.2596,-2.1994,-2.1416,-2.1978,-2.1662,-2.046,-2.107,-2.107,-2.0426,-2.0426,-2.0771,-2.1335,-2.0895,-2.0942,-2.1455,-2.166,-2.2188,-2.2921,-2.281,0.0,0.0,0.0,0.0,0.0,0.0,0.0,0.0,-2.3796,-2.4545,-2.5202,-2.5998,0.0,0.0,0.0,0.0,0.0,-2.8611,-2.9775,-3.0466,-2.9064,-2.9379,-3.0314,-3.1434,0.0,0.0,0.0,0.0,0.0,0.0,-3.7021,-3.8186,-3.9806,-4.1053,-4.1814,-4.1814,-4.1178,-4.065,-4.0575,-3.9396,-3.8821,-3.9316,-3.8041,-3.7153,-3.7089,-3.5571,-3.4217,-3.3261,-3.2453,-3.1585,-3.0625,-3.0412,-3.0473,-3.0836,-3.1789,-3.2292,-3.2403,-3.3013,-3.3293,-3.333,-3.2744,-3.2424,-3.2253,-3.1162,-3.0592,-3.0263,-2.8806,-2.8206,-2.8071,-2.7544,-2.7429,-2.7626,-2.7881,-2.8186,-2.8477,0.0,0.0,0.0,0.0,0.0,0.0,0.0,0.0,0.0,0.0,0.0,0.0,0.0,0.0,0.0,0.0,0.0,0.0,0.0,0.0,0.0,-2.377,-2.3932,-2.3301,-2.1639,-2.1941,-2.1596,-2.061,-2.0991,-2.0976,-2.0662,-2.0986,-2.1295,-2.1608,-2.185,-2.1869,-2.1787,-2.2077,-2.2629,-2.3272,0.0,0.0,0.0,0.0,0.0,0.0,0.0,0.0,0.0,0.0,-2.5125,-2.564,-2.6415,0.0,0.0,0.0,0.0,0.0,-2.8688,-3.0172,-3.1523,-3.082,-3.1724,-3.3031,-3.3946,-3.3886,0.0,0.0,0.0,0.0,0.0,-3.7857,-3.9408,-4.147,-4.1833,-4.1905,-4.1905,-4.0919,-4.0218,-4.0218,-3.931,-3.8805,-3.9077,-3.757,-3.6559,-3.6497,-3.4903,-3.3643,-3.2965,-3.2336,-3.1623,-3.0804,-3.0384,-3.0266,-3.0417,-3.1131,-3.1662,-3.1946,-3.2231,-3.2339,-3.2257,-3.194,-3.1797,-3.1662,-3.0791,-3.0391,-3.0211,-2.9195,-2.8429,-2.7803,-2.7539,-2.7223,-2.6997,-2.738,-2.7789,-2.8183,0.0,0.0,0.0,0.0,0.0,0.0,0.0,0.0,0.0,0.0,0.0,0.0,0.0,0.0,0.0,0.0,0.0,0.0,0.0,0.0,-2.4885,-2.4328,-2.499,-2.4292,-2.2016,-2.2232,-2.197,-2.1129,-2.1197,-2.1229,-2.1213,-2.1861,-2.2169,-2.2291,-2.2869,-2.2777,-2.2248,-2.257,-2.3028,-2.3582,0.0,0.0,0.0,0.0,0.0,0.0,0.0,0.0,0.0,0.0,0.0,0.0,0.0,0.0,0.0,-2.8121,-2.8855,-2.9394,-2.873,-3.0327,-3.2211,-3.2347,-3.3553,-3.497,-3.5987,-3.5645,0.0,0.0,0.0,0.0,0.0,-3.8368,-4.0144,-4.2123,-4.1978,-4.1613,-4.1431,-4.0422,-3.9644,-3.9461,-3.8993,-3.8707,-3.8707,-3.7052,-3.5994,-3.5994,-3.4388,-3.3196,-3.2734,-3.2231,-3.1733,-3.1189,-3.041,-2.9943,-2.9858,-2.9988,-3.0489,-3.139,-3.155,-3.1533,-3.1453,-3.1404,-3.1355,-3.1239,-3.083,-3.0413,-3.003,-2.9277,-2.8374,-2.7407,-2.7195,-2.684,-2.6466,-2.7039,-2.7459,-2.7762,0.0,0.0,0.0,0.0,0.0,0.0,0.0,0.0,0.0,0.0,0.0,0.0,0.0,0.0,0.0,0.0,0.0,0.0,0.0,0.0,-2.5551,-2.5503,-2.5535,-2.4814,-2.3135,-2.3942,-2.3708,-2.2362,-2.2443,-2.2443,-2.2411,-2.3143,-2.3756,-2.4285,-2.3911,-2.3651,-2.3484,-2.3652,-2.3702,-2.3734,-2.4439,0.0,0.0,0.0,0.0,0.0,0.0,0.0,0.0,0.0,0.0,0.0,0.0,0.0,-2.9481,-2.8912,-2.9325,-2.9875,-2.944,-3.1135,-3.2996,-3.2965,-3.3232,-3.3973,-3.5648,-3.5078,0.0,-3.5634,0.0,0.0,-3.7007,-3.8565,-4.005,-4.0912,-4.1001,-4.0741,-4.013,-3.9859,-3.9461,-3.8841,-3.8744,-3.8707,-3.8707,-3.7052,-3.5994,-3.5994,-3.4388,-3.3196,-3.2734,-3.2231,-3.1806,-3.1397,-3.0049,-2.937,-2.9354,-2.8519,-2.9,-3.0778,-3.131,-3.1582,-3.1582,-3.1469,-3.1404,-3.1387,-3.1254,-3.0401,-2.9013,-2.824,-2.7059,-2.5621,-2.5153,-2.5221,-2.5664,-2.6426,-2.6648,-2.6817,0.0,0.0,0.0,0.0,0.0,0.0,0.0,0.0,0.0,0.0,0.0,0.0,0.0,0.0,0.0,0.0,0.0,0.0,0.0,-2.5416,-2.5298,-2.492,-2.5489,-2.5297,-2.4216,-2.409,-2.3519,-2.2508,-2.2622,-2.2638,-2.2573,-2.3748,-2.4414,-2.4639,-2.4961,-2.4903,-2.4544,-2.4629,-2.4962,-2.5445,-2.5296,-2.616,0.0,0.0,0.0,0.0,0.0,0.0,0.0,0.0,-2.8039,-2.9296,-2.8431,-2.8901,-2.9618,-2.893,-2.9518,-3.0297,-2.9976,-3.173,-3.3647,-3.365,-3.3923,0.0,0.0,-3.6394,-3.6394,-3.7275,-3.7676,0.0,-3.8761,-3.9365,-4.0024,-4.0956,-4.0648,-4.0244,-4.0,-3.9473,-3.9032,-3.8744,-3.8707,-3.8536,-3.8051,-3.6861,-3.5923,-3.5428,-3.4254,-3.3473,-3.328,-3.255,-3.1847,-3.1185,-2.9989,-2.9098,-2.8613,-2.8174,-2.8315,-2.9046,-2.956,-2.9826,-2.9753,-3.0156,-3.0209,-2.9943,-2.9983,-2.9335,-2.8232,-2.7969,-2.6979,-2.5606,-2.5263,-2.5261,-2.5564,-2.6435,-2.679,-2.6881,0.0,0.0,0.0,0.0,0.0,0.0,0.0,0.0,0.0,0.0,0.0,0.0,0.0,0.0,0.0,0.0,0.0,0.0,-2.547,-2.5508,-2.5394,-2.5,-2.5566,-2.5724,-2.5287,-2.4578,-2.3951,-2.3342,-2.3473,-2.3489,-2.3489,-2.4709,-2.5266,-2.5283,-2.5848,-2.5754,-2.5212,-2.5497,-2.5832,-2.6151,-2.59,-2.6705,0.0,0.0,0.0,0.0,0.0,0.0,0.0,0.0,-2.863,-3.0087,-2.9094,-2.9251,-2.9761,-2.9479,-3.017,-3.0919,-3.0577,-3.2145,-3.3883,-3.3851,0.0,0.0,-3.6526,-3.6911,-3.7204,-3.8365,-3.8743,-3.9047,-3.9571,-3.9571,-3.9687,-4.0436,-4.0074,-3.9619,-3.9331,-3.8815,-3.8361,-3.8015,-3.7996,-3.7805,-3.7292,-3.6379,-3.5577,-3.5027,-3.4183,-3.3643,-3.3605,-3.2854,-3.1978,-3.1056,-2.9941,-2.886,-2.791,-2.7531,-2.7377,-2.7355,-2.7916,-2.8264,-2.8424,-2.9108,-2.9383,-2.9337,-2.9257,-2.865,-2.7798,-2.7527,-2.6572,-2.5253,-2.5207,-2.5207,-2.5328,-2.6193,-2.6546,-2.6797,0.0,0.0,0.0,0.0,0.0,0.0,0.0,0.0,0.0,0.0,0.0,0.0,0.0,0.0,0.0,0.0,0.0,0.0,-2.5616,-2.5787,-2.5917,-2.601,-2.601,-2.6082,-2.6295,-2.5664,-2.5297,-2.5179,-2.528,-2.5313,-2.533,-2.6133,-2.6485,-2.6485,-2.6485,-2.6117,-2.5464,-2.6218,-2.6117,-2.5497,-2.6235,-2.6553,-2.6637,0.0,0.0,0.0,0.0,0.0,0.0,0.0,-2.9147,-3.0416,-3.0416,-3.0269,-3.0221,-3.0758,-3.1369,-3.1775,-3.1243,-3.2318,-3.3583,-3.3512,0.0,0.0,-3.6278,-3.6232,-3.6424,-3.8646,-3.9064,-3.8979,-3.8979,-3.8979,-3.9007,-3.9101,-3.9082,-3.8776,-3.7923,-3.7785,-3.7452,-3.6519,-3.6454,-3.6509,-3.6509,-3.5598,-3.499,-3.4972,-3.4128,-3.3605,-3.3605,-3.3136,-3.2353,-3.112,-2.9868,-2.8572,-2.73,-2.6425,-2.599,-2.5897,-2.6585,-2.7289,-2.8027,-2.8616,-2.9221,-2.977,-2.9356,-2.8641,-2.7696,-2.6792,-2.5567,-2.435,-2.4664,-2.4778,-2.4845,-2.5378,-2.5908,-2.6374,0.0,0.0,0.0,0.0,0.0,0.0,0.0,0.0,0.0,0.0,0.0,0.0,0.0,0.0,0.0,0.0,0.0,0.0,-2.568,-2.5864,-2.6026,-2.6132,-2.6258,-2.6364,-2.6434,-2.6753,-2.647,-2.5479,-2.5397,-2.5665,-2.6219,-2.6419,-2.652,-2.6589,-2.652,-2.642,-2.6354,-2.7199,-2.7776,-2.8134,-2.7963,-2.8836,-3.0086,0.0,0.0,0.0,0.0,0.0,0.0,0.0,0.0,0.0,-3.0267,-3.0845,-3.1703,-3.0966,-3.1469,-3.2175,-3.1844,-3.2519,-3.3459,-3.4056,0.0,0.0,0.0,-3.6949,0.0,0.0,-3.9101,-3.9007,-3.9045,-3.9073,-3.9101,-3.9219,-3.8726,-3.8226,-3.7984,-3.7376,-3.6841,-3.6519,-3.6482,-3.6288,-3.5688,-3.5385,-3.4926,-3.4291,-3.3962,-3.3807,-3.3753,-3.2719,-3.1569,-3.0374,-2.8989,-2.7722,-2.6535,-2.6267,-2.6132,-2.6096,-2.6294,-2.6698,-2.7273,-2.797,-2.8459,-2.881,-2.8674,-2.8023,-2.6939,-2.5772,-2.497,-2.4549,-2.4835,-2.4892,-2.4845,-2.5378,-2.5714,-2.5822,0.0,0.0,0.0,0.0,0.0,0.0,0.0,0.0,0.0,0.0,0.0,-2.5333,0.0,0.0,0.0,0.0,0.0,0.0,0.0,-2.601,-2.6134,-2.6222,-2.6364,-2.6602,-2.6974,-2.7481,-2.7619,-2.7402,-2.696,-2.7009,-2.7481,-2.7248,-2.7147,-2.7199,-2.6894,-2.6808,-2.6909,-2.7759,-2.8391,-2.8836,-2.8852,-2.9644,-3.0729,0.0,0.0,0.0,0.0,0.0,0.0,0.0,0.0,0.0,-3.0836,-3.1366,-3.2133,-3.1898,-3.2502,-3.3266,-3.3364,-3.3741,-3.4329,-3.5155,-3.5385,-3.567,-3.6906,0.0,0.0,-3.8961,-3.8767,-3.8507,-3.8672,-3.8439,-3.8242,-3.832,-3.7935,-3.7455,-3.7087,-3.6589,-3.6085,-3.5602,-3.5512,-3.5328,-3.4874,-3.4739,-3.4465,-3.3931,-3.3868,-3.3842,-3.3788,-3.2692,-3.141,-3.0053,-2.8808,-2.7556,-2.622,-2.622,-2.622,-2.622,-2.6501,-2.6611,-2.6557,-2.7,-2.7411,-2.7772,-2.781,-2.7246,-2.6187,-2.5412,-2.4935,-2.4677,-2.4892,-2.4948,-2.4946,-2.5239,-2.5464,-2.5587,0.0,0.0,-2.4938,-2.5607,0.0,0.0,0.0,0.0,0.0,0.0,-2.5394,-2.5448,0.0,0.0,0.0,-2.5917,-2.6063,-2.6206,0.0,0.0,-2.6241,-2.6295,-2.633,-2.6786,-2.7719,-2.7979,-2.8761,-3.0146,-2.9188,-2.878,-2.8831,-2.8287,-2.7998,-2.7998,-2.7427,-2.7201,-2.7257,-2.8011,-2.8305,-2.8408,-2.9128,-2.9524,-2.9713,-3.0437,0.0,0.0,0.0,0.0,0.0,0.0,0.0,0.0,-3.1794,-3.1879,-3.1983,-3.3212,-3.4073,-3.4714,-3.5262,-3.5397,-3.5627,-3.6429,-3.6252,-3.6207,-3.729,-3.7893,-3.8323,-3.881,-3.8238,-3.7757,-3.8059,-3.743,-3.6907,-3.6883,-3.6881,-3.6563,-3.569,-3.5571,-3.5187,-3.4216,-3.4049,-3.4023,-3.4074,-3.3895,-3.3815,-3.3868,-3.3834,-3.378,-3.378,-3.2876,-3.165,-3.0127,-2.9138,-2.7926,-2.6366,-2.63,-2.63,-2.6383,-2.6998,-2.6842,-2.6052,-2.6072,-2.6339,-2.6772,-2.6943,-2.65,-2.5656,-2.5645,-2.5314,-2.4835,-2.4948,-2.5005,-2.5005,-2.5005,-2.5229,-2.5526,0.0,0.0,-2.5168,-2.5822,0.0,0.0,0.0,0.0,-2.5828,-2.5864,-2.5937,-2.599,-2.5917,-2.5954,0.0,-2.599,-2.6026,-2.6099,-2.6206,0.0,-2.6349,-2.6383,-2.6521,-2.7046,-2.7981,-2.8577,-2.9361,-3.0409,-2.8952,-2.8543,-2.9087,-2.7928,-2.7407,-2.739,-2.7203,-2.7461,-2.8063,-2.8301,-2.9059,-3.0126,-2.9816,-3.0456,-3.1463,-3.1029,-3.1272,0.0,0.0,0.0,0.0,0.0,0.0,0.0,-3.1768,-3.2639,-3.3532,-3.3347,-3.4292,-3.5343,-3.4833,-3.4804,0.0,-3.5805,-3.6369,-3.6816,-3.7073,-3.7243,-3.7649,-3.8674,-3.8503,-3.8134,-3.8103,-3.7523,-3.698,-3.6782,-3.6267,-3.5783,-3.5491,-3.4878,-3.4352,-3.4117,-3.4099,-3.4049,-3.3947,-3.386,-3.378,-3.3671,-3.3643,-3.3633,-3.3577,-3.269,-3.1673,-3.0575,-2.9626,-2.8659,-2.7629,-2.7033,-2.7033,-2.7591,-2.7202,-2.6809,-2.6471,-2.6754,-2.676,-2.6678,-2.6898,-2.6654,-2.6054,-2.5923,-2.5495,-2.4948,-2.5005,-2.5005,-2.5005,-2.5005,-2.503,-2.5138,0.0,0.0,0.0,0.0,0.0,0.0,0.0,0.0,-2.599,-2.6099,-2.617,-2.617,-2.601,-2.6082,0.0,0.0,-2.6206,-2.6347,-2.6435,-2.6572,-2.6657,-2.6674,-2.7199,-2.7674,-2.8101,-2.9194,-3.0016,-3.0463,-2.9676,-2.9452,-2.9757,-2.8801,-2.8159,-2.7814,-2.7895,-2.7912,-2.795,-2.8693,-2.9487,-3.0283,-3.0367,-3.1183,-3.2249,-3.1863,-3.1968,-3.2301,-3.2336,0.0,0.0,0.0,0.0,0.0,0.0,0.0,-3.4116,-3.422,-3.517,-3.6085,-3.5688,-3.57,0.0,-3.6306,0.0,-3.7048,-3.7048,-3.7264,-3.7524,-3.7717,-3.7419,-3.7124,-3.7019,-3.6344,-3.5759,-3.5621,-3.5243,-3.4939,-3.489,-3.4402,-3.3901,-3.3487,-3.3681,-3.3695,-3.3283,-3.3506,-3.3643,-3.3605,-3.3577,-3.352,-3.3491,-3.2575,-3.1571,-3.053,-2.9366,-2.8286,-2.7284,-2.666,-2.651,-2.6902,-2.683,-2.6714,-2.6557,-2.6373,-2.6389,-2.6566,-2.6635,-2.6489,-2.6199,-2.6046,-2.5584,-2.5005,-2.5005,-2.5005,-2.5005,-2.5005,-2.5005,-2.5005,0.0,0.0,0.0,0.0,0.0,0.0,0.0,0.0,0.0,-2.6189,-2.6277,-2.6277,-2.6154,-2.6295,-2.6382,0.0,0.0,0.0,-2.6742,-2.6876,-2.6959,-2.7007,-2.7672,-2.803,-2.7946,-2.9368,-3.0173,-3.0255,-3.0521,-3.0573,-3.0463,-2.9886,-2.9174,-2.8375,-2.8749,-2.8568,-2.7997,-2.9138,-2.9848,-3.026,-3.0886,-3.1652,-3.2489,-3.2539,-3.2489,-3.2388,-3.2439,-3.2284,-3.2073,-3.2073,0.0,0.0,0.0,0.0,-3.4254,-3.4973,-3.5908,-3.6667,-3.6591,-3.6659,-3.6851,-3.7034,-3.7108,-3.7108,-3.7147,-3.738,-3.7394,-3.65,-3.6146,-3.5954,-3.5733,-3.5007,-3.4386,-3.434,-3.4181,-3.4041,-3.4017,-3.3741,-3.3283,-3.2551,-3.2902,-3.2967,-3.2344,-3.2757,-3.3174,-3.333,-3.3291,-3.3234,-3.3205,-3.2426,-3.1422,-3.0238,-2.9015,-2.7879,-2.6858,-2.6188,-2.5907,-2.6037,-2.6409,-2.6574,-2.6422,-2.5699,-2.5699,-2.6278,-2.6246,-2.6156,-2.5992,-2.5997,-2.5578,-2.5005,-2.5005,-2.5005,-2.5005,-2.5005,-2.5005,-2.5005,0.0,0.0,0.0,0.0,0.0,0.0,0.0,0.0,0.0,0.0,-2.6623,-2.6775,-2.6624,-2.6725,-2.6826,-2.6826,-2.6859,-2.6893,-2.6942,0.0,0.0,-2.7007,-2.711,-2.7209,-2.7304,-2.8148,-2.8956,-2.9696,-3.0369,-3.0714,-3.0733,-3.0091,-2.9027,-2.7766,-2.8962,-2.9534,-2.9577,-2.9721,-3.0625,-3.1933,-3.1389,-3.1651,-3.2318,-3.2318,-3.2301,-3.2232,-3.2249,-3.2108,-3.1948,-3.1948,-3.1894,0.0,0.0,0.0,-3.4194,-3.4236,-3.5411,-3.6545,-3.5849,0.0,-3.6127,0.0,-3.7108,-3.7147,-3.7259,-3.6877,-3.6363,-3.5741,-3.6113,-3.6266,-3.5432,-3.4833,-3.4427,-3.4173,-3.3531,-3.3037,-3.2838,-3.2206,-3.1685,-3.1593,-3.1591,-3.1558,-3.1396,-3.1409,-3.1683,-3.2267,-3.2275,-3.2198,-3.2044,-3.1894,-3.1235,-2.9922,-2.9282,-2.8725,-2.8144,-2.6977,-2.6695,-2.7348,-2.6615,-2.6278,-2.631,-2.5488,-2.5249,-2.547,-2.5862,-2.5731,-2.5265,-2.5658,-2.5512,-2.5005,-2.5005,-2.5005,-2.5005,-2.5005,-2.5005,-2.5005,0.0,0.0,0.0,0.0,0.0,0.0,0.0,0.0,0.0,0.0,0.0,-2.6792,-2.6792,-2.6842,-2.6876,-2.6792,-2.6842,-2.6942,-2.7055,-2.7137,0.0,0.0,-2.7549,-2.7599,-2.7264,-2.8387,-2.9145,-2.954,-2.9851,-3.0283,-3.0803,-3.0872,-3.0178,-2.8928,-2.9512,-2.9859,-3.0021,-2.9954,-3.065,-3.1835,-3.15,-3.2396,-3.3844,-3.2976,-3.3104,-3.3653,-3.2807,-3.2318,-3.202,-3.2073,-3.1984,-3.1981,-3.2412,0.0,0.0,0.0,-3.5035,-3.6058,-3.6207,-3.6344,-3.6587,0.0,-3.7108,-3.7108,-3.7147,-3.6677,-3.5953,-3.512,-3.5073,-3.5049,-3.4592,-3.4314,-3.4124,-3.4148,-3.3802,-3.3462,-3.3353,-3.2551,-3.177,-3.1287,-3.118,-3.0946,-3.0457,-3.0767,-3.112,-3.1397,-3.1376,-3.1272,-3.1195,-3.1118,-3.0485,-2.9225,-2.8749,-2.8063,-2.7138,-2.6259,-2.5942,-2.6126,-2.5727,-2.5528,-2.5552,-2.5211,-2.5123,-2.531,-2.5536,-2.5257,-2.4678,-2.5217,-2.5038,-2.4544,-2.4883,-2.5005,-2.5005,-2.5005,-2.5005,-2.5005,0.0,0.0,0.0,0.0,0.0,0.0,0.0,0.0,0.0,0.0,0.0,-2.6842,-2.6942,0.0,0.0,0.0,-2.6942,-2.704,-2.7152,0.0,0.0,0.0,0.0,-2.7851,-2.7299,-2.8385,-2.9041,-2.923,-2.942,-2.9938,-3.0855,-3.151,-3.1376,-3.0567,-3.0677,-3.0693,-3.0633,-3.0662,-3.1217,-3.2107,-3.2335,-3.3552,-3.5098,-3.4365,-3.4584,-3.5119,-3.4036,-3.3124,-3.244,-3.244,-3.2351,-3.2295,-3.2674,-3.3055,0.0,0.0,0.0,-3.5227,0.0,0.0,-3.6535,-3.6981,-3.7069,-3.7069,-3.7069,-3.6388,-3.5504,-3.4646,-3.4023,-3.3605,-3.3595,-3.3689,-3.3815,-3.3954,-3.3788,-3.3652,-3.3548,-3.2692,-3.1846,-3.1192,-3.0849,-3.0414,-2.9817,-3.0089,-3.0341,-3.053,-3.0463,-3.0378,-3.0349,-3.0273,-2.9627,-2.8342,-2.7923,-2.7182,-2.6016,-2.5513,-2.5162,-2.5005,-2.5005,-2.5005,-2.5005,-2.5005,-2.5084,-2.5201,-2.5201,-2.4947,-2.4522,-2.4899,-2.4776,-2.4381,-2.483,-2.5005,-2.5005,-2.5005,-2.5005,-2.5005,0.0,0.0,0.0,0.0,0.0,0.0,0.0,0.0,0.0,0.0,0.0,-2.7085,-2.7103,-2.7201,-2.7299,-2.7267,-2.7299,-2.7299,-2.7282,0.0,0.0,0.0,0.0,0.0,-2.7299,-2.7368,-2.7747,-2.8454,-2.9161,-2.9989,-3.0907,-3.1566,-3.2039,-3.2368,-3.2843,-3.2684,-3.2092,-3.2364,-3.296,-3.3756,-3.4638,-3.5046,-3.5261,-3.6774,-3.6808,-3.6022,-3.597,-3.4834,-3.3315,-3.3188,-3.3134,-3.2976,-3.2133,-3.291,-3.4008,0.0,0.0,0.0,-3.6352,-3.5917,0.0,-3.6658,-3.7027,-3.7027,-3.7027,-3.5867,-3.4723,-3.4559,-3.3315,-3.2354,-3.2453,-3.3154,-3.3625,-3.3372,-3.3021,-3.272,-3.259,-3.1835,-3.1227,-3.1111,-3.0306,-2.9737,-2.9701,-2.8999,-2.8829,-2.9528,-2.9554,-2.9526,-2.9458,-2.9458,-2.88,-2.7334,-2.6888,-2.6386,-2.5819,-2.5346,-2.5068,-2.5005,-2.5005,-2.5005,-2.5005,-2.5005,-2.5005,-2.5005,-2.5005,-2.5004,-2.4984,-2.5008,-2.499,-2.4941,-2.4984,-2.5005,-2.5005,-2.5005,-2.5005,-2.5005,0.0,0.0,0.0,0.0,0.0,0.0,0.0,0.0,0.0,0.0,0.0,0.0,0.0,-2.7282,-2.7299,-2.7299,-2.7299,0.0,0.0,0.0,0.0,0.0,0.0,0.0,0.0,-2.7299,-2.7661,-2.8403,-2.8661,-2.9471,-3.0768,-3.1009,-3.155,-3.2249,-3.2056,-3.2474,-3.328,-3.2918,-3.3517,-3.4727,-3.5062,-3.6114,-3.738,-3.6435,-3.6809,-3.7609,-3.5917,-3.4888,-3.4249,-3.3992,-3.3641,-3.3242,-3.2835,-3.2782,-3.2979,-3.3206,-3.3295,-3.3574,-3.5014,0.0,0.0,-3.5871,-3.6094,-3.6177,-3.6684,-3.564,-3.4521,-3.4293,-3.3115,-3.2073,-3.1839,-3.2369,-3.2908,-3.3255,-3.3125,-3.3019,-3.3168,-3.2447,-3.1874,-3.1753,-3.0992,-3.0233,-2.9619,-2.9231,-2.8925,-2.861,-2.8564,-2.8507,-2.8375,-2.8536,-2.8088,-2.6922,-2.6723,-2.6162,-2.5169,-2.4989,-2.4902,-2.4862,-2.4966,-2.5005,-2.5005,-2.5005,-2.5005,-2.5005,-2.5005,-2.477,-2.4432,-2.4446,-2.4187,-2.3878,-2.4258,-2.4435,-2.4489,-2.4869,-2.5005,-2.5005,0.0,0.0,0.0,-2.9365,0.0,-2.7841,-2.6928,-2.7182,-2.7369,-2.7141,0.0,0.0,0.0,0.0,-2.7299,-2.7299,-2.7299,-2.7299,-2.7299,-2.7299,0.0,0.0,0.0,0.0,0.0,-2.7299,-2.754,-2.8023,-2.8523,-2.9195,-2.9989,-3.075,-3.1358,-3.176,-3.1703,-3.247,-3.3773,-3.3443,-3.4011,-3.5189,-3.6061,-3.722,-3.8308,-3.7505,-3.7862,-3.8576,-3.6751,-3.5701,-3.515,-3.4888,-3.4425,-3.3938,-3.3378,-3.2735,-3.2371,-3.314,-3.3139,-3.3103,-3.4187,-3.4237,-3.4248,-3.5314,-3.5327,-3.5318,-3.6359,-3.5427,-3.4293,-3.4076,-3.3135,-3.213,-3.1534,-3.1522,-3.1847,-3.2627,-3.2809,-3.297,-3.3291,-3.2673,-3.226,-3.2469,-3.1583,-3.0689,-2.9966,-2.9547,-2.8952,-2.8124,-2.7968,-2.7864,-2.776,-2.7818,-2.7396,-2.635,-2.616,-2.5619,-2.4726,-2.4782,-2.4782,-2.4726,-2.4806,-2.4886,-2.4926,-2.4926,-2.4966,-2.5005,-2.5005,-2.4751,-2.4374,-2.4179,-2.3851,-2.354,-2.3719,-2.3947,-2.4177,-2.4557,-2.4842,-2.5005,-3.1291,-3.0304,-2.9313,-2.9349,-2.7947,-2.6894,-2.7043,-2.7093,-2.7175,-2.7319,0.0,0.0,0.0,0.0,0.0,-2.7351,-2.7351,-2.7351,-2.7333,-2.7333,0.0,0.0,0.0,0.0,-2.7299,-2.7299,-2.7299,-2.7299,-2.8765,-2.9143,-2.8568,-3.0785,-3.1585,-3.1165,-3.207,-3.2877,-3.36,-3.3946,-3.446,-3.5261,-3.7735,-3.829,-3.7862,-4.0128,-4.0134,-3.8866,-3.8546,-3.7418,-3.6015,-3.5805,-3.5536,-3.5087,-3.3636,-3.2754,-3.2371,-3.3123,-3.2808,-3.2511,0.0,0.0,0.0,-3.4983,-3.4735,-3.4523,-3.5928,-3.5111,-3.4042,-3.3905,-3.3265,-3.2415,-3.1453,-3.0683,-3.0503,-3.1502,-3.2057,-3.2466,-3.2731,-3.2281,-3.223,-3.3152,-3.2012,-3.0991,-3.0713,-2.9751,-2.8824,-2.8046,-2.7795,-2.7689,-2.7672,-2.7334,-2.6673,-2.5619,-2.5091,-2.4726,-2.4589,-2.4726,-2.4726,-2.4589,-2.4589,-2.4686,-2.4782,-2.4782,-2.4862,-2.5005,-2.5005,-2.4966,-2.4934,-2.4342,-2.4053,-2.4019,-2.3405,-2.3513,-2.4069,-2.4096,-2.4462,-2.4951,-3.0404,-3.0355,-3.0101,-3.0156,-3.0167,-2.9841,-2.8956,-2.9127,-2.9281,0.0,0.0,0.0,-2.8144,-2.8092,-2.8316,-2.8834,-2.8885,-2.8661,-2.8127,-2.8092,-2.7851,-2.7316,-2.7299,-2.7299,-2.7299,-2.7299,-2.7299,-2.7299,-2.823,-2.8868,-2.923,-2.9868,-3.0751,-3.183,-3.1635,-3.2033,-3.2926,-3.3748,-3.4831,-3.6079,-3.6898,-3.7721,-3.8469,-3.8597,-3.8722,-3.8719,-3.781,-3.7256,-3.6864,-3.6434,-3.6011,-3.5416,-3.3895,-3.2914,-3.2354,-3.2494,-3.2265,-3.2106,-3.2613,0.0,0.0,0.0,0.0,0.0,-3.4473,-3.4034,-3.3287,-3.2975,-3.1953,-3.0976,-3.0378,-3.0209,-3.0142,-3.0256,-3.0685,-3.1359,-3.2244,-3.2074,-3.1898,-3.2127,-3.1706,-3.1094,-3.0352,-2.99,-2.9144,-2.7827,-2.7573,-2.7233,-2.6657,-2.6298,-2.5964,-2.568,-2.5176,-2.4846,-2.4589,-2.4726,-2.4782,-2.4726,-2.4726,-2.4782,-2.4782,-2.4686,-2.4726,-2.4862,-2.4862,-2.4686,-2.4302,-2.3672,-2.3437,-2.3406,-2.279,-2.2658,-2.2861,-2.3323,-2.3527,-2.3744,-3.008,-3.0392,-3.0429,-3.0375,-3.0255,-2.9916,-2.9111,-2.93,-2.9385,0.0,0.0,0.0,-2.892,-2.8868,-2.9023,-2.9472,-2.9506,-2.9196,-2.8454,-2.8403,-2.8075,-2.7333,-2.7299,-2.7437,-2.7747,-2.7747,-2.7902,-2.8213,-2.8972,-2.9403,-2.9523,-3.0162,-3.0854,-3.1497,-3.1637,-3.1982,-3.2523,-3.3286,-3.4115,-3.5025,-3.6094,-3.6648,-3.6952,-3.7453,-3.7542,-3.7219,-3.6447,-3.6213,-3.6247,-3.6234,-3.6042,-3.5601,-3.4335,-3.3651,-3.3195,-3.2371,-3.2263,-3.2327,-3.2052,-3.1558,-3.1448,-3.2683,0.0,0.0,-3.3313,-3.3007,-3.2331,-3.1684,-3.1172,-3.0694,-3.0087,-2.9762,-2.9707,-3.018,-2.9914,-3.0182,-3.1633,-3.1439,-3.1287,-3.1642,-3.1363,-3.0845,-3.0207,-3.0027,-2.9424,-2.8118,-2.7604,-2.6922,-2.5977,-2.5726,-2.5556,-2.5395,-2.5114,-2.4886,-2.4686,-2.4782,-2.4782,-2.4726,-2.4701,-2.4701,-2.4726,-2.4605,-2.4605,-2.4726,-2.4782,-2.4508,-2.3979,-2.345,-2.3039,-2.2754,-2.2166,-2.2088,-2.2346,-2.2712,-2.2958,-2.3229,0.0,-3.0274,-3.0413,-3.0162,-2.9281,-2.8594,-2.8594,-2.8628,-2.8678,0.0,-2.9196,-2.9506,-2.9506,-2.9506,-2.9541,-2.9627,-2.9713,-2.9437,-2.8696,-2.8575,-2.8196,-2.7437,-2.7333,-2.7609,-2.8265,-2.8368,-2.873,-2.9386,-3.0179,-3.0248,-2.9661,-3.1041,-3.1369,-3.087,-3.183,-3.2283,-3.2318,-3.2616,-3.2759,-3.2938,-3.5221,-3.5415,-3.4533,-3.6594,-3.6506,-3.5257,-3.4995,-3.4889,-3.4922,-3.5603,-3.5759,-3.5545,-3.4856,-3.4666,-3.437,-3.2806,-3.2748,-3.3035,-3.2268,-3.1416,-3.1085,-3.2538,-3.1852,0.0,-3.2294,-3.2032,-3.1291,-3.0282,-3.0585,-3.0819,-3.0091,-2.9303,-2.9211,-3.0521,-2.961,-2.9309,-3.0992,-3.0634,-3.0535,-3.1418,-3.0914,-3.0439,-3.0197,-3.0065,-2.9592,-2.867,-2.7719,-2.6627,-2.5513,-2.5427,-2.5307,-2.5005,-2.5005,-2.4926,-2.4822,-2.4822,-2.4766,-2.463,-2.4564,-2.4564,-2.4605,-2.4523,-2.4492,-2.448,-2.4695,-2.4364,-2.3673,-2.3318,-2.286,-2.2235,-2.165,-2.1749,-2.221,-2.221,-2.2563,-2.2999,-2.8406,-2.9554,-3.0295,-2.9659,-2.9989,-3.03,-3.03,-3.0266,-3.0455,-3.1058,-3.0179,-2.9506,-2.9506,-2.9506,-2.9765,-3.0403,-3.1007,-3.1041,-3.03,-2.9644,-2.8954,-2.8213,-2.7609,-2.7368,-2.7506,-2.8092,-2.8472,-2.861,-2.9368,-2.9989,-3.0472,-3.0765,-3.1145,-3.1593,-3.1967,-3.2197,-3.2283,-3.1983,-3.1845,-3.2005,-3.3877,-3.4837,-3.5214,-3.5645,-3.5576,-3.5221,-3.5083,-3.5048,-3.5155,-3.577,-3.5483,-3.4934,-3.5387,-3.5087,-3.4451,-3.4059,-3.3942,-3.3874,-3.368,-3.2999,-3.2462,-3.2796,-3.2231,0.0,-3.1035,-3.0846,-3.0448,-2.9389,-2.8897,-2.8744,-2.8999,-2.8837,-2.8745,-2.9101,-2.9653,-3.0195,-3.0723,-3.0485,-3.0258,-3.0452,-3.0215,-3.0011,-2.9976,-2.9848,-2.9426,-2.8585,-2.7121,-2.5919,-2.5139,-2.5107,-2.5084,-2.5005,-2.5005,-2.4966,-2.4966,-2.4989,-2.4966,-2.4782,-2.4742,-2.4661,-2.4539,-2.44,-2.4107,-2.3747,-2.4356,-2.3799,-2.2422,-2.2951,-2.286,-2.2235,-2.165,-2.1491,-2.1599,-2.1599,-2.1667,-2.1844,-2.8987,-2.9933,-3.047,-3.0003,-3.0127,-3.0231,-3.0145,-3.0127,-3.0386,-3.1145,-3.0575,-3.0093,-3.0093,-3.0093,-3.0403,-3.1179,-3.1576,-3.1489,-3.0748,-3.0317,-2.9748,-2.8989,-2.8592,-2.8403,-2.8403,-2.9144,-2.9541,-2.9541,-3.0282,-3.0851,-3.1248,-3.1248,-3.1681,-3.2464,-3.2247,-3.2424,-3.2827,-3.2376,-3.2218,-3.2335,-3.3216,-3.3505,-3.3532,-3.4298,-3.43,-3.391,-3.3928,-3.416,-3.4535,-3.5243,-3.5344,-3.5285,-3.5688,-3.5735,-3.5392,-3.4106,-3.4159,-3.4473,-3.3692,-3.3132,-3.2823,-3.2865,-3.2021,0.0,0.0,-2.9589,-2.8971,-2.7995,-2.7842,-2.7978,-2.826,-2.8182,-2.8226,-2.8611,-2.9025,-2.9369,-2.953,-2.9914,-3.0189,-3.0189,-3.0076,-2.9946,-2.9902,-2.983,-2.9452,-2.857,-2.7275,-2.6246,-2.5535,-2.5195,-2.5005,-2.5005,-2.5005,-2.5005,-2.5005,-2.4966,-2.4966,-2.4966,-2.4742,-2.4661,-2.462,-2.44,-2.4174,-2.3921,-2.4368,-2.3755,-2.2454,-2.2907,-2.2634,-2.1827,-2.1506,-2.1423,-2.1423,-2.1423,-2.1423,-2.1464,-2.9619,-3.0415,-3.0764,-3.0347,-2.9972,-2.9659,-2.9506,-2.9386,-2.9575,-3.0368,-3.0593,-3.0627,-3.0489,-3.0713,-3.1145,-3.1748,-3.2059,-3.1921,-3.1162,-3.0989,-3.061,-2.9972,-2.9661,-2.9575,-2.973,-3.0368,-3.0696,-3.0696,-3.1438,-3.18,-3.18,-3.1819,-3.2271,-3.3092,-3.2577,-3.2825,-3.3579,-3.3122,-3.3042,-3.3197,-3.2977,-3.2464,-3.1991,-3.3184,-3.3222,-3.2672,-3.2805,-3.3148,-3.3703,-3.4447,-3.5117,-3.5618,-3.5776,-3.6173,-3.619,-3.4328,-3.4471,-3.4956,-3.3808,-3.3269,-3.3012,-3.2917,-3.1674,-3.0261,0.0,0.0,0.0,-2.6894,-2.7182,-2.7603,-2.7649,-2.7576,-2.7684,-2.8101,-2.8063,-2.7954,-2.7869,-2.8804,-2.9642,-2.9917,-2.9778,-2.9696,-2.9814,-2.9657,-2.9247,-2.8554,-2.7624,-2.674,-2.6015,-2.5471,-2.5108,-2.4982,-2.4966,-2.5005,-2.5005,-2.4902,-2.4926,-2.5052,-2.4545,-2.4418,-2.4563,-2.4101,-2.384,-2.3748,-2.4051,-2.3525,-2.2541,-2.2759,-2.2267,-2.1423,-2.1423,-2.1423,-2.1423,-2.1423,-2.1423,-2.1423,-2.8288,-3.0035,-3.1067,-2.9781,-2.9609,-2.9659,-2.9506,-2.8954,-2.8799,-2.9541,-3.0248,-3.042,-2.9713,-3.0851,-3.1714,-3.1783,-3.3041,-3.349,-3.2697,-3.2041,-3.1627,-3.1541,-3.0231,-2.9834,-3.0541,-3.0644,-3.0696,-3.0696,-3.1438,-3.18,-3.18,-3.1839,-3.2327,-3.309,-3.304,-3.3517,-3.4312,-3.3669,-3.3793,-3.4304,-3.3239,-3.293,-3.3093,-3.3019,-3.2987,-3.2948,-3.2916,-3.2891,-3.3039,-3.3752,-3.4429,-3.5063,-3.5731,-3.5822,-3.5727,-3.6162,-3.5758,-3.5301,-3.5783,-3.4956,-3.3783,-3.2999,-3.1637,-3.0071,-2.8509,0.0,-2.776,-2.6894,0.0,-2.6892,-2.7135,0.0,0.0,-2.6391,-2.6828,-2.691,-2.602,-2.6533,-2.7533,-2.889,-2.8716,-2.8754,-2.9454,-2.8809,-2.8367,-2.8478,-2.7522,-2.6639,-2.5947,-2.5904,-2.5573,-2.4854,-2.4926,-2.5005,-2.5005,-2.4966,-2.5005,-2.5005,-2.4139,-2.3725,-2.3709,-2.291,-2.2194,-2.1686,-2.261,-2.2289,-2.1209,-2.2055,-2.2002,-2.1423,-2.1423,-2.1423,-2.1423,-2.1423,-2.1423,-2.1423,-2.9349,-3.0365,-3.0902,-3.0317,-3.0283,-3.0127,-2.9575,-2.9627,-2.9989,-3.0731,-3.0748,-3.0886,-3.142,-3.1662,-3.2162,-3.3059,-3.3714,-3.3955,-3.3611,-3.33,-3.3128,-3.3128,-3.2076,-3.1438,-3.1334,-3.1334,-3.1127,-3.0696,-3.1493,-3.1856,-3.18,-3.1875,-3.2607,-3.3827,-3.285,-3.3428,-3.5116,-3.3984,-3.3705,-3.397,-3.3545,-3.3247,-3.3042,-3.2802,-3.2787,-3.2902,-3.2884,-3.282,-3.2814,-3.356,-3.3987,-3.434,-3.546,-3.5714,-3.5593,-3.5879,-3.589,-3.5801,-3.568,-3.4829,-3.3773,-3.2977,-3.1031,-2.9056,-2.8184,-2.7417,-2.6751,-2.6364,0.0,0.0,0.0,0.0,0.0,0.0,-2.5806,-2.59,-2.5139,-2.5385,-2.6205,-2.7664,-2.746,-2.7523,-2.8442,-2.8313,-2.8462,-2.9054,-2.7815,-2.6968,-2.6767,-2.6379,-2.5798,-2.5021,-2.5084,-2.5123,-2.5068,-2.4594,-2.4426,-2.4509,-2.3519,-2.3077,-2.3195,-2.2689,-2.217,-2.172,-2.2169,-2.1673,-2.067,-2.1465,-2.1393,-2.0853,-2.1239,-2.1423,-2.1423,-2.1423,-2.1423,-2.1423,-3.0274,-3.0726,-3.0953,-3.1079,-3.0906,-3.0473,-2.9627,-3.0351,-3.1179,-3.1731,-3.1507,-3.1783,-3.3093,-3.2921,-3.3179,-3.4283,-3.4783,-3.4921,-3.4714,-3.4697,-3.4697,-3.4697,-3.3788,-3.3011,-3.2438,-3.2214,-3.1694,-3.0953,-3.1543,-3.1802,-3.18,-3.1929,-3.2732,-3.4059,-3.3063,-3.3781,-3.5622,-3.4544,-3.4249,-3.4426,-3.3953,-3.3399,-3.282,-3.2722,-3.269,-3.2737,-3.257,-3.2559,-3.2608,-3.28,-3.3194,-3.374,-3.4489,-3.4815,-3.4896,-3.4792,-3.4898,-3.4949,-3.4622,-3.3928,-3.3019,-3.211,-3.0128,-2.8177,-2.7423,-2.6485,-2.5762,-2.5762,-2.5762,0.0,0.0,0.0,-2.4744,-2.4461,0.0,-2.4798,-2.4193,-2.4275,-2.4942,-2.6352,-2.6336,-2.6502,-2.7177,-2.725,-2.7666,-2.8667,-2.7655,-2.7099,-2.7347,-2.6908,-2.623,-2.5409,-2.5352,-2.524,-2.5146,-2.4309,-2.402,-2.4159,-2.2928,-2.2446,-2.2596,-2.2098,-2.1747,-2.1455,-2.1392,-2.0955,-2.0217,-2.0709,-2.0716,-2.0535,-2.0969,-2.1226,-2.1423,-2.1423,-2.1423,-2.1361,-3.0219,-3.097,-3.1559,-3.1728,-3.1162,-3.042,-2.9627,-3.0782,-3.1765,-3.18,-3.2403,-3.3145,-3.3955,-3.468,-3.5111,-3.5145,-3.6508,-3.7042,-3.6284,-3.6232,-3.6232,-3.6232,-3.4881,-3.4125,-3.4007,-3.3188,-3.2376,-3.1582,-3.1617,-3.1654,-3.18,-3.2073,-3.2651,-3.3455,-3.4119,-3.4888,-3.5692,-3.564,-3.6042,-3.6514,-3.4533,-3.3281,-3.2639,-3.274,-3.274,-3.2533,-3.187,-3.2019,-3.2311,-3.0875,-3.1751,-3.3281,-3.2546,-3.2718,-3.3196,-3.3159,-3.2545,-3.1998,-3.2681,-3.2248,-3.127,-2.9928,-2.8954,-2.7767,-2.575,-2.5275,-2.5221,-2.5221,-2.5221,-2.5012,-2.4358,-2.4496,-2.4364,-2.3334,-2.3422,0.0,0.0,-2.2886,-2.3435,-2.4965,-2.5485,-2.5741,-2.5849,-2.5092,-2.5242,-2.6788,-2.6581,-2.6655,-2.7273,-2.7324,-2.6997,-2.6181,-2.5607,-2.5294,-2.5294,-2.4385,-2.402,-2.4159,-2.244,-2.1741,-2.1887,-2.0639,-2.0066,-2.0061,-1.9875,-1.9741,-1.9703,-1.9692,-2.0075,-2.0666,-2.0508,-2.0826,-2.1423,-2.1423,-2.1423,-2.1326,-3.0785,-3.1274,-3.1538,-3.1763,-3.1593,-3.1334,-3.1058,-3.1886,-3.2524,-3.2524,-3.3214,-3.3783,-3.4059,-3.4749,-3.5197,-3.5197,-3.6111,-3.6818,-3.7077,-3.6594,-3.6749,-3.7767,-3.5363,-3.4444,-3.5476,-3.3636,-3.2513,-3.2256,-3.2316,-3.2076,-3.1631,-3.1837,-3.2381,-3.3202,-3.3462,-3.4394,-3.5752,-3.5731,-3.5871,-3.598,-3.4249,-3.3143,-3.2473,-3.2574,-3.259,-3.25,-3.1835,-3.1714,-3.1656,-3.0614,-3.0709,-3.1282,-3.1272,-3.1446,-3.1706,-3.2135,-3.197,-3.174,-3.1998,-3.1028,-2.9729,-2.8953,-2.7482,-2.6053,-2.5355,-2.495,-2.4798,-2.5243,-2.5001,-2.4611,-2.4442,-2.4068,-2.3638,-2.3171,-2.3112,-2.3068,0.0,-2.2766,-2.2869,-2.3361,-2.4326,-2.4857,-2.4557,-2.4551,-2.5198,-2.6695,-2.6274,-2.6244,-2.6914,-2.6596,-2.62,-2.5754,-2.5186,-2.4863,-2.4855,-2.3629,-2.3048,-2.2995,-2.1203,-2.0487,-2.0771,-2.0102,-1.9654,-1.9413,-1.9319,-1.9073,-1.8735,-1.9142,-1.962,-2.012,-2.047,-2.0988,-2.152,-2.1423,-2.1423,-2.1215,-3.1176,-3.1589,-3.1854,-3.2142,-3.2421,-3.2507,-3.2231,-3.2593,-3.2904,-3.2904,-3.3352,-3.3766,-3.4059,-3.4749,-3.5197,-3.5197,-3.6128,-3.6939,-3.7456,-3.7249,-3.756,-3.8543,-3.6629,-3.5761,-3.6208,-3.4558,-3.3196,-3.2217,-3.2457,-3.2119,-3.1162,-3.1662,-3.2189,-3.2691,-3.3303,-3.4059,-3.4888,-3.5392,-3.5518,-3.5189,-3.4002,-3.3073,-3.2371,-3.2174,-3.21,-3.206,-3.1363,-3.1066,-3.0811,-2.9673,-2.9628,-3.0009,-2.9953,-3.0162,-3.0439,-3.0524,-3.0486,-3.036,-3.0142,-2.9245,-2.8196,-2.7295,-2.605,-2.4965,-2.4728,-2.442,-2.4372,-2.4976,-2.4902,-2.462,-2.4164,-2.3821,-2.3466,-2.3067,-2.2947,-2.2888,0.0,-2.2661,-2.2555,-2.2463,-2.3207,-2.3617,-2.331,-2.3577,-2.4288,-2.5629,-2.5512,-2.5804,-2.6713,-2.6161,-2.5743,-2.5669,-2.4843,-2.4405,-2.4338,-2.2979,-2.2262,-2.2148,-2.0488,-1.9818,-2.0015,-1.9639,-1.9362,-1.9101,-1.8965,-1.8659,-1.8349,-1.8698,-1.9266,-1.9952,-2.0247,-2.089,-2.1664,-2.1471,-2.1118,-2.0547,-3.13,-3.2026,-3.2536,-3.2947,-3.3645,-3.3869,-3.3076,-3.299,-3.299,-3.2921,-3.2938,-3.3214,-3.3904,-3.468,-3.5145,-3.5145,-3.6508,-3.7404,-3.7491,-3.8112,-3.8508,-3.8594,-3.8463,-3.7713,-3.62,-3.5793,-3.4262,-3.1581,-3.2202,-3.1832,-3.0602,-3.16,-3.2001,-3.1963,-3.3659,-3.3955,-3.3266,-3.4766,-3.4961,-3.4213,-3.3649,-3.295,-3.2195,-3.1507,-3.1223,-3.1114,-3.0455,-3.0127,-2.9706,-2.821,-2.8547,-2.9434,-2.8608,-2.8834,-2.9214,-2.8406,-2.8083,-2.7828,-2.7197,-2.6995,-2.6547,-2.4966,-2.461,-2.4465,-2.3849,-2.3694,-2.3874,-2.4403,-2.4924,-2.486,-2.3585,-2.373,-2.3812,-2.3033,-2.2917,-2.2843,-2.2661,-2.2615,-2.2509,-2.2231,-2.2212,-2.2212,-2.2184,-2.2212,-2.2684,-2.3715,-2.4412,-2.5342,-2.6567,-2.6001,-2.5664,-2.5818,-2.4532,-2.3879,-2.3879,-2.2481,-2.1762,-2.1747,-2.034,-1.9639,-1.9639,-1.925,-1.9064,-1.9064,-1.8673,-1.8517,-1.8478,-1.8282,-1.8975,-2.013,-1.9869,-2.0553,-2.167,-2.1458,-2.0497,-1.9267,-3.2009,-3.3379,-3.449,-3.4611,-3.4766,-3.4645,-3.3904,-3.4249,-3.4197,-3.3059,-3.3421,-3.3421,-3.249,-3.3576,-3.4369,-3.4369,-3.5249,-3.6266,-3.7404,-3.7111,-3.7387,-3.8543,-3.6844,-3.5908,-3.6062,-3.5239,-3.4176,-3.293,-3.3158,-3.2808,-3.1817,-3.1598,-3.1542,-3.1648,-3.2651,-3.3386,-3.3938,-3.432,-3.3675,-3.2483,-3.2438,-3.1673,-3.055,-3.0504,-3.011,-2.9563,-2.94,-2.9299,-2.9079,-2.7932,-2.7788,-2.799,-2.769,-2.7646,-2.7564,-2.6794,-2.6281,-2.5799,-2.508,-2.466,-2.4229,-2.3423,-2.3189,-2.3092,-2.2574,-2.247,-2.2586,-2.3083,-2.3238,-2.3406,-2.3697,-2.3535,-2.3387,-2.3493,-2.3161,-2.2857,-2.2781,-2.2675,-2.2555,-2.237,-2.2558,-2.256,-2.2226,-2.2524,-2.3027,-2.3742,-2.4305,-2.4945,-2.5742,-2.4855,-2.4496,-2.5018,-2.3849,-2.3304,-2.3391,-2.1919,-2.1285,-2.1395,-1.9633,-1.8988,-1.9332,-1.895,-1.875,-1.8673,-1.8556,-1.8517,-1.8517,-1.8439,-1.8887,-1.9586,-1.9419,-1.9789,-2.0407,-2.0699,-1.9863,-1.8555,-3.2697,-3.369,-3.4765,-3.5559,-3.5145,-3.4576,-3.4145,-3.4438,-3.4266,-3.3059,-3.3283,-3.3287,-3.2461,-3.3097,-3.3615,-3.3654,-3.4306,-3.5076,-3.5939,-3.5887,-3.6197,-3.7034,-3.6268,-3.5736,-3.5454,-3.5396,-3.4445,-3.2466,-3.3168,-3.2778,-3.1387,-3.138,-3.1406,-3.144,-3.229,-3.2973,-3.3485,-3.3158,-3.2331,-3.1175,-3.101,-3.0473,0.0,-2.954,-2.9169,-2.8732,-2.8351,-2.8259,-2.8237,-2.7696,-2.7465,-2.739,-2.7264,-2.6928,-2.6487,-2.5822,-2.5192,-2.4547,-2.3718,-2.3331,-2.2987,-2.2186,-2.2195,-2.2315,-2.1979,-2.2143,-2.2355,-2.2524,-2.2708,-2.2802,-2.2732,-2.2892,-2.3109,-2.332,-2.3088,-2.2857,-2.2795,-2.2675,-2.2555,-2.2417,-2.2712,-2.2693,-2.224,-2.2616,-2.3145,-2.3729,-2.4014,-2.4502,-2.5453,-2.4426,-2.3988,-2.4362,-2.3097,-2.2424,-2.2513,-2.1108,-2.0527,-2.0677,-1.9337,-1.8812,-1.8959,-1.8851,-1.8673,-1.8411,-1.8556,-1.8556,-1.8517,-1.8517,-1.8843,-1.9404,-1.9623,-1.9632,-1.9558,-1.9762,-1.923,-1.8352,-3.3532,-3.393,-3.4665,-3.6035,-3.5145,-3.4197,-3.4093,-3.4007,-3.368,-3.299,-3.2817,-3.2803,-3.2934,-3.2803,-3.2838,-3.3072,-3.3619,-3.3973,-3.4076,-3.4697,-3.5018,-3.4971,-3.6019,-3.5966,-3.4423,-3.556,-3.4682,-3.1596,-3.272,-3.2364,-3.0628,-3.1181,-3.1385,-3.1291,-3.2188,-3.2496,-3.2383,-3.1905,-3.1079,-3.0167,-2.9575,-2.9265,-2.9126,-2.8553,-2.8375,-2.8256,-2.7486,-2.7324,-2.7465,-2.7465,-2.7359,-2.7218,-2.707,-2.6544,-2.5885,-2.5163,-2.4481,-2.3704,-2.2722,-2.2425,-2.2155,-2.1218,-2.1393,-2.1721,-2.159,-2.1979,-2.2293,-2.2061,-2.2422,-2.2439,-2.1372,-2.2047,-2.2801,-2.2873,-2.283,-2.2741,-2.268,-2.2632,-2.2555,-2.237,-2.2712,0.0,-2.224,-2.27,-2.3186,-2.3668,-2.3709,-2.4238,-2.5315,-2.4385,-2.3914,-2.4002,-2.2512,-2.1712,-2.1626,-2.0399,-1.9867,-1.9929,-1.9296,-1.8851,-1.8669,-1.8903,-1.8736,-1.8358,-1.8581,-1.8634,-1.8517,-1.8517,-1.8787,-1.9349,-1.988,-1.9585,-1.8882,-1.8873,-1.8655,-1.8321,-3.5334,-3.6208,-3.6706,-3.637,-3.5576,-3.4783,-3.418,-3.3542,-3.3059,-3.2921,-3.2369,-3.199,-3.2044,-3.199,-3.2231,-3.289,-3.3024,-3.3386,-3.4042,-3.4214,-3.4243,-3.4106,-3.4206,-3.385,-3.2917,-3.3584,-3.3677,-3.3017,-3.2778,-3.2686,-3.2706,-3.1715,-3.119,-3.1055,-3.123,-3.1376,-3.1455,-3.1453,-3.0619,-2.9183,-2.8578,-2.8013,-2.7545,-2.7584,-2.7594,-2.7546,-2.7296,-2.7213,-2.7244,-2.7198,-2.712,-2.7007,-2.6641,-2.6319,-2.5778,-2.4159,-2.3374,-2.269,-2.1442,-2.0939,-2.0682,-2.0505,-2.0426,-2.0396,-2.0339,-2.0409,-2.0376,-2.0132,-2.0561,-2.095,-2.1029,-2.1556,-2.2147,-2.2665,-2.2409,-2.2076,-2.1842,-2.2286,-2.2509,-2.2278,-2.2616,-2.2693,-2.224,-2.2978,-2.3377,-2.3075,-2.3875,-2.4472,-2.4827,-2.4277,-2.4053,-2.4176,-2.3018,-2.22,-2.1772,-2.0855,-2.0269,-2.0049,-1.9229,-1.8889,-1.8941,-1.8993,-1.8865,-1.862,-1.8673,-1.8634,-1.8517,-1.8517,-1.8574,-1.8663,-1.8848,-1.8687,-1.8447,-1.8474,-1.8201,-1.781,-3.6331,-3.6293,-3.6105,-3.6233,-3.5001,-3.3886,-3.3481,-3.2796,-3.2472,-3.2852,-3.2593,-3.2406,-3.2461,-3.2061,-3.1975,-3.2357,-3.228,-3.2397,-3.2775,-3.2788,-3.2694,-3.2559,-3.2912,-3.2695,-3.1851,-3.2872,-3.322,-3.2831,-3.2517,-3.2534,-3.2748,-3.1715,-3.1151,-3.1145,-3.2002,-3.1918,-3.119,-3.1325,-3.0459,-2.8909,-2.781,-2.7181,-2.6891,-2.6989,-2.7038,-2.7038,-2.7038,-2.7006,-2.6923,-2.6691,-2.6488,-2.621,-2.5911,-2.531,-2.4484,-2.3366,-2.2417,-2.1547,-2.0733,-2.0441,-2.027,-2.022,-2.0375,-2.0451,-1.9959,-2.0068,-2.0109,-1.9597,-1.9738,-2.0038,-2.0487,-2.1005,-2.1484,-2.1744,-2.2193,-2.2323,-2.1859,-2.2318,-2.2629,-2.2417,-2.2794,-2.2887,-2.224,-2.2881,-2.3264,-2.3091,-2.3803,-2.4459,-2.4938,-2.4789,-2.4595,-2.4326,-2.2991,-2.2004,-2.1397,-2.0306,-1.9728,-1.9657,-1.9261,-1.904,-1.8993,-1.913,-1.8979,-1.8595,-1.8788,-1.8711,-1.8478,-1.8411,-1.8293,-1.807,-1.8001,-1.7945,-1.787,-1.7864,-1.7838,-1.7799,-3.644,-3.5735,-3.5121,-3.5608,-3.4112,-3.2844,-3.2784,-3.2207,-3.197,-3.2593,-3.2662,-3.2717,-3.281,-3.2236,-3.1819,-3.1821,-3.1691,-3.1579,-3.1596,-3.1538,-3.1462,-3.1295,-3.1907,-3.1936,-3.1207,-3.2341,-3.2797,-3.251,-3.2357,-3.2357,-3.251,-3.1765,-3.1343,-3.1241,-3.2507,-3.2388,-3.119,-3.1155,-3.0323,-2.8892,-2.7486,-2.6843,-2.6691,-2.6691,-2.6657,-2.6624,-2.664,-2.6487,-2.6212,-2.5694,-2.5501,-2.5375,-2.4879,-2.4019,-2.3071,-2.2483,-2.1592,-2.0715,-2.0335,-2.02,-2.015,-2.008,-2.0349,-2.0496,-1.9773,-1.9968,-2.0078,-1.9516,-1.9376,-1.9574,-2.0196,-2.0491,-2.0767,-2.1092,-2.1903,-2.2366,-2.2004,-2.2422,-2.2735,-2.2615,-2.2918,-2.2937,-2.2334,-2.2681,-2.3082,-2.3387,-2.3646,-2.414,-2.4816,-2.4946,-2.4819,-2.429,-2.2913,-2.1815,-2.1003,-2.0001,-1.9415,-1.9265,-1.9265,-1.9153,-1.9031,-1.9228,-1.9078,-1.8634,-1.8865,-1.8788,-1.8478,-1.8279,-1.7988,-1.7692,-1.7523,-1.7474,-1.7533,-1.7571,-1.7729,-1.7909,-3.5154,-3.5454,-3.548,-3.4257,-3.3265,-3.2667,-3.2784,-3.2132,-3.1688,-3.1886,-3.1903,-3.1903,-3.1903,-3.1834,-3.1746,-3.1654,-3.1617,-3.1559,-3.15,-3.1517,-3.1462,-3.1295,-3.1363,-3.1359,-3.119,-3.1326,-3.2036,-3.3305,-3.2611,-3.2604,-3.3212,-3.2502,-3.1833,-3.1207,-3.1343,-3.1326,-3.1157,-3.0497,-2.9736,-2.8907,-2.8061,-2.73,-2.6691,-2.6691,-2.6556,-2.6279,-2.6016,-2.547,-2.4721,-2.374,-2.4148,-2.4804,-2.3322,-2.2692,-2.2273,-2.1257,-2.0903,-2.0676,-2.0157,-1.9884,-1.9762,-1.9833,-1.9677,-1.9524,-1.9465,-1.9457,-1.9487,-1.9354,-1.9376,-1.9683,-2.0604,-2.0045,-1.9972,-2.1484,-2.1411,-2.1323,-2.1744,-2.2392,-2.2735,-2.2615,-2.2612,-2.2626,-2.2569,-2.2612,-2.293,-2.3597,-2.3492,-2.3453,-2.3669,-2.3779,-2.3894,-2.3931,-2.3207,-2.2207,-2.1003,-2.0872,-2.0248,-1.9101,-1.9101,-1.9101,-1.9101,-1.9101,-1.9078,-1.8955,-1.8851,-1.8697,-1.8478,-1.7962,-1.772,-1.7705,-1.7697,-1.7581,-1.7581,-1.8084,-1.8147,-1.7897,-3.4712,-3.4619,-3.4371,-3.3758,-3.3083,-3.2457,-3.1957,-3.1671,-3.1576,-3.1614,-3.1726,-3.1763,-3.1709,-3.1671,-3.1634,-3.1538,-3.1466,-3.1428,-3.1389,-3.1346,-3.1308,-3.1252,-3.1252,-3.123,-3.119,-3.119,-3.1698,-3.273,-3.2425,-3.2662,-3.3339,-3.3102,-3.256,-3.185,-3.185,-3.1596,-3.114,-3.0412,-2.9668,-2.8873,-2.7638,-2.6962,-2.6691,-2.6657,-2.6383,-2.598,-2.5855,-2.5341,-2.4532,-2.3119,-2.3095,-2.3406,-2.2278,-2.1713,-2.1371,-2.0941,-2.0557,-2.0252,-2.0066,-1.9848,-1.9726,-1.9726,-1.956,-1.9413,-1.9413,-1.9413,-1.9376,-1.9376,-1.9339,-1.9426,-1.9744,-1.9715,-1.9875,-2.0534,-2.1124,-2.1455,-2.1325,-2.2206,-2.2682,-2.2189,-2.2521,-2.2752,-2.2615,-2.2675,-2.2821,-2.3005,-2.3655,-2.4461,-2.5423,-2.5056,-2.4889,-2.5038,-2.331,-2.1931,-2.1129,-2.0287,-1.9648,-1.9213,-1.9139,-1.9101,-1.9101,-1.9176,-1.913,-1.8993,-1.8644,-1.8319,-1.8016,-1.772,-1.7214,-1.6663,-1.6573,-1.6728,-1.6933,-1.6912,-1.7369,-1.7984,-3.3922,-3.3566,-3.3141,-3.2944,-3.2508,-3.1981,-3.138,-3.1445,-3.1538,-3.1576,-3.1726,-3.1763,-3.1596,-3.1559,-3.1521,-3.1462,-3.1351,-3.1295,-3.1274,-3.123,-3.119,-3.119,-3.119,-3.119,-3.119,-3.119,-3.1546,-3.2313,-3.2313,-3.256,-3.3068,-3.2848,-3.2476,-3.1952,-3.1911,-3.1506,-3.0779,-3.0196,-2.9421,-2.848,-2.74,-2.6826,-2.6607,-2.64,-2.5997,-2.5545,-2.5303,-2.4863,-2.4101,-2.2485,-2.2214,-2.239,-2.1228,-2.0691,-2.043,-2.0393,-2.01,-1.9812,-1.9741,-1.9581,-1.9457,-1.9508,-1.9362,-1.9228,-1.9302,-1.9302,-1.9302,-1.9302,-1.9302,-1.9265,-1.9101,-1.9426,-1.971,-1.9857,-2.0649,-2.1196,-2.1005,-2.1917,-2.2453,-2.1917,-2.2467,-2.2915,-2.2904,-2.2881,-2.2939,-2.3177,-2.388,-2.4646,-2.5582,-2.5488,-2.5257,-2.4965,-2.302,-2.1742,-2.1184,-1.9997,-1.938,-1.9302,-1.9139,-1.9101,-1.9101,-1.9176,-1.9153,-1.8993,-1.8606,-1.8173,-1.7693,-1.7407,-1.6782,-1.6013,-1.5891,-1.6045,-1.6394,-1.6198,-1.6876,-1.7863,-3.2442,-3.2347,-3.211,-3.1343,-3.1207,-3.123,-3.1295,-3.1466,-3.1671,-3.18,-3.18,-3.1726,-3.1517,-3.1517,-3.1462,-3.1295,-3.1295,-3.1274,-3.119,-3.119,-3.119,-3.119,-3.119,-3.119,-3.119,-3.119,-3.1546,-3.2313,-3.2313,-3.2313,-3.2313,-3.1562,-3.1207,-3.1207,-3.1009,-3.0532,-2.9905,-2.9694,-2.8837,-2.7609,-2.7593,-2.7157,-2.645,-2.5852,-2.5373,-2.491,-2.4168,-2.3651,-2.3069,-2.1549,-2.1591,-2.1978,-2.0047,-1.9516,-1.9589,-1.9391,-1.9339,-1.9376,-1.9176,-1.8974,-1.886,-1.9064,-1.895,-1.886,-1.9064,-1.9101,-1.9101,-1.9101,-1.9213,-1.9265,-1.9101,-1.9116,-1.9281,-1.9825,-1.9886,-2.0131,-2.0821,-2.1555,-2.2004,-2.1989,-2.2556,-2.3088,-2.363,-2.3219,-2.3363,-2.4509,-2.4048,-2.3457,-2.2881,-2.41,-2.4221,-2.2975,-2.2338,-2.1742,-2.1184,-2.0447,-1.9832,-1.9302,-1.9139,-1.9101,-1.9101,-1.9101,-1.9078,-1.8993,-1.8836,-1.8408,-1.7747,-1.7079,-1.6471,-1.6005,-1.5916,-1.59,-1.5969,-1.644,-1.6945,-1.7381,-3.1596,-3.1546,-3.1461,-3.1241,-3.119,-3.119,-3.1213,-3.1291,-3.1329,-3.1385,-3.1385,-3.1385,-3.1308,-3.1329,-3.1329,-3.1252,-3.1213,-3.1213,-3.119,-3.119,-3.119,-3.119,-3.119,-3.119,-3.119,-3.119,-3.1309,-3.1546,-3.2036,-3.2502,-3.2942,-3.2143,-3.1707,-3.1591,-3.1007,-3.0657,-3.0396,-2.9393,-2.8745,-2.828,-2.7274,-2.6686,-2.6485,-2.6173,-2.554,-2.4752,-2.4471,-2.3794,-2.2819,-2.148,-2.148,-2.1856,-2.0327,-2.0015,-2.0114,-1.9947,-1.9564,-1.9176,-1.9101,-1.8936,-1.886,-1.9064,-1.8936,-1.886,-1.9064,-1.9101,-1.9101,-1.9101,-1.9139,-1.9101,-1.8936,-1.8898,-1.9075,-1.9601,-1.9755,-2.0105,-2.0779,-2.1455,-2.1903,-2.1989,-2.2481,-2.3071,-2.363,-2.3219,-2.319,-2.3933,-2.4255,-2.4583,-2.4829,-2.4346,-2.4115,-2.4268,-2.2352,-2.1303,-2.1278,-2.0036,-1.9395,-1.9376,-1.9176,-1.9101,-1.9101,-1.895,-1.8912,-1.8955,-1.8319,-1.7733,-1.7188,-1.6527,-1.5932,-1.539,-1.5337,-1.5579,-1.5854,-1.5659,-1.6348,-1.7324,-3.119,-3.119,-3.119,-3.119,-3.119,-3.119,-3.119,-3.1269,-3.1308,-3.1308,-3.1308,-3.1308,-3.1308,-3.1291,-3.1252,-3.119,-3.119,-3.119,-3.119,-3.119,-3.119,-3.119,-3.119,-3.119,-3.119,-3.119,-3.119,-3.119,-3.1647,-3.208,-3.2512,-3.1916,-3.1558,-3.1441,-3.0891,-3.0501,-3.0225,-2.9326,-2.8627,-2.8102,-2.7147,-2.649,-2.6046,-2.5758,-2.5105,-2.4307,-2.4048,-2.348,-2.2712,-2.1643,-2.1715,-2.2062,-2.0994,-2.0744,-2.075,-2.0204,-1.9532,-1.8988,-1.8889,-1.8798,-1.8721,-1.8927,-1.8874,-1.886,-1.9064,-1.9101,-1.9101,-1.9101,-1.9078,-1.9003,-1.8822,-1.876,-1.8772,-1.9049,-1.9438,-1.9772,-1.9914,-2.1068,-2.1773,-2.1528,-2.2292,-2.3071,-2.363,-2.3219,-2.3103,-2.3645,-2.3941,-2.425,-2.4689,-2.4332,-2.4014,-2.3757,-2.1975,-2.0927,-2.083,-1.9677,-1.9153,-1.9302,-1.9116,-1.904,-1.904,-1.8745,-1.8669,-1.8697,-1.7854,-1.7188,-1.6697,-1.6194,-1.5635,-1.5108,-1.5108,-1.5303,-1.5533,-1.5223,-1.5957,-1.7048,-3.119,-3.119,-3.119,-3.119,-3.119,-3.119,-3.119,-3.1363,-3.1479,-3.1479,-3.1479,-3.1479,-3.1479,-3.1308,-3.119,-3.119,-3.119,-3.119,-3.119,-3.119,-3.119,-3.119,-3.119,-3.119,-3.119,-3.119,-3.119,-3.119,-3.119,-3.119,-3.1151,-3.1015,-3.0975,-3.0935,-3.0651,-3.0186,-2.9619,-2.9402,-2.8576,-2.7383,-2.7334,-2.6541,-2.5422,-2.4863,-2.4282,-2.3694,-2.3127,-2.2857,-2.2709,-2.2032,-2.2205,-2.2548,-2.1812,-2.1612,-2.1355,-2.0184,-1.9369,-1.8764,-1.8556,-1.8478,-1.8517,-1.8634,-1.8736,-1.886,-1.9064,-1.9101,-1.9101,-1.9101,-1.9055,-1.8979,-1.8836,-1.8659,-1.8478,-1.8375,-1.9037,-1.9329,-1.8609,-2.0512,-2.17,-2.094,-2.2046,-2.3103,-2.363,-2.3219,-2.3103,-2.3645,-2.3204,-2.2888,-2.2888,-2.4051,-2.3815,-2.1859,-2.1209,-2.0669,-2.0103,-1.9387,-1.9017,-1.9064,-1.8979,-1.8955,-1.8903,-1.8436,-1.8226,-1.8187,-1.7409,-1.6744,-1.6269,-1.6032,-1.5603,-1.5108,-1.5108,-1.5108,-1.5108,-1.5108,-1.5728,-1.6577,-3.1089,-3.119,-3.119,-3.119,-3.119,-3.119,-3.119,-3.123,-3.1269,-3.1269,-3.1269,-3.1269,-3.1269,-3.123,-3.119,-3.119,-3.119,-3.119,-3.119,-3.119,-3.119,-3.119,-3.119,-3.119,-3.119,-3.119,-3.1112,-3.0952,-3.1015,-3.0935,-3.0692,-3.0651,-3.0609,-3.0526,-3.0459,-3.0344,-3.0146,-2.9625,-2.888,-2.8097,-2.7533,-2.6796,-2.5954,-2.5422,-2.4847,-2.4282,-2.3681,-2.3157,-2.2694,-2.1899,-2.2085,-2.2486,-2.1826,-2.1552,-2.1366,-2.05,-1.9739,-1.9067,-1.8446,-1.8293,-1.8372,-1.8503,-1.8683,-1.8822,-1.8979,-1.9017,-1.9055,-1.9101,-1.9078,-1.904,-1.8979,-1.8788,-1.875,-1.9095,-1.9223,-1.9642,-2.0627,-2.121,-2.1755,-2.2307,-2.2639,-2.3025,-2.363,-2.3219,-2.3103,-2.3645,-2.3204,-2.2888,-2.2888,-2.2684,-2.238,-2.1961,-2.079,-2.0164,-2.0191,-1.9373,-1.8979,-1.886,-1.8486,-1.8316,-1.8277,-1.7881,-1.768,-1.7626,-1.6841,-1.6429,-1.6269,-1.5591,-1.5244,-1.5108,-1.5108,-1.5108,-1.5108,-1.5108,-1.5521,-1.613,-3.0615,-3.097,-3.119,-3.119,-3.119,-3.1089,-3.0751,-3.097,-3.1072,-3.0734,-3.0987,-3.119,-3.119,-3.119,-3.119,-3.119,-3.119,-3.119,-3.119,-3.119,-3.119,-3.119,-3.119,-3.119,-3.119,-3.119,-3.1151,-3.1032,-3.1015,-3.0895,-3.0733,-3.0651,-3.0526,-3.0426,-3.0079,-3.0129,-3.0368,-2.9691,-2.9065,-2.8493,-2.7699,-2.6652,-2.5544,-2.4934,-2.4323,-2.3752,-2.3421,-2.3053,-2.2632,-2.2124,-2.2193,-2.236,-2.1974,-2.1843,-2.1629,-2.0524,-1.9782,-1.9168,-1.846,-1.8333,-1.8411,-1.8478,-1.8581,-1.8697,-1.8827,-1.8903,-1.8941,-1.904,-1.904,-1.9003,-1.8927,-1.9016,-1.9157,-1.936,-1.9922,-2.0429,-2.0793,-2.1462,-2.1979,-2.2171,-2.2503,-2.285,-2.3273,-2.3045,-2.3033,-2.3288,-2.2725,-2.2423,-2.2423,-2.137,-2.0997,-2.1469,-2.0445,-1.9782,-1.9571,-1.9114,-1.8788,-1.8644,-1.8266,-1.804,-1.804,-1.7435,-1.7105,-1.7076,-1.6269,-1.5932,-1.5888,-1.5322,-1.5108,-1.5108,-1.5108,-1.5108,-1.5108,-1.5108,-1.5452,-1.5946,-2.9922,-3.0446,-3.0852,-3.0852,-3.0852,-3.0649,-3.004,-3.0463,-3.0632,-3.0023,-3.048,-3.0852,-3.0852,-3.0852,-3.0852,-3.0852,-3.0852,-3.0954,-3.119,-3.119,-3.119,-3.119,-3.119,-3.119,-3.119,-3.119,-3.1151,-3.1112,-3.0975,-3.0895,-3.0855,-3.0692,-3.0568,-3.0393,-2.9707,-2.97,-3.0203,-2.9641,-2.9026,-2.8436,-2.7891,-2.6634,-2.5041,-2.4372,-2.3709,-2.3098,-2.3024,-2.2814,-2.2555,-2.2417,-2.2278,-2.2184,-2.2184,-2.2184,-2.1885,-2.0446,-1.9809,-1.9321,-1.8474,-1.8333,-1.8425,-1.8425,-1.8425,-1.8464,-1.8556,-1.8644,-1.876,-1.8865,-1.8903,-1.8903,-1.8798,-1.9194,-1.9567,-1.9556,-2.0727,-2.1338,-2.0506,-2.166,-2.2281,-2.152,-2.2053,-2.252,-2.2568,-2.2568,-2.2568,-2.2568,-2.1974,-2.1628,-2.1628,-2.0356,-1.9931,-2.0624,-2.0048,-1.9444,-1.8822,-1.8644,-1.8517,-1.8386,-1.7962,-1.7787,-1.7747,-1.6921,-1.6552,-1.6497,-1.5812,-1.5513,-1.5468,-1.5198,-1.5108,-1.5108,-1.5108,-1.5108,-1.5108,-1.5108,-1.5395,-1.5797,-2.9025,-2.9245,-2.933,-2.933,-2.933,-2.9279,-2.9178,-2.9245,-2.9279,-2.9178,-2.9245,-2.933,-2.933,-2.933,-2.933,-2.933,-2.933,-2.9854,-3.1106,-3.119,-3.119,-3.119,-3.119,-3.119,-3.119,-3.1112,-3.0895,-3.0609,-3.0609,-3.0426,-3.0146,-3.0231,-3.0274,-3.0199,-2.9576,-2.937,-2.9469,-2.9443,-2.8665,-2.7569,-2.8081,-2.7356,-2.5954,-2.5378,-2.4752,-2.4101,-2.3537,-2.2934,-2.2417,-2.2278,-2.2231,-2.2184,-2.2184,-2.2184,-2.1931,-2.0578,-2.0102,-1.9795,-1.8344,-1.8016,-1.8082,-1.8082,-1.8082,-1.8082,-1.8121,-1.8214,-1.8307,-1.8397,-1.8503,-1.8556,-1.8556,-1.9035,-1.9598,-2.0077,-2.0823,-2.1546,-2.2121,-2.2441,-2.2417,-2.1932,-2.1902,-2.1744,-2.1268,-2.1126,-2.1026,-2.1026,-2.094,-2.0883,-2.0883,-2.0073,-1.954,-1.9364,-1.9098,-1.8922,-1.8784,-1.8358,-1.8042,-1.7882,-1.7089,-1.6723,-1.6723,-1.6175,-1.5925,-1.5913,-1.5647,-1.5513,-1.5468,-1.5198,-1.5108,-1.5108,-1.5108,-1.5108,-1.5108,-1.5108,-1.5154,-1.5292,-2.8281,-2.8907,-2.9316,-2.9025,-2.8755,-2.8518,-2.8383,-2.8704,-2.8822,-2.8416,-2.8721,-2.9011,-2.9011,-2.9011,-2.9047,-2.9047,-2.9047,-2.9336,-3.0031,-3.0044,-3.0006,-3.0006,-3.0395,-3.0784,-3.119,-3.0667,-3.0532,-3.0773,-3.0227,-2.9881,-2.9716,-2.928,-2.9042,-2.8911,-2.8329,-2.823,-2.8551,-2.8679,-2.8474,-2.8012,-2.7947,-2.7347,-2.639,-2.5385,-2.4567,-2.3906,-2.3537,-2.2979,-2.237,-2.2231,-2.2184,-2.2184,-2.2184,-2.1959,-2.151,-2.048,-1.9712,-1.8948,-1.8166,-1.7962,-1.7948,-1.7855,-1.7828,-1.7868,-1.7935,-1.8016,-1.8135,-1.8279,-1.8411,-1.8517,-1.8517,-1.9262,-1.9866,-1.981,-2.1037,-2.1977,-2.192,-2.201,-2.2128,-2.232,-2.1885,-2.1655,-2.1902,-2.18,-2.1698,-2.1698,-2.1026,-2.0613,-2.0613,-1.9567,-1.8979,-1.8885,-1.8562,-1.8277,-1.8001,-1.824,-1.8082,-1.7475,-1.706,-1.6723,-1.6466,-1.6001,-1.5792,-1.5792,-1.5603,-1.5513,-1.5468,-1.5198,-1.5108,-1.5108,-1.5108,-1.5108,-1.5108,-1.5108,-1.5108,-1.5142,-2.7554,-2.8332,-2.8873,-2.8554,-2.8112,-2.7791,-2.7588,-2.8061,-2.823,-2.7655,-2.813,-2.8539,-2.8539,-2.8592,-2.8592,-2.8592,-2.8592,-2.8592,-2.8592,-2.8557,-2.8691,-2.8994,-2.957,-3.0129,-3.0666,-3.0162,-3.0051,-3.0336,-2.9729,-2.9303,-2.9081,-2.8362,-2.7923,-2.7834,-2.7212,-2.7212,-2.7679,-2.8024,-2.8223,-2.8223,-2.7843,-2.738,-2.6761,-2.5441,-2.4446,-2.3709,-2.3608,-2.3054,-2.231,-2.2062,-2.2058,-2.2156,-2.2016,-2.1682,-2.1145,-2.0454,-1.928,-1.8149,-1.8016,-1.7962,-1.7922,-1.7706,-1.7679,-1.772,-1.776,-1.7868,-1.7962,-1.8121,-1.8268,-1.8361,-1.8361,-1.9251,-1.9894,-1.9418,-2.0897,-2.1865,-2.1161,-2.1237,-2.1554,-2.2069,-2.1609,-2.1467,-2.2045,-2.2015,-2.1957,-2.1912,-2.0798,-2.0104,-2.0077,-1.9013,-1.8363,-1.8382,-1.8163,-1.7827,-1.7312,-1.7868,-1.7814,-1.7031,-1.6947,-1.6693,-1.6349,-1.5957,-1.5792,-1.5748,-1.5558,-1.5468,-1.5424,-1.5198,-1.5108,-1.5108,-1.5108,-1.5108,-1.5108,-1.5108,-1.5108,-1.5108,-2.6776,-2.686,-2.6911,-2.6877,-2.6826,-2.6793,-2.6776,-2.6826,-2.6894,-2.6978,-2.7029,-2.7079,-2.7145,-2.7145,-2.7145,-2.7145,-2.7145,-2.7145,-2.7145,-2.7145,-2.7743,-2.9051,-2.9208,-2.9223,-2.918,-2.9656,-2.941,-2.8411,-2.8878,-2.8682,-2.7826,-2.7778,-2.7705,-2.7672,-2.7095,-2.6857,-2.6955,-2.781,-2.7822,-2.729,-2.8031,-2.7921,-2.7172,-2.6233,-2.516,-2.4153,-2.4013,-2.3231,-2.2146,-2.1569,-2.1752,-2.2086,-2.1555,-2.1344,-2.1203,-2.0569,-1.9336,-1.8163,-1.7963,-1.7922,-1.7828,-1.757,-1.7625,-1.7638,-1.7487,-1.7597,-1.772,-1.776,-1.7842,-1.7922,-1.7922,-1.8618,-1.9183,-1.9142,-1.9922,-2.0556,-2.0471,-2.0457,-2.0571,-2.0826,-2.0741,-2.0499,-2.016,-2.0036,-1.9969,-1.9847,-1.9248,-1.8948,-1.8932,-1.8358,-1.7839,-1.7441,-1.7783,-1.7774,-1.7312,-1.6879,-1.6595,-1.6565,-1.6088,-1.5881,-1.5836,-1.5836,-1.5748,-1.5715,-1.5558,-1.5435,-1.5312,-1.5165,-1.5108,-1.5108,-1.5108,-1.5108,-1.5108,-1.5108,-1.5108,-1.5108,-2.6691,-2.6691,-2.6691,-2.6691,-2.6691,-2.6691,-2.6691,-2.6775,-2.6842,-2.6893,-2.6926,-2.6992,-2.6992,-2.7023,-2.7038,-2.7038,-2.7038,-2.7038,-2.7038,-2.7038,-2.7485,-2.8424,-2.7947,-2.8064,-2.8958,-2.8568,-2.8327,-2.8318,-2.802,-2.7633,-2.7143,-2.6649,-2.6416,-2.6393,-2.6172,-2.6059,-2.614,-2.7568,-2.7712,-2.712,-2.8037,-2.7717,-2.6584,-2.5718,-2.4617,-2.3578,-2.3448,-2.2846,-2.2142,-2.1963,-2.178,-2.1611,-2.1386,-2.0737,-2.0007,-1.9293,-1.8669,-1.8163,-1.7963,-1.7842,-1.772,-1.7502,-1.7474,-1.7487,-1.7404,-1.7446,-1.7569,-1.7679,-1.772,-1.7801,-1.7882,-1.844,-1.8796,-1.8426,-1.9349,-2.0032,-1.9642,-2.0091,-2.067,-2.1226,-2.0926,-2.0755,-2.1067,-2.0653,-2.0341,-2.0299,-1.9701,-1.935,-1.9348,-1.8479,-1.7637,-1.6823,-1.6995,-1.7004,-1.6878,-1.6961,-1.6667,-1.6044,-1.602,-1.5844,-1.5603,-1.5424,-1.539,-1.5447,-1.53,-1.5255,-1.5312,-1.5165,-1.5108,-1.5108,-1.5108,-1.5108,-1.5108,-1.5108,-1.5108,-1.5108,-2.6691,-2.6691,-2.6691,-2.6691,-2.6691,-2.6691,-2.6691,-2.6792,-2.6926,-2.6926,-2.6975,-2.704,-2.7089,-2.7137,-2.7152,-2.7152,-2.7152,-2.7152,-2.7152,-2.7152,-2.7392,-2.7826,-2.723,-2.7335,-2.837,-2.7816,-2.7618,-2.7753,-2.73,-2.6885,-2.6433,-2.5907,-2.5659,-2.5616,-2.5616,-2.5616,-2.5713,-2.7375,-2.765,-2.7082,-2.8015,-2.7584,-2.6198,-2.5337,-2.4251,-2.3172,-2.3024,-2.252,-2.1907,-2.1678,-2.1513,-2.1274,-2.1091,-2.0414,-1.953,-1.8595,-1.8201,-1.8109,-1.7963,-1.7747,-1.7584,-1.7446,-1.7404,-1.7432,-1.7404,-1.7446,-1.7569,-1.772,-1.7788,-1.7828,-1.7989,-1.8331,-1.8481,-1.8071,-1.8755,-1.9224,-1.8797,-1.928,-1.9993,-2.0784,-2.0514,-2.0513,-2.1126,-2.0781,-2.0495,-2.0454,-1.9703,-1.9134,-1.8796,-1.8175,-1.7402,-1.6566,-1.6683,-1.6732,-1.6618,-1.6773,-1.6484,-1.5792,-1.5932,-1.5844,-1.5603,-1.5334,-1.5289,-1.5345,-1.5198,-1.5153,-1.521,-1.5153,-1.5108,-1.5108,-1.5108,-1.5108,-1.5108,-1.5108,-1.5108,-1.5108,-2.6691,-2.6674,-2.6674,-2.6674,-2.6691,-2.6691,-2.6691,-2.6825,-2.6926,-2.6975,-2.7038,-2.7135,-2.7282,-2.7299,-2.7299,-2.7299,-2.7299,-2.7299,-2.7299,-2.7299,-2.7299,-2.7299,-2.7299,-2.7186,-2.7007,-2.7521,-2.7313,-2.6295,-2.6768,-2.6547,-2.5701,-2.5621,-2.5616,-2.5616,-2.5616,-2.5616,-2.5713,-2.7375,-2.7633,-2.7082,-2.7998,-2.7529,-2.6198,-2.5337,-2.4251,-2.3172,-2.3069,-2.2291,-2.1217,-2.0611,-2.0837,-2.1203,-2.0569,-2.0386,-2.0133,-1.8721,-1.8147,-1.8002,-1.7909,-1.7693,-1.7475,-1.7404,-1.7461,-1.7488,-1.7391,-1.7569,-1.772,-1.7882,-1.7935,-1.8068,-1.8266,-1.8254,-1.8202,-1.8202,-1.8095,-1.7962,-1.7922,-1.7922,-1.8221,-1.9031,-1.9293,-1.9525,-1.9755,-1.9969,-2.0049,-1.989,-1.8906,-1.7814,-1.6752,-1.7149,-1.7159,-1.6642,-1.7135,-1.7159,-1.6584,-1.6056,-1.5792,-1.5792,-1.5792,-1.5792,-1.5792,-1.5614,-1.5513,-1.5468,-1.5198,-1.5108,-1.5108,-1.5108,-1.5108,-1.5108,-1.5108,-1.5108,-1.5108,-1.5108,-1.5108,-1.5108,-2.593,-2.5507,-2.5304,-2.5845,-2.593,-2.6099,-2.6623,-2.6334,-2.6296,-2.6906,-2.661,-2.6567,-2.723,-2.7299,-2.7299,-2.7299,-2.7299,-2.7299,-2.7299,-2.7299,-2.7299,-2.7299,-2.704,-2.6842,-2.6775,-2.6721,-2.6474,-2.6082,-2.633,-2.6184,-2.5701,-2.577,-2.5749,-2.5616,-2.5616,-2.5616,-2.5664,-2.6743,-2.6825,-2.6311,-2.7163,-2.6645,-2.5369,-2.5107,-2.4471,-2.3709,-2.3651,-2.289,-2.1845,-2.1671,-2.1169,-2.0555,-1.9922,-1.9431,-1.8955,-1.8576,-1.8254,-1.8002,-1.7909,-1.7679,-1.7432,-1.7404,-1.7404,-1.7391,-1.7295,-1.7391,-1.7487,-1.7528,-1.7611,-1.772,-1.7975,-1.7989,-1.8029,-1.8254,-1.824,-1.8187,-1.8201,-1.8588,-1.9016,-1.9362,-1.9376,-1.9539,-1.9861,-1.9551,-1.9344,-1.9315,-1.8691,-1.8014,-1.7312,-1.7327,-1.7168,-1.663,-1.7135,-1.7063,-1.6385,-1.6011,-1.5792,-1.5792,-1.6028,-1.5867,-1.53,-1.5429,-1.5266,-1.4891,-1.4903,-1.4937,-1.496,-1.5062,-1.5108,-1.5108,-1.5108,-1.5108,-1.5108,-1.5108,-1.5108,-1.5108,-2.5152,-2.4797,-2.4659,-2.5084,-2.5152,-2.5321,-2.5744,-2.5503,-2.5448,-2.597,-2.574,-2.585,-2.6685,-2.6802,-2.6923,-2.7264,-2.7299,-2.7299,-2.7299,-2.7299,-2.7299,-2.7299,-2.6908,-2.6742,-2.6808,-2.6555,-2.6312,-2.6154,-2.6134,-2.6026,-2.5811,-2.5828,-2.577,-2.5621,-2.56,-2.5616,-2.5664,-2.6515,-2.6498,-2.5946,-2.6796,-2.6259,-2.4989,-2.4697,-2.4168,-2.3522,-2.3319,-2.244,-2.147,-2.1715,-2.1311,-2.0583,-1.967,-1.9305,-1.9123,-1.854,-1.8189,-1.7935,-1.7788,-1.7543,-1.7308,-1.7308,-1.7308,-1.7308,-1.7199,-1.7308,-1.7404,-1.7419,-1.7502,-1.7666,-1.7963,-1.8003,-1.8109,-1.8333,-1.8372,-1.8372,-1.8372,-1.8747,-1.9025,-1.9105,-1.9119,-1.9185,-1.9409,-1.9118,-1.876,-1.8355,-1.7773,-1.7216,-1.6714,-1.6764,-1.6578,-1.6089,-1.6539,-1.6503,-1.5846,-1.5621,-1.5513,-1.5525,-1.574,-1.5579,-1.5119,-1.515,-1.5146,-1.5092,-1.5103,-1.515,-1.5314,-1.5372,-1.5292,-1.5108,-1.5108,-1.5108,-1.5108,-1.5108,-1.5108,-1.5165,-2.4421,-2.4371,-2.4337,-2.4404,-2.4421,-2.4438,-2.4506,-2.4486,-2.4513,-2.4581,-2.4654,-2.4987,-2.5815,-2.5953,-2.631,-2.7126,-2.7264,-2.7299,-2.7299,-2.7299,-2.7282,-2.725,-2.6925,-2.6792,-2.6942,-2.6759,-2.6572,-2.6383,-2.6154,-2.6026,-2.599,-2.5811,-2.5701,-2.5701,-2.5637,-2.5616,-2.5664,-2.6526,-2.6503,-2.5946,-2.6677,-2.6194,-2.4989,-2.4384,-2.3776,-2.3157,-2.2694,-2.1666,-2.0585,-2.0978,-2.1105,-2.0879,-1.9768,-1.9796,-1.9964,-1.8615,-1.8083,-1.7842,-1.7611,-1.7352,-1.7199,-1.7199,-1.7199,-1.7199,-1.7199,-1.7308,-1.7391,-1.7447,-1.7625,-1.7801,-1.8083,-1.8202,-1.8282,-1.8478,-1.8517,-1.8556,-1.8556,-1.8517,-1.8517,-1.8517,-1.8634,-1.8673,-1.8673,-1.8683,-1.8277,-1.7272,-1.6532,-1.5996,-1.5591,-1.5812,-1.58,-1.5393,-1.5811,-1.5729,-1.5177,-1.5177,-1.5154,-1.5108,-1.5154,-1.5154,-1.5062,-1.4845,-1.515,-1.5806,-1.5626,-1.566,-1.5969,-1.5969,-1.5682,-1.5234,-1.52,-1.5177,-1.5177,-1.5119,-1.5165,-1.5267,-2.363,-2.3173,-2.297,-2.3528,-2.363,-2.3816,-2.4421,-2.4032,-2.3892,-2.4513,-2.4134,-2.4113,-2.497,-2.5613,-2.6086,-2.6258,-2.6905,-2.7299,-2.7299,-2.7299,-2.7218,-2.7089,-2.6975,-2.6825,-2.6538,-2.6382,-2.631,-2.6222,-2.6203,-2.6079,-2.5917,-2.5881,-2.577,-2.5637,-2.5616,-2.5616,-2.5632,-2.588,-2.5884,-2.5754,-2.6045,-2.5922,-2.5519,-2.5406,-2.5214,-2.5013,-2.4879,-2.3498,-2.1466,-2.0214,-1.9515,-1.915,-1.9319,-1.9165,-1.8829,-1.8523,-1.8163,-1.7882,-1.7828,-1.7502,-1.7199,-1.7199,-1.7199,-1.7199,-1.7199,-1.7308,-1.735,-1.7282,-1.7584,-1.7842,-1.7801,-1.8163,-1.8478,-1.8634,-1.8803,-1.8879,-1.8879,-1.8812,-1.8721,-1.8721,-1.8697,-1.8581,-1.8238,-1.7961,-1.7827,-1.7894,-1.7063,-1.6484,-1.6299,-1.6305,-1.6267,-1.6161,-1.6585,-1.6416,-1.5588,-1.5588,-1.5394,-1.5119,-1.551,-1.5394,-1.48,-1.5146,-1.5381,-1.5411,-1.5471,-1.5793,-1.6303,-1.6413,-1.6405,-1.6256,-1.5877,-1.5739,-1.5682,-1.5257,-1.5108,-1.5165,-2.2827,-2.2552,-2.2429,-2.2818,-2.2885,-2.3004,-2.3393,-2.3122,-2.305,-2.3451,-2.3163,-2.3272,-2.4137,-2.4594,-2.5167,-2.5997,-2.6458,-2.6885,-2.7264,-2.7299,-2.725,-2.7154,-2.704,-2.6859,-2.6556,-2.6365,-2.6258,-2.622,-2.622,-2.6115,-2.5954,-2.5954,-2.5844,-2.5659,-2.5659,-2.5637,-2.5616,-2.568,-2.5701,-2.5701,-2.5733,-2.5733,-2.5647,-2.5291,-2.502,-2.4775,-2.4517,-2.3212,-2.1386,-1.9591,-1.9178,-1.936,-1.9039,-1.8941,-1.8857,-1.8484,-1.8202,-1.8003,-1.7922,-1.7706,-1.7529,-1.7529,-1.7529,-1.7502,-1.724,-1.7253,-1.7295,-1.7199,-1.7447,-1.7666,-1.7569,-1.7922,-1.8268,-1.8503,-1.8673,-1.8827,-1.9017,-1.876,-1.8553,-1.8553,-1.8266,-1.7948,-1.7693,-1.7463,-1.7286,-1.7244,-1.6484,-1.6032,-1.6008,-1.5885,-1.5822,-1.588,-1.629,-1.6122,-1.5218,-1.5873,-1.5688,-1.4789,-1.5047,-1.4942,-1.4569,-1.4824,-1.5285,-1.578,-1.5829,-1.626,-1.6877,-1.6928,-1.6841,-1.66,-1.6348,-1.6244,-1.6187,-1.567,-1.5372,-1.521,-2.2254,-2.2282,-2.2338,-2.231,-2.231,-2.231,-2.2265,-2.2282,-2.2282,-2.2282,-2.2282,-2.2587,-2.3323,-2.354,-2.4259,-2.5769,-2.5919,-2.6247,-2.704,-2.7092,-2.7144,-2.725,-2.7057,-2.6859,-2.6657,-2.6453,-2.6312,-2.622,-2.622,-2.6132,-2.5974,-2.5974,-2.5864,-2.5663,-2.5663,-2.5659,-2.5616,-2.568,-2.5701,-2.568,-2.5637,-2.5621,-2.5589,-2.4958,-2.4502,-2.4074,-2.3417,-2.2294,-2.0869,-1.9105,-1.9206,-1.9894,-1.8855,-1.8829,-1.9137,-1.8434,-1.8242,-1.8163,-1.8003,-1.7922,-1.7882,-1.7882,-1.7882,-1.7801,-1.7406,-1.7323,-1.7282,-1.7199,-1.7393,-1.757,-1.7432,-1.776,-1.8055,-1.8279,-1.8489,-1.8736,-1.9101,-1.8745,-1.85,-1.85,-1.7854,-1.7353,-1.7323,-1.7063,-1.6744,-1.6398,-1.578,-1.5435,-1.5513,-1.5334,-1.529,-1.5474,-1.58,-1.5623,-1.4877,-1.5964,-1.5822,-1.4373,-1.4373,-1.4373,-1.4373,-1.4373,-1.51,-1.6322,-1.6322,-1.6752,-1.7507,-1.7507,-1.7266,-1.6825,-1.6784,-1.675,-1.6692,-1.621,-1.5752,-1.5485,-2.2432,-2.246,-2.246,-2.2394,-2.2394,-2.2304,-2.2073,-2.2135,-2.2197,-2.2197,-2.2254,-2.2372,-2.2541,-2.3232,-2.4064,-2.5074,-2.516,-2.5471,-2.6212,-2.6264,-2.6513,-2.7023,-2.6859,-2.6657,-2.6453,-2.6277,-2.6203,-2.622,-2.622,-2.6096,-2.5917,-2.5917,-2.5824,-2.56,-2.56,-2.5616,-2.5616,-2.568,-2.568,-2.56,-2.5616,-2.5524,-2.5416,-2.5278,-2.5185,-2.5051,-2.4006,-2.2252,-2.024,-1.8928,-1.863,-1.8742,-1.8574,-1.8574,-1.859,-1.8506,-1.8361,-1.8202,-1.8163,-1.8043,-1.7882,-1.7882,-1.7882,-1.7882,-1.7842,-1.7801,-1.7706,-1.7282,-1.7598,-1.7801,-1.7487,-1.8016,-1.8475,-1.8305,-1.8784,-1.9228,-1.9265,-1.9265,-1.9265,-1.9265,-1.8355,-1.772,-1.7707,-1.6782,-1.6281,-1.6625,-1.6088,-1.5703,-1.5671,-1.5626,-1.5816,-1.6255,-1.6268,-1.6032,-1.555,-1.5734,-1.5328,-1.4373,-1.4373,-1.4373,-1.4373,-1.4373,-1.51,-1.6322,-1.6322,-1.6956,-1.7981,-1.7981,-1.7947,-1.7844,-1.745,-1.7278,-1.7209,-1.6715,-1.6307,-1.6021,-2.2175,-2.2203,-2.2231,-2.2282,-2.222,-2.2175,-2.2106,-2.2106,-2.2106,-2.2106,-2.2118,-2.2203,-2.2377,-2.2843,-2.345,-2.4281,-2.4747,-2.5316,-2.6057,-2.6523,-2.6888,-2.7137,-2.6957,-2.6775,-2.659,-2.64,-2.6293,-2.622,-2.622,-2.6132,-2.5954,-2.6043,-2.5934,-2.5659,-2.5733,-2.5712,-2.5616,-2.5637,-2.5637,-2.5578,-2.5486,-2.5207,-2.4885,-2.508,-2.4576,-2.3519,-2.2132,-2.0971,-1.9982,-1.8871,-1.8517,-1.8517,-1.8517,-1.8517,-1.8517,-1.8517,-1.8439,-1.8361,-1.8361,-1.8321,-1.8242,-1.8242,-1.8242,-1.8202,-1.8083,-1.8163,-1.8109,-1.7666,-1.7868,-1.8016,-1.7774,-1.8095,-1.8372,-1.8411,-1.8397,-1.8461,-1.8707,-1.8291,-1.7841,-1.7639,-1.768,-1.7476,-1.6976,-1.671,-1.6497,-1.6436,-1.6088,-1.5824,-1.5647,-1.5614,-1.5619,-1.566,-1.5963,-1.5787,-1.5161,-1.5896,-1.5638,-1.4373,-1.4835,-1.4777,-1.4373,-1.4373,-1.51,-1.6322,-1.6322,-1.699,-1.8084,-1.8084,-1.8084,-1.8061,-1.7886,-1.7622,-1.7347,-1.7128,-1.6777,-1.6388]},{"header":{"parameterUnit":"m.s-1","parameterCategory":1,"la1":30.6,"la2":28.766,"lo1":-90.7593,"lo2":-88.6598,"dy":0.0162,"dx":0.0183,"nx":116,"ny":114,"refTime":"2024-06-23T12:00:00:Z","depth":0,"parameterNumber":3,"parameterNumberName":"V-component_of_WINDS"},"data":[0.0,0.0,0.0,0.0,0.0,0.0,0.0,0.0,0.0,0.0,0.0,0.0,0.0,0.0,0.0,0.0,0.0,0.0,0.0,0.0,0.0,0.0,0.0,0.0,0.0,0.0,0.0,0.0,0.0,0.0,0.0,0.0,0.0,0.0,0.0,0.0,0.0,0.0,0.0,0.0,0.0,0.0,0.0,0.0,0.0,0.0,0.0,0.0,0.0,0.0,0.0,0.0,0.0,0.0,0.0,0.0,0.0,0.0,0.0,0.0,0.0,0.0,0.0,0.0,0.0,0.0,0.0,0.0,0.0,0.0,0.0,0.0,0.0,0.0,0.0,0.0,0.0,0.0,0.0,0.0,0.0,0.0,0.0,0.0,0.0,0.0,0.0,0.0,0.0,0.0,0.0,0.0,0.0,0.0,0.0,0.0,0.0,0.0,0.0,0.0,0.0,0.0,0.0,0.0,0.0,0.0,0.0,0.0,0.0,0.0,0.0,0.0,0.0,0.0,0.0,0.0,0.0,0.0,0.0,0.0,0.0,0.0,0.0,0.0,0.0,0.0,0.0,0.0,0.0,0.0,0.0,0.0,0.0,0.0,0.0,0.0,0.0,0.0,0.0,0.0,0.0,0.0,0.0,0.0,0.0,0.0,0.0,0.0,0.0,0.0,0.0,0.0,0.0,0.0,0.0,0.0,0.0,0.0,0.0,0.0,0.0,0.0,0.0,0.0,0.0,0.0,0.0,0.0,0.0,0.0,0.0,0.0,0.0,0.0,0.0,0.0,0.0,0.0,0.0,0.0,0.0,0.0,0.0,0.0,0.0,0.0,0.0,0.0,0.0,0.0,0.0,0.0,0.0,0.0,0.0,0.0,0.0,0.0,0.0,0.0,0.0,0.0,0.0,0.0,0.0,0.0,0.0,0.0,0.0,0.0,0.0,0.0,0.0,0.0,0.0,0.0,0.0,0.0,0.0,0.0,0.0,0.0,0.0,0.0,0.0,0.0,0.0,0.0,0.0,0.0,0.0,0.0,0.0,0.0,0.0,0.0,0.0,0.0,0.0,0.0,0.0,0.0,0.0,0.0,0.0,0.0,0.0,0.0,0.0,0.0,0.0,0.0,0.0,0.0,0.0,0.0,0.0,0.0,0.0,0.0,0.0,0.0,0.0,0.0,0.0,0.0,0.0,0.0,0.0,0.0,0.0,0.0,0.0,0.0,0.0,0.0,0.0,0.0,0.0,0.0,0.0,0.0,0.0,0.0,0.0,0.0,0.0,0.0,0.0,0.0,0.0,0.0,0.0,0.0,0.0,0.0,0.0,0.0,0.0,0.0,0.0,0.0,0.0,0.0,0.0,0.0,0.0,0.0,0.0,0.0,0.0,0.0,0.0,0.0,0.0,0.0,0.0,0.0,0.0,0.0,0.0,0.0,0.0,0.0,0.0,0.0,0.0,0.0,0.0,0.0,0.0,0.0,0.0,0.0,0.0,0.0,0.0,0.0,0.0,0.0,0.0,0.0,0.0,0.0,0.0,0.0,0.0,0.0,0.0,0.0,0.0,0.0,0.0,0.0,0.0,0.0,0.0,0.0,0.0,0.0,0.0,0.0,0.0,0.0,0.0,0.0,0.0,0.0,0.0,0.0,0.0,0.0,0.0,0.0,0.0,0.0,0.0,0.0,0.0,0.0,0.0,0.0,0.0,0.0,0.0,0.0,0.0,0.0,0.0,0.0,0.0,0.0,0.0,0.0,0.0,0.0,0.0,0.0,0.0,0.0,0.0,0.0,0.0,0.0,0.0,0.0,0.0,0.0,0.0,0.0,0.0,0.0,0.0,0.0,0.0,0.0,0.0,0.0,0.0,0.0,0.0,0.0,0.0,0.0,0.0,0.0,0.0,0.0,0.0,0.0,0.0,0.0,0.0,0.0,0.0,0.0,0.0,0.0,0.0,0.0,0.0,0.0,0.0,0.0,0.0,0.0,0.0,0.0,0.0,0.0,0.0,0.0,0.0,0.0,0.0,0.0,0.0,0.0,0.0,0.0,0.0,0.0,0.0,0.0,0.0,0.0,0.0,0.0,0.0,0.0,0.0,0.0,0.0,0.0,0.0,0.0,0.0,0.0,0.0,0.0,0.0,0.0,0.0,0.0,0.0,0.0,0.0,0.0,0.0,0.0,0.0,0.0,0.0,0.0,0.0,0.0,0.0,0.0,0.0,0.0,0.0,0.0,0.0,0.0,0.0,0.0,0.0,0.0,0.0,0.0,0.0,0.0,0.0,0.0,0.0,0.0,0.0,0.0,0.0,0.0,0.0,0.0,0.0,0.0,0.0,0.0,0.0,0.0,0.0,0.0,0.0,0.0,0.0,0.0,0.0,0.0,0.0,0.0,0.0,0.0,0.0,0.0,0.0,0.0,0.0,0.0,0.0,0.0,0.0,0.0,0.0,0.0,0.0,0.0,0.0,0.0,0.0,0.0,0.0,0.0,0.0,0.0,0.0,0.0,0.0,0.0,0.0,0.0,0.0,0.0,0.0,0.0,0.0,0.0,0.0,0.0,0.0,0.0,0.0,0.0,0.0,0.0,0.0,0.0,0.0,0.0,0.0,0.0,0.0,0.0,0.0,0.0,0.0,0.0,0.0,0.0,0.0,0.0,0.0,0.0,0.0,0.0,0.0,0.0,0.0,0.0,0.0,0.0,0.0,0.0,0.0,0.0,0.0,0.0,0.0,0.0,0.0,0.0,0.0,0.0,0.0,0.0,0.0,0.0,0.0,0.0,0.0,0.0,0.0,0.0,0.0,0.0,0.0,0.0,0.0,0.0,0.0,0.0,0.0,0.0,0.0,0.0,0.0,0.0,0.0,0.0,0.0,0.0,0.0,0.0,0.0,0.0,0.0,0.0,0.0,0.0,0.0,0.0,0.0,0.0,0.0,0.0,0.0,0.0,0.0,0.0,0.0,0.0,0.0,0.0,0.0,0.0,0.0,0.0,0.0,0.0,0.0,0.0,0.0,0.0,0.0,0.0,0.0,0.0,0.0,0.0,0.0,0.0,0.0,0.0,0.0,0.0,0.0,0.0,0.0,0.0,0.0,0.0,0.0,0.0,0.0,0.0,0.0,0.0,0.0,0.0,0.0,0.0,0.0,0.0,0.0,0.0,0.0,0.0,0.0,0.0,0.0,0.0,0.0,0.0,0.0,0.0,0.0,0.0,0.0,0.0,0.0,0.0,0.0,0.0,0.0,0.0,0.0,0.0,0.0,0.0,0.0,0.0,0.0,0.0,0.0,0.0,0.0,0.0,0.0,0.0,0.0,0.0,0.0,0.0,0.0,0.0,0.0,0.0,0.0,0.0,0.0,0.0,0.0,0.0,0.0,0.0,0.0,0.0,0.0,0.0,0.0,0.0,0.0,0.0,0.0,0.0,0.0,0.0,0.0,0.0,0.0,0.0,0.0,0.0,0.0,0.0,0.0,0.0,0.0,0.0,0.0,0.0,0.0,0.0,0.0,0.0,0.0,0.0,0.0,0.0,0.0,0.0,0.0,0.0,0.0,0.0,0.0,0.0,0.0,0.0,0.0,0.0,0.0,0.0,0.0,0.0,0.0,0.0,0.0,0.0,0.0,0.0,0.0,0.0,0.0,0.0,0.0,0.0,0.0,0.0,0.0,0.0,0.0,0.0,0.0,0.0,0.0,0.0,0.0,0.0,0.0,0.0,0.0,0.0,0.0,0.0,0.0,0.0,0.0,0.0,0.0,0.0,0.0,0.0,0.0,0.0,0.0,0.0,0.0,0.0,0.0,0.0,0.0,0.0,0.0,0.0,0.0,0.0,0.0,0.0,0.0,0.0,0.0,0.0,0.0,0.0,0.0,0.0,0.0,0.0,0.0,0.0,0.0,0.0,0.0,0.0,0.0,0.0,0.0,0.0,0.0,0.0,0.0,0.0,0.0,0.0,0.0,0.0,0.0,0.0,0.0,0.0,0.0,0.0,0.0,0.0,0.0,0.0,0.0,0.0,0.0,0.0,0.0,0.0,0.0,0.0,0.0,0.0,0.0,0.0,0.0,0.0,0.0,0.0,0.0,0.0,0.0,0.0,0.0,0.0,0.0,0.0,0.0,0.0,0.0,0.0,0.0,0.0,0.0,0.0,0.0,0.0,0.0,0.0,0.0,0.0,0.0,0.0,0.0,0.0,0.0,0.0,0.0,0.0,0.0,0.0,0.0,0.0,0.0,0.0,0.0,0.0,0.0,0.0,0.0,0.0,0.0,0.0,0.0,0.0,0.0,0.0,0.0,0.0,0.0,0.0,0.0,0.0,0.0,0.0,0.0,0.0,0.0,0.0,0.0,0.0,0.0,0.0,0.0,0.0,0.0,0.0,0.0,0.0,0.0,0.0,0.0,0.0,0.0,0.0,0.0,0.0,0.0,0.0,0.0,0.0,0.0,0.0,0.0,0.0,0.0,0.0,0.0,0.0,0.0,0.0,0.0,0.0,0.0,0.0,0.0,0.0,0.0,0.0,0.0,0.0,0.0,0.0,0.0,0.0,0.0,0.0,0.0,0.0,0.0,0.0,0.0,0.0,0.0,0.0,0.0,0.0,0.0,0.0,0.0,0.0,0.0,0.0,0.0,0.0,0.0,0.0,0.0,0.0,0.0,0.0,0.0,0.0,0.0,0.0,0.0,0.0,0.0,0.0,0.0,0.0,0.0,0.0,0.0,0.0,0.0,0.0,0.0,0.0,0.0,0.0,0.0,0.0,0.0,0.0,0.0,0.0,0.0,0.0,0.0,0.0,0.0,0.0,0.0,0.0,0.0,0.0,0.0,0.0,0.0,0.0,0.0,0.0,0.0,0.0,0.0,0.0,0.0,0.0,0.0,0.0,0.0,0.0,0.0,0.0,0.0,0.0,0.0,0.0,0.0,0.0,0.0,0.0,0.0,0.0,0.0,0.0,0.0,0.0,0.0,0.0,0.0,0.0,0.0,0.0,0.0,0.0,0.0,0.0,0.0,0.0,0.0,0.0,0.0,0.0,0.0,0.0,0.0,0.0,0.0,0.0,0.0,0.0,0.0,0.0,0.0,0.0,0.0,0.0,0.0,0.0,0.0,0.0,0.0,0.0,0.0,0.0,0.0,0.0,0.0,0.0,0.0,0.0,0.0,0.0,0.0,0.0,0.0,0.0,0.0,0.0,0.0,0.0,0.0,0.0,0.0,0.0,0.0,0.0,0.0,0.0,0.0,0.0,0.0,0.0,0.0,0.0,0.0,0.0,0.0,0.0,0.0,0.0,0.0,0.0,0.0,0.0,0.0,0.0,0.0,0.0,0.0,0.0,0.0,0.0,0.0,0.0,0.0,0.0,0.0,0.0,0.0,0.0,0.0,0.0,0.0,0.0,0.0,0.0,0.0,0.0,0.0,0.0,0.0,0.0,0.0,0.0,0.0,0.0,0.0,0.0,0.0,0.0,0.0,0.0,0.0,0.0,0.0,0.0,0.0,0.0,0.0,0.0,0.0,0.0,0.0,0.0,0.0,0.0,0.0,0.0,0.0,0.0,0.0,0.0,0.0,0.0,0.0,0.0,0.0,0.0,0.0,0.0,0.0,0.0,0.0,0.0,0.0,0.0,0.0,0.0,0.0,0.0,0.0,0.0,0.0,0.0,0.0,0.0,0.0,0.0,0.0,0.0,0.0,0.0,0.0,0.0,0.0,0.0,0.0,0.0,0.0,0.0,0.0,0.0,0.0,0.0,0.0,0.0,0.0,0.0,0.0,0.0,0.0,0.0,0.0,0.0,0.0,0.0,0.0,0.0,0.0,0.0,0.0,0.0,0.0,0.0,0.0,0.0,0.0,0.0,0.0,0.0,0.0,0.0,0.0,0.0,0.0,0.0,0.0,0.0,0.0,0.0,0.0,0.0,0.0,0.0,0.0,0.0,0.0,0.0,0.0,0.0,0.0,0.0,0.0,0.0,0.0,0.0,0.0,0.0,0.0,0.0,0.0,0.0,0.0,0.0,0.0,0.0,0.0,0.0,0.0,0.0,0.0,0.0,0.0,0.0,0.0,0.0,0.0,0.0,0.0,0.0,0.0,0.0,0.0,0.0,0.0,0.0,-2.1787,-2.166,0.0,0.0,0.0,0.0,0.0,0.0,0.0,0.0,0.0,0.0,0.0,0.0,0.0,0.0,0.0,0.0,0.0,0.0,0.0,0.0,0.0,0.0,0.0,-1.342,-1.3432,-1.3433,-1.2634,-1.2213,-1.2488,0.0,0.0,0.0,0.0,0.0,-1.1579,-1.1488,-1.1351,-1.1205,-1.0658,-1.1192,-1.2806,-1.3388,-1.4192,-1.5092,0.0,0.0,0.0,0.0,0.0,0.0,0.0,0.0,0.0,0.0,0.0,0.0,0.0,0.0,0.0,0.0,0.0,0.0,0.0,0.0,0.0,0.0,0.0,0.0,0.0,0.0,0.0,0.0,0.0,0.0,0.0,0.0,0.0,0.0,0.0,0.0,0.0,0.0,0.0,0.0,0.0,0.0,0.0,0.0,0.0,0.0,0.0,0.0,0.0,0.0,0.0,0.0,0.0,0.0,0.0,0.0,0.0,0.0,0.0,0.0,0.0,0.0,0.0,0.0,0.0,0.0,0.0,0.0,0.0,0.0,-2.2472,-2.2113,0.0,0.0,0.0,0.0,0.0,0.0,0.0,0.0,0.0,0.0,0.0,0.0,0.0,0.0,0.0,0.0,0.0,0.0,0.0,0.0,0.0,-1.185,-1.31,-1.2767,-1.2477,-1.2519,-1.2003,-1.164,-1.1714,-1.2184,0.0,0.0,0.0,-1.2464,-1.1789,-1.178,-1.1685,-1.1542,-1.114,-1.1559,-1.2658,-1.291,-1.3575,-1.4468,-1.456,0.0,0.0,0.0,0.0,0.0,0.0,0.0,0.0,0.0,0.0,0.0,0.0,0.0,0.0,0.0,0.0,0.0,0.0,0.0,0.0,0.0,0.0,0.0,0.0,0.0,0.0,0.0,0.0,0.0,0.0,0.0,0.0,0.0,0.0,0.0,0.0,0.0,0.0,0.0,0.0,0.0,0.0,0.0,0.0,0.0,0.0,0.0,0.0,0.0,0.0,0.0,0.0,0.0,0.0,0.0,0.0,0.0,0.0,0.0,0.0,0.0,0.0,0.0,-2.3691,-2.3732,-2.4358,-2.3639,-2.3509,-2.3714,-2.3046,-2.2651,-2.2589,-2.4378,0.0,0.0,0.0,0.0,0.0,0.0,0.0,0.0,0.0,0.0,0.0,0.0,0.0,0.0,0.0,0.0,0.0,0.0,0.0,-1.1138,-1.2023,-1.2047,-1.1954,-1.1909,-1.1846,-1.1912,-1.2171,-1.2197,0.0,0.0,-1.2147,-1.2147,-1.2052,-1.2052,-1.1895,-1.1648,-1.1902,-1.1733,-1.1207,-1.2665,-1.3432,-1.363,-1.4575,-1.4994,-1.4915,0.0,0.0,0.0,0.0,0.0,0.0,0.0,0.0,0.0,0.0,0.0,0.0,0.0,0.0,0.0,0.0,0.0,0.0,0.0,0.0,0.0,0.0,0.0,0.0,0.0,0.0,0.0,0.0,0.0,0.0,0.0,0.0,0.0,0.0,0.0,0.0,0.0,0.0,0.0,0.0,0.0,-1.6156,-1.5382,0.0,0.0,0.0,0.0,0.0,0.0,0.0,0.0,0.0,0.0,0.0,0.0,0.0,-2.3763,-2.4279,-2.4217,-2.4279,-2.4444,-2.433,-2.4159,-2.3927,-2.378,-2.3617,-2.358,-2.3816,0.0,-2.3831,-2.6341,0.0,0.0,0.0,0.0,0.0,0.0,0.0,0.0,0.0,0.0,0.0,0.0,0.0,0.0,0.0,0.0,0.0,0.0,0.0,0.0,0.0,-1.1603,-1.1514,-1.1425,-1.1196,-1.1309,-1.19,-1.1819,-1.1769,-1.1877,-1.2241,-1.2268,-1.1886,-1.1992,-1.1849,-1.1477,-1.1601,-1.1553,-1.1278,-1.2207,-1.2751,-1.2925,-1.4005,-1.4654,-1.4903,-1.496,0.0,0.0,0.0,0.0,0.0,0.0,0.0,0.0,0.0,0.0,0.0,0.0,0.0,0.0,0.0,0.0,0.0,0.0,0.0,0.0,0.0,0.0,0.0,0.0,0.0,0.0,0.0,0.0,0.0,0.0,0.0,0.0,0.0,0.0,0.0,0.0,0.0,0.0,0.0,-1.7372,-1.712,-1.5333,-1.5724,-1.5479,0.0,0.0,0.0,0.0,0.0,0.0,0.0,0.0,0.0,-2.2631,-2.3256,-2.3826,-2.4444,-2.454,-2.4674,-2.4923,-2.4492,-2.4196,-2.4024,-2.3841,-2.3754,-2.3667,-2.4196,-2.468,-2.5221,-2.7186,-2.7801,-2.76,0.0,0.0,0.0,0.0,-2.9555,-2.9849,0.0,0.0,0.0,0.0,0.0,0.0,0.0,0.0,0.0,0.0,0.0,0.0,-1.1407,-1.1256,-1.1069,-1.0962,-1.0668,-1.0733,-1.1301,-1.1268,-1.1314,-1.151,-1.2009,-1.2043,-1.1676,-1.1757,-1.161,-1.1326,-1.1123,-1.1066,-1.1161,-1.1731,-1.2093,-1.2329,-1.3466,-1.4249,-1.4733,-1.5005,-1.5668,0.0,0.0,0.0,0.0,0.0,0.0,0.0,0.0,0.0,0.0,0.0,0.0,0.0,0.0,0.0,0.0,0.0,0.0,0.0,0.0,0.0,0.0,0.0,0.0,0.0,0.0,0.0,0.0,0.0,0.0,0.0,0.0,0.0,0.0,0.0,0.0,0.0,0.0,-1.7721,-1.7665,-1.5824,-1.6258,-1.5938,0.0,0.0,0.0,0.0,0.0,0.0,-1.8558,-1.9335,-2.0695,-2.2763,-2.3298,-2.3857,-2.4444,-2.4454,-2.4629,-2.4959,-2.4359,-2.411,-2.411,-2.3927,-2.3841,-2.3927,-2.4282,-2.5179,-2.6543,-2.7824,-2.8542,-2.9126,-3.0659,-3.1117,-3.0986,-3.0986,-3.0986,-3.0986,0.0,0.0,0.0,0.0,0.0,0.0,0.0,0.0,0.0,0.0,0.0,-1.0923,-1.1277,-1.0949,-1.0691,-1.0535,-1.0525,-1.0444,-1.0371,-1.0587,-1.0802,-1.104,-1.0997,-1.1172,-1.1595,-1.1327,-1.1192,-1.1326,-1.0655,-1.0278,-1.0197,-1.1157,-1.162,-1.1707,-1.3281,-1.4113,-1.4268,-1.4868,-1.5724,-1.6748,0.0,0.0,0.0,0.0,0.0,0.0,0.0,0.0,0.0,0.0,0.0,0.0,0.0,0.0,0.0,0.0,0.0,0.0,0.0,0.0,0.0,0.0,0.0,0.0,0.0,0.0,0.0,0.0,0.0,0.0,0.0,0.0,0.0,0.0,0.0,0.0,0.0,0.0,0.0,-1.7539,-1.5832,0.0,0.0,0.0,0.0,-1.5666,-1.8437,-2.0119,-1.9982,-2.1816,-2.3146,-2.3826,-2.424,-2.4498,-2.454,-2.4292,-2.4217,-2.4237,-2.3947,-2.3841,-2.3841,-2.3841,-2.3937,-2.4206,-2.4206,-2.5432,-2.751,-2.8491,-2.9192,-2.9793,-3.1241,-3.147,-3.0986,-3.0986,-3.0986,-3.1061,0.0,0.0,0.0,-1.2007,-1.1388,-1.0949,-1.0774,-1.0475,-1.0619,-1.1595,-1.1355,-1.1042,-1.0811,-1.0378,-1.0067,-0.9935,-0.9734,-0.9836,-1.0391,-1.0599,-1.0731,-1.081,-1.1358,-1.1631,-1.1477,-1.1164,-1.0856,-1.0508,-1.0173,-0.9834,-0.9481,-1.0074,-1.0466,-1.0692,-1.1902,-1.2713,-1.3275,-1.4538,-1.5993,-1.7432,-1.7831,-1.8677,0.0,0.0,0.0,0.0,0.0,0.0,0.0,0.0,0.0,0.0,0.0,0.0,0.0,0.0,0.0,0.0,0.0,0.0,0.0,0.0,0.0,0.0,0.0,0.0,0.0,0.0,0.0,0.0,0.0,0.0,0.0,0.0,0.0,0.0,0.0,0.0,0.0,-1.9097,-1.7873,0.0,-1.6561,-1.6378,-1.6477,-1.6941,-1.849,-1.9878,-2.1211,-2.2168,-2.3037,-2.3791,-2.3932,-2.411,-2.4292,-2.4368,-2.4368,-2.4368,-2.4282,-2.4196,-2.4024,-2.4024,-2.412,-2.4292,-2.5105,-2.6318,-2.7787,-2.8778,-2.9724,-3.0394,-3.1057,-3.1169,-3.0986,-3.0986,-3.1061,-3.1198,-1.2667,-1.2679,0.0,-1.1122,-1.0716,-1.0466,-1.022,-1.0293,-1.066,-1.1363,-1.1198,-1.076,-1.011,-0.9506,-0.9118,-0.8918,-0.8832,-0.8998,-0.9492,-0.993,-1.0254,-1.0484,-1.1336,-1.1576,-1.1104,-1.0739,-1.0335,-0.9946,-0.9683,-0.9479,-0.9349,-0.9628,-0.9997,-1.0438,-1.1423,-1.22,-1.2821,-1.4255,-1.5776,-1.726,-1.8266,-1.9042,-1.9579,0.0,0.0,0.0,0.0,0.0,0.0,0.0,0.0,0.0,0.0,0.0,0.0,0.0,0.0,0.0,0.0,0.0,0.0,0.0,0.0,0.0,0.0,0.0,0.0,0.0,0.0,0.0,0.0,0.0,0.0,0.0,0.0,0.0,0.0,-1.9687,-1.9866,-1.9703,-1.8789,-1.8029,-1.7532,-1.697,-1.7077,-1.7814,-1.9067,-2.0474,-2.1891,-2.2514,-2.3193,-2.3974,-2.4062,-2.4159,-2.4518,-2.4518,-2.4522,-2.454,-2.4368,-2.4196,-2.4206,-2.4206,-2.4206,-2.4368,-2.5589,-2.6719,-2.7763,-2.8966,-2.9947,-3.0698,-3.0911,-3.0986,-3.0986,-3.1061,-3.1198,-3.1272,-1.1489,-1.1421,-1.1155,-1.0335,-0.9983,-0.9978,-1.0444,-1.0361,-1.0508,-1.1307,-1.0814,-1.0079,-0.9223,-0.8432,-0.7862,-0.7539,-0.7908,-0.8011,-0.7635,-0.8617,-0.9429,-1.0001,-1.0742,-1.0946,-1.0485,-1.0056,-0.9744,-0.9598,-0.9117,-0.922,-0.98,-0.9864,-1.0273,-1.104,-1.1931,-1.2591,-1.305,-1.4,-1.5051,-1.6243,-1.8749,-1.8893,-1.7899,0.0,0.0,0.0,0.0,0.0,0.0,0.0,0.0,0.0,0.0,0.0,0.0,0.0,0.0,0.0,0.0,0.0,0.0,0.0,0.0,0.0,0.0,0.0,0.0,0.0,0.0,0.0,0.0,0.0,0.0,0.0,0.0,0.0,-1.9481,-2.0216,-2.0409,-1.9307,-1.8423,-1.7887,-1.8012,-1.8224,-1.8279,-1.8369,-2.0553,-2.2031,-2.2031,-2.3222,-2.4062,-2.4494,-2.4525,-2.4702,-2.5233,-2.4781,-2.4557,-2.454,-2.4013,-2.3927,-2.4206,-2.4206,-2.4292,-2.454,-2.5673,-2.6648,-2.7626,-2.89,-2.9947,-3.0773,-3.0911,-3.0986,-3.1061,-3.1198,-3.1347,-3.136,-1.1285,-1.1192,-1.0897,-1.0198,-1.0247,-1.0416,-1.049,-1.0697,-1.1069,-1.1684,-1.0895,-1.0123,-0.9798,-0.8576,-0.7765,-0.7709,-0.7541,-0.7589,-0.8011,-0.8606,-0.9334,-1.0337,-1.0473,-1.0487,-1.0383,-0.9969,-0.9604,-0.9297,-0.8945,-0.9054,-0.9591,-0.9417,-0.9904,-1.1019,-1.1383,-1.2076,-1.3081,-1.4249,-1.5202,-1.6118,-1.8474,-1.9682,-2.02,0.0,0.0,0.0,0.0,0.0,0.0,0.0,0.0,0.0,0.0,0.0,0.0,0.0,0.0,0.0,0.0,0.0,0.0,0.0,0.0,0.0,0.0,0.0,0.0,0.0,0.0,0.0,0.0,0.0,0.0,0.0,-2.0256,-2.1026,-2.1428,-2.1199,-2.1222,-2.168,-2.0071,-1.8998,-1.9381,-1.8458,-1.8478,-1.9898,-2.0703,-2.1845,-2.3202,-2.3967,-2.4462,-2.4751,-2.4896,-2.5176,-2.5487,-2.5388,-2.5159,-2.4786,-2.469,-2.4529,-2.4454,-2.4454,-2.4454,-2.4625,-2.6472,-2.7522,-2.7844,-2.9768,-3.081,-3.1123,-3.1198,-3.1198,-3.1272,-3.1434,-3.1522,-3.1522,-1.1215,-1.1155,-1.099,-1.0612,-1.0592,-1.0718,-1.095,-1.0945,-1.1033,-1.1365,-1.058,-0.9817,-0.9301,-0.8131,-0.7331,-0.7248,-0.7359,-0.7484,-0.7569,-0.8429,-0.9438,-1.0554,-1.0294,-1.0083,-1.003,-0.9577,-0.9188,-0.8815,-0.9006,-0.929,-0.9744,-0.9725,-1.0378,-1.1557,-1.1385,-1.201,-1.3293,-1.4111,-1.4928,-1.5765,-1.782,-1.914,-2.0027,-2.1546,-2.2064,-2.205,-2.241,-2.2315,-2.1894,-2.1069,0.0,0.0,0.0,0.0,0.0,0.0,0.0,0.0,0.0,0.0,0.0,0.0,0.0,0.0,0.0,0.0,0.0,0.0,0.0,0.0,0.0,0.0,0.0,0.0,-2.0429,-2.1177,-2.2166,-2.1691,-2.1282,-2.1443,-2.0138,-1.9418,-1.9555,-1.898,-1.9247,-2.0782,-2.1471,-2.2454,-2.3927,-2.4527,-2.4941,-2.5125,-2.5473,-2.5675,-2.5691,-2.5691,-2.5445,-2.4861,-2.4861,-2.4786,-2.454,-2.454,-2.454,-2.4615,-2.6871,-2.7832,-2.7992,-3.0241,-3.1198,-3.1272,0.0,0.0,0.0,0.0,-3.1757,-3.1683,-1.1414,-1.1452,-1.1479,-1.1429,-1.1126,-1.1052,-1.1545,-1.1115,-1.0752,-1.0734,-1.0184,-0.9399,-0.8392,-0.7463,-0.6831,-0.6517,-0.7329,-0.7637,-0.7114,-0.8483,-0.9775,-1.068,-1.0284,-0.9935,-0.9791,-0.9351,-0.8932,-0.8578,-0.9328,-0.9896,-1.0235,-1.0481,-1.1225,-1.2259,-1.1682,-1.2246,-1.3651,-1.3831,-1.4472,-1.5462,-1.6934,-1.7852,-1.8486,-2.0454,-2.1064,-2.1021,-2.2085,-2.2547,-2.2469,-2.1408,0.0,0.0,0.0,0.0,0.0,0.0,0.0,0.0,0.0,0.0,0.0,0.0,0.0,0.0,0.0,0.0,0.0,0.0,0.0,0.0,0.0,0.0,0.0,0.0,-2.0667,-2.0951,-2.2103,-2.1665,-2.0898,-1.9991,-1.9589,-1.9295,-1.9214,-1.9513,-2.0133,-2.115,-2.2277,-2.326,-2.4206,-2.4918,0.0,0.0,0.0,-2.6218,-2.6017,-2.6007,-2.5628,-2.4861,-2.4861,-2.47,-2.454,-2.454,-2.454,-2.4615,-2.6871,-2.7832,-2.8004,-3.0393,-3.1347,-3.1347,-3.1347,-3.1508,-3.1683,-3.189,-3.189,-3.189,-1.2732,-1.2694,-1.2577,-1.2237,-1.2101,-1.1976,-1.1664,-1.1319,-1.1058,-1.0957,-1.0231,-0.9439,-0.875,-0.7804,-0.7038,-0.6543,-0.7159,-0.808,0.0,0.0,-1.085,-1.1016,-1.0856,-1.0809,-1.0887,-1.0592,-1.0397,-1.0308,-1.0329,-1.0551,-1.091,-1.0818,-1.1068,-1.1584,-1.1572,-1.2393,-1.385,-1.3998,-1.4886,-1.6207,-1.654,-1.7252,-1.8362,-2.0239,-2.1423,-2.2248,-2.3581,-2.3564,-2.3013,-2.3666,-2.2627,-2.1051,-2.1049,0.0,0.0,0.0,0.0,0.0,0.0,0.0,0.0,0.0,0.0,0.0,0.0,0.0,0.0,0.0,0.0,0.0,0.0,0.0,0.0,-2.1493,-2.103,-2.0791,-2.1456,-2.0505,-1.9943,-2.0671,-2.017,-1.9504,-1.8972,-1.8635,-1.9163,-2.0962,-2.1391,-2.2463,-2.4368,-2.5238,-2.6083,-2.6694,-2.6972,-2.7003,-2.6793,-2.6436,-2.5795,-2.4861,-2.47,0.0,-2.454,-2.454,-2.454,-2.4615,-2.7035,-2.8004,-2.8243,-3.0558,-3.1669,-3.1817,-3.1817,-3.189,-3.2109,-3.2109,-3.2036,-3.189,-1.407,-1.3543,-1.3011,-1.3034,-1.2907,-1.2749,-1.2597,-1.2241,-1.1744,-1.1043,-1.0493,-0.9866,-0.9051,-0.8271,-0.7644,-0.7295,-0.791,0.0,0.0,-1.1175,-1.1179,-1.1302,-1.0956,-1.0797,-1.0833,-1.074,-1.0612,-1.047,-1.0851,-1.0945,-1.0743,-1.0879,-1.1345,-1.2099,-1.2027,-1.2983,-1.466,-1.4785,-1.5529,-1.6623,-1.6738,-1.7215,-1.799,-1.9192,-2.0611,-2.2056,-2.2768,-2.3367,-2.386,-2.3897,-2.3868,-2.3588,-2.2461,-2.1866,-2.1568,0.0,0.0,0.0,0.0,0.0,0.0,0.0,0.0,0.0,0.0,0.0,0.0,0.0,0.0,-1.9524,-2.0039,0.0,-2.1032,-2.1974,-2.1061,-2.0436,-2.1028,-1.9461,-1.8641,-1.9747,-1.9374,-1.8962,-1.8696,-1.8896,-1.9687,-2.1382,-2.1994,-2.3057,-2.4775,-2.5543,-2.6104,-2.6583,-2.6697,-2.6718,-2.6425,-2.6114,-2.5564,-2.47,-2.47,-2.4615,-2.454,-2.47,-2.5105,-2.5579,-2.751,-2.8639,-2.9201,-3.1022,-3.189,-3.2036,-3.2036,-3.2109,-3.2182,-3.2182,-3.2109,-3.2036,-1.5077,-1.4213,-1.3502,-1.3891,-1.3618,-1.3427,-1.3604,-1.3094,-1.2372,-1.1327,-1.0967,-1.0461,-0.9489,-0.898,-0.8673,-0.8624,-0.9193,0.0,0.0,-1.1815,-1.1438,-1.1797,-1.1172,-1.0862,-1.0985,-1.1056,-1.0968,-1.0694,-1.1432,-1.1398,-1.0709,-1.1222,-1.1906,-1.2753,-1.2713,-1.3742,-1.5467,-1.5557,-1.6101,-1.6959,-1.7322,-1.7679,-1.8013,-1.8607,-1.9857,-2.1349,-2.1644,-2.2863,-2.4252,-2.3676,-2.4638,-2.5692,-2.3616,-2.3024,-2.2977,-2.2189,-2.1515,0.0,0.0,0.0,0.0,0.0,0.0,0.0,0.0,-1.9565,-1.9598,-1.9332,-1.9847,-2.0421,-2.0707,-2.1415,-2.1985,-2.215,-2.0994,-2.0146,-2.0372,-1.8658,-1.7621,-1.83,-1.8298,-1.8257,-1.8411,-1.9063,-2.0124,-2.1728,-2.26,-2.3577,-2.502,-2.5561,-2.5897,-2.6188,-2.6204,-2.6124,-2.5841,-2.5664,-2.5159,-2.454,-2.4786,-2.4871,-2.4615,-2.5126,-2.5757,-2.6603,-2.8299,-2.9576,-3.0532,-3.1569,-3.2036,-3.2182,-3.2182,-3.2182,-3.2182,-3.2182,-3.2182,-3.2109,-1.5163,-1.4988,-1.4767,-1.4774,-1.4324,-1.4017,-1.4019,-1.3129,-1.2371,-1.2259,-1.169,-1.1081,-1.0412,-1.0234,-1.0358,-1.0786,-1.1021,0.0,-1.306,-1.2525,-1.2414,-1.297,-1.2256,-1.2152,-1.281,-1.2822,-1.282,-1.2861,-1.2539,-1.219,-1.1845,-1.2416,-1.2649,-1.2565,-1.3513,-1.4574,-1.5668,-1.5636,-1.6273,-1.741,-1.8224,-1.8801,-1.9277,-2.0072,-2.0512,-2.0854,-2.2193,-2.2799,-2.3196,-2.4402,-2.3876,-2.2726,-2.2727,-2.2101,-2.1408,-2.1459,-2.142,-2.146,-2.201,-2.1753,-2.1164,-2.0472,-1.9806,-1.9376,0.0,-1.9356,-1.9425,-2.0618,-2.0997,-2.13,-2.197,-2.2682,-2.2848,-2.1889,-2.1192,-2.0301,-1.9045,-1.8076,-1.7439,-1.7132,-1.7634,-1.7993,-1.8141,-1.7994,-1.8888,-2.1203,-2.1471,-2.2532,-2.4765,-2.5398,-2.576,-2.59,-2.5936,-2.5868,-2.5637,-2.5342,-2.4995,-2.454,-2.4956,-2.5115,-2.5115,-2.5633,-2.6268,-2.7105,-2.9241,-3.0833,-3.1936,-3.2096,-3.2182,-3.2182,-3.2182,-3.2182,-3.2182,-3.2182,-3.2109,-3.189,-1.5192,-1.5041,-1.4935,-1.4887,-1.504,-1.5081,-1.4822,-1.4472,-1.3808,-1.266,-1.2367,-1.1822,-1.0591,-1.0717,-1.1149,-1.1743,-1.2157,-1.2646,-1.3272,-1.3402,-1.3465,-1.3498,-1.2615,-1.239,-1.2978,-1.2489,-1.2242,-1.2275,-1.2723,-1.2775,-1.2439,-1.3271,-1.3835,-1.4154,-1.4723,-1.5452,-1.6333,-1.7118,-1.7754,-1.832,-1.9539,-2.0175,-2.0428,-2.1316,-2.1529,-2.1429,-2.2087,-2.2958,0.0,0.0,-2.396,-2.3089,-2.2579,-2.1665,-2.0724,-2.0574,-2.0471,-2.0545,-2.1058,-2.1212,-2.1006,-2.0141,-2.0059,-2.0075,-1.9595,-1.9577,-1.9842,-2.0474,-2.0976,-2.1479,-2.206,-2.2767,-2.2882,-2.1845,-2.1043,-2.0004,-1.863,-1.7654,-1.7024,-1.6884,-1.7431,-1.7791,-1.7663,-1.7417,-1.8458,-2.1204,-2.1291,-2.2169,-2.4556,-2.4998,-2.5326,-2.5669,-2.5506,-2.5741,-2.6184,-2.5647,-2.5317,-2.5115,-2.52,-2.52,-2.52,-2.5728,-2.6846,-2.8548,-3.0519,-3.1703,-3.2182,-3.2182,-3.2182,-3.2182,-3.2182,-3.2182,-3.2182,-3.2182,-3.2036,-3.189,-1.5192,-1.5086,-1.4963,-1.4902,-1.5425,-1.5712,-1.5286,-1.5397,-1.5043,-1.3623,-1.3669,-1.3282,-1.192,-1.2163,-1.2583,-1.2833,-1.3289,-1.3637,-1.3842,-1.4119,-1.4226,-1.4109,-1.3288,-1.2955,-1.33,-1.2715,-1.2327,-1.2158,-1.2813,-1.3099,-1.2987,-1.3875,-1.4869,-1.5895,-1.6338,-1.702,-1.793,-1.8924,-1.9373,-1.9539,-2.0866,-2.1411,-2.1539,-2.2431,-2.2629,-2.2346,-2.2118,-2.2705,0.0,0.0,-2.3144,-2.2807,-2.179,-2.0922,-2.0237,-2.0026,-2.005,-2.0226,-2.0438,-2.0613,-2.0597,-1.9846,-2.0048,-2.0206,-1.9584,-1.9809,-2.0165,-2.016,-2.084,-2.1562,-2.1677,-2.2288,-2.2339,-2.112,-2.0343,-1.9413,-1.8149,-1.7286,-1.6857,-1.7046,-1.7391,-1.7668,-1.7684,-1.7513,-1.8419,-2.0956,-2.1218,-2.2074,-2.4106,-2.4682,-2.5115,-2.5454,-2.5285,-2.5541,-2.6248,-2.571,-2.5454,-2.5454,-2.5369,-2.5369,-2.5464,-2.6445,-2.7799,-2.9524,-3.132,-3.2182,-3.2182,-3.2109,-3.2182,-3.2182,-3.2182,-3.2182,-3.2169,-3.2241,-3.2169,-3.1963,-1.5222,-1.5192,-1.5117,-1.4839,-1.5346,-1.5608,-1.5096,-1.5382,-1.5651,-1.5623,-1.5882,-1.588,-1.5223,-1.5269,-1.5147,-1.4592,-1.4603,-1.4727,-1.4937,-1.4472,-1.4486,-1.5123,-1.4628,-1.4345,-1.4347,-1.4399,-1.4112,-1.354,-1.3049,-1.3127,-1.3665,-1.4311,-1.558,-1.7378,-1.8438,-1.9589,-2.0756,-2.0749,-2.0856,-2.1095,-2.2001,-2.2443,-2.2648,-2.3449,-2.3714,-2.3512,-2.2478,0.0,0.0,-2.0835,-2.0657,-2.0586,-1.9881,-1.9707,0.0,-2.0027,-2.0679,-2.1213,-2.0648,-2.0208,-1.9882,-1.9656,-1.9244,-1.8967,-1.9403,-1.9849,-2.0177,-2.0049,-2.0949,-2.1539,-2.0807,-2.1263,-2.1217,-1.9358,-1.9107,-1.8709,-1.7294,-1.7131,-1.7187,-1.7552,-1.7447,-1.7592,-1.8354,-1.8481,-1.8964,-2.0232,-2.1203,-2.2171,-2.3414,-2.4573,-2.52,-2.52,-2.52,-2.52,-2.5221,-2.52,-2.52,-2.52,-2.5633,-2.5895,-2.5979,-2.8267,-2.9369,-2.9524,-3.1185,-3.2036,-3.2182,-3.1963,-3.2036,-3.2182,-3.2182,-3.2182,-3.2255,-3.2359,-3.23,-3.2182,-1.5088,-1.5398,-1.5602,-1.5412,-1.5581,-1.5684,-1.5556,-1.5693,-1.56,-1.4989,-1.4952,0.0,0.0,0.0,0.0,0.0,-1.5091,-1.5271,-1.5061,-1.5357,-1.5679,-1.5976,-1.5228,-1.4755,-1.4616,-1.4406,-1.401,-1.3398,-1.4381,-1.5009,-1.5311,-1.6453,-1.7365,-1.8013,-1.8467,-1.9152,-2.0026,-2.0802,-2.1095,-2.1184,-2.2795,-2.3168,-2.2805,-2.3425,-2.3432,-2.2975,0.0,0.0,0.0,-2.1008,-2.0279,-1.9774,-1.993,-1.9462,-1.8956,-1.9587,-2.0112,-2.0426,-2.022,-1.9959,-1.9735,-1.9652,-1.9415,-1.9311,-1.9608,-1.9632,-1.9748,-2.018,-2.055,-2.0641,-2.0355,-2.0632,-2.0445,-1.9012,-1.8793,-1.8503,-1.7432,-1.7221,-1.7187,-1.7552,-1.7819,-1.811,-1.8555,-1.8306,-1.8653,-2.0041,-2.1186,-2.2217,-2.3168,-2.4682,-2.5408,-2.5415,-2.5554,-2.5801,-2.6135,-2.5968,-2.5884,-2.5884,-2.5895,-2.5895,-2.5979,-2.8164,-2.9164,-2.9254,-3.1084,-3.2036,-3.2182,-3.1963,-3.2096,-3.2359,-3.2359,-3.2431,-3.2574,-3.2561,-3.2561,-3.2503,-1.5281,-1.5584,-1.5839,-1.5983,-1.6025,0.0,0.0,0.0,0.0,0.0,0.0,0.0,0.0,0.0,0.0,0.0,0.0,-1.5824,-1.5607,-1.609,-1.6448,-1.6623,-1.6149,-1.5822,-1.5671,-1.535,-1.4972,-1.4557,-1.5524,-1.6164,-1.6471,-1.748,-1.8313,-1.8995,-1.9377,-1.9989,-2.0836,-2.1605,-2.2023,-2.2235,-2.3211,-2.347,-2.3303,-2.3473,-2.3346,0.0,0.0,0.0,0.0,-2.0767,-1.986,-1.9293,-1.9813,-1.9377,-1.8789,-1.9313,-1.9531,-1.9531,-1.9262,-1.9277,-1.9284,-1.8703,-1.8754,-1.8997,-1.9225,-1.9053,-1.9095,-2.0087,-1.9871,-1.9554,-1.9412,-1.948,-1.925,-1.8293,-1.829,-1.8135,-1.7577,-1.7465,-1.7565,-1.7891,-1.8161,-1.8417,-1.8815,-1.8466,-1.8596,-1.9711,-2.1195,-2.2227,-2.2837,-2.4682,-2.567,-2.5601,-2.5826,-2.6063,-2.6313,-2.6157,-2.6063,-2.6063,-2.599,-2.5895,-2.5979,-2.8004,-2.8929,-2.9008,-3.0846,-3.1817,-3.1963,-3.189,-3.2096,-3.2359,-3.2489,-3.2561,-3.2704,-3.2775,-3.2846,-3.286,-1.5707,-1.5811,-1.5969,0.0,0.0,0.0,0.0,0.0,0.0,0.0,0.0,0.0,0.0,0.0,0.0,0.0,0.0,0.0,-1.6501,-1.6617,0.0,-1.6998,-1.7362,-1.7512,-1.7432,-1.7151,-1.6997,-1.6918,-1.6569,-1.6677,-1.7304,-1.7541,-1.8586,-2.0315,-2.1043,-2.2008,-2.31,-2.3102,-2.351,-2.4063,-2.3272,-2.3344,-2.3926,-2.3577,0.0,0.0,0.0,0.0,0.0,-2.0118,-1.9404,-1.9096,-1.9391,-1.9356,-1.9167,-1.9123,-1.8968,-1.8647,-1.7862,-1.8218,-1.8482,-1.7049,-1.7404,-1.8139,-1.8294,-1.8153,-1.8319,-1.9711,-1.9137,-1.8302,-1.8094,-1.7954,-1.7729,-1.7322,-1.7552,-1.7769,-1.773,-1.787,-1.8141,-1.8443,-1.8432,-1.8625,-1.9157,-1.8956,-1.8872,-1.9163,-2.1114,-2.2347,-2.2416,-2.4553,-2.5812,-2.5895,-2.5895,-2.5895,-2.5895,-2.5895,-2.5895,-2.5895,-2.5895,-2.5895,-2.5979,-2.7855,-2.8706,-2.8863,-3.0545,-3.1434,-3.1669,-3.1817,-3.2036,-3.2241,-3.2561,-3.2704,-3.2775,-3.2917,-3.3157,-3.3241,0.0,0.0,0.0,0.0,0.0,0.0,0.0,0.0,0.0,0.0,0.0,0.0,0.0,0.0,0.0,0.0,0.0,0.0,-1.6409,-1.6607,0.0,0.0,0.0,-1.8126,-1.785,-1.8166,0.0,0.0,0.0,-1.9204,-2.0091,-1.9846,-2.029,-2.1295,-2.1058,-2.175,-2.3102,-2.305,-2.3143,-2.3327,0.0,-2.3103,-2.2112,0.0,0.0,0.0,0.0,0.0,0.0,-2.0145,-1.9841,-1.9386,-1.8567,-1.8394,-1.8422,-1.8238,-1.7925,-1.7584,-1.7267,-1.735,-1.7374,-1.6642,-1.7152,-1.7803,-1.7733,-1.8131,-1.8751,-1.9651,-1.9021,-1.8272,-1.8445,-1.8081,-1.7716,-1.7622,-1.784,-1.8074,-1.8221,-1.8112,-1.8048,-1.8255,-1.8229,-1.8319,-1.86,-1.8562,-1.8588,-1.8783,-2.0176,-2.1344,-2.1921,-2.3599,-2.4935,-2.5895,-2.5895,-2.5895,-2.5895,-2.5895,-2.5895,-2.5895,-2.5895,-2.5895,-2.5979,-2.7855,-2.8863,-2.9254,-3.1009,-3.2009,-3.2431,-3.2286,-3.2503,-3.2775,-3.2917,-3.3002,-3.3157,-3.3241,-3.3241,-3.3312,0.0,0.0,0.0,0.0,0.0,0.0,0.0,0.0,0.0,0.0,0.0,0.0,0.0,0.0,0.0,0.0,0.0,0.0,0.0,-1.7227,0.0,0.0,0.0,-1.9017,-1.9275,-1.9063,-1.9199,0.0,0.0,0.0,0.0,-2.1015,-2.1435,-2.1881,-2.1882,-2.2349,-2.3101,-2.3067,0.0,0.0,0.0,0.0,0.0,0.0,0.0,0.0,0.0,0.0,0.0,0.0,0.0,-1.9263,-1.8598,-1.8111,-1.7715,-1.7578,-1.7009,-1.6358,-1.6178,-1.6397,-1.6494,-1.5823,-1.6263,-1.6822,-1.6663,-1.693,-1.7442,-1.8316,-1.7775,-1.7294,-1.7783,-1.774,-1.7666,-1.7868,-1.817,-1.8464,-1.8621,-1.8442,-1.8348,-1.8396,-1.8355,-1.8406,-1.8423,-1.8431,-1.8401,-1.8295,-1.971,-2.0934,-2.2015,-2.3381,-2.4659,-2.5895,-2.5895,-2.5895,-2.5895,-2.5895,-2.5895,-2.5895,-2.5895,-2.599,-2.6063,-2.7476,-2.8573,-2.9409,-3.0758,-3.1763,-3.2417,-3.2489,-3.2632,-3.2917,-3.3072,-3.3241,-3.3326,-3.3326,-3.3326,-3.3326,0.0,0.0,0.0,0.0,0.0,0.0,0.0,0.0,0.0,-1.5651,-1.6489,-1.7064,-1.719,-1.7471,0.0,0.0,0.0,0.0,0.0,0.0,0.0,0.0,-1.9078,-1.9959,-2.0916,-1.9908,-1.975,0.0,0.0,0.0,0.0,0.0,0.0,0.0,0.0,0.0,0.0,0.0,0.0,0.0,0.0,0.0,0.0,0.0,0.0,0.0,0.0,0.0,0.0,0.0,-1.821,-1.8792,-1.8651,-1.7864,-1.6995,-1.6965,-1.6203,-1.5285,-1.5043,-1.5444,-1.573,-1.4858,-1.5277,-1.5813,-1.5531,-1.5503,-1.576,-1.661,-1.621,-1.6003,-1.6926,-1.7277,-1.756,-1.8062,-1.8583,-1.8929,-1.9027,-1.8851,-1.8663,-1.8594,-1.8545,-1.8498,-1.8283,-1.8352,-1.8303,-1.7902,-1.9187,-2.0647,-2.2254,-2.3268,-2.4488,-2.5895,-2.5895,-2.5895,-2.5895,-2.5895,-2.5895,-2.5895,-2.5895,-2.6074,-2.6313,-2.7046,-2.8128,-2.9397,-3.0202,-3.1214,-3.2286,-3.2632,-3.2775,-3.2775,-3.3157,-3.3326,-3.3326,-3.3326,-3.3326,-3.3241,0.0,0.0,0.0,0.0,0.0,0.0,0.0,-1.6137,-1.6429,-1.4875,-1.5373,-1.5957,-1.622,-1.7006,0.0,0.0,0.0,0.0,0.0,0.0,0.0,-1.8989,-1.9788,-2.0475,-2.1036,-2.0853,-2.125,0.0,0.0,0.0,0.0,0.0,0.0,0.0,0.0,0.0,0.0,0.0,0.0,0.0,0.0,0.0,0.0,0.0,0.0,0.0,0.0,0.0,0.0,0.0,-1.8055,-1.7769,-1.6812,-1.6226,-1.5832,-1.5669,-1.5356,-1.5043,-1.4887,-1.4941,-1.4921,-1.4538,-1.5452,-1.6214,-1.5372,-1.6009,-1.6738,-1.6663,-1.5992,-1.5913,-1.7405,-1.7368,-1.7543,-1.8605,-1.892,-1.8997,-1.9018,-1.8851,-1.8638,-1.8458,-1.8224,-1.7997,-1.7803,-1.7714,-1.758,-1.7668,-1.7951,-1.9167,-2.164,-2.2323,-2.3684,-2.5812,-2.5895,-2.5895,-2.5895,-2.5895,-2.5979,-2.6146,-2.6146,-2.6313,-2.655,-2.7001,-2.8161,-2.9808,-3.0285,-3.1424,-3.31,-3.3171,-3.3171,-3.3171,-3.3241,-3.3326,-3.3326,-3.3326,-3.3326,-3.3241,0.0,0.0,0.0,0.0,0.0,0.0,0.0,-1.4666,-1.5054,-1.4324,-1.4992,-1.5827,-1.6601,-1.7374,-1.8021,0.0,0.0,0.0,0.0,0.0,0.0,0.0,0.0,-2.0273,-2.128,-2.0813,-2.0961,-2.1831,0.0,0.0,0.0,-2.2694,0.0,0.0,0.0,0.0,0.0,0.0,0.0,0.0,0.0,0.0,0.0,0.0,0.0,0.0,0.0,0.0,0.0,0.0,-1.6879,-1.7039,-1.6224,-1.5755,-1.5522,-1.5298,-1.5178,-1.5027,-1.4718,-1.47,-1.4714,-1.4588,-1.5286,-1.5751,-1.4758,-1.5374,-1.5932,-1.5093,-1.4974,-1.5457,-1.6846,-1.7165,-1.7639,-1.8882,-1.917,-1.9221,-1.9186,-1.8955,-1.8772,-1.8442,-1.8031,-1.7781,-1.7546,-1.7557,-1.7499,-1.749,-1.7749,-1.8854,-2.118,-2.2689,-2.4065,-2.5348,-2.5524,-2.5727,-2.6063,-2.6074,-2.6146,-2.6396,-2.614,-2.6233,-2.6704,-2.6404,-2.7669,-3.0126,-2.996,-3.1245,-3.3326,-3.3326,-3.3326,-3.3326,-3.3326,-3.3326,-3.3326,-3.3326,-3.3326,-3.3241,0.0,0.0,0.0,0.0,0.0,0.0,-1.2805,-1.3166,-1.3641,-1.4014,-1.4996,-1.6051,-1.7079,-1.7724,-1.8394,0.0,0.0,0.0,0.0,0.0,0.0,0.0,0.0,0.0,-2.1102,0.0,0.0,-2.1,-2.1295,0.0,0.0,0.0,0.0,0.0,-2.3502,-2.3656,0.0,0.0,0.0,0.0,0.0,-2.2076,0.0,0.0,0.0,0.0,0.0,0.0,0.0,0.0,-1.5674,-1.6154,-1.5699,-1.5433,-1.5255,-1.5041,-1.4887,-1.4749,-1.4515,-1.4497,-1.4538,-1.463,-1.5192,-1.5407,-1.4337,-1.4789,-1.5103,-1.3783,-1.4208,-1.5154,-1.6218,-1.689,-1.773,-1.8994,-1.9295,-1.9348,-1.9325,-1.9191,-1.8932,-1.8451,-1.7951,-1.7546,-1.7392,-1.7399,-1.7448,-1.7327,-1.792,-1.9041,-2.1023,-2.3051,-2.432,-2.4767,-2.4941,-2.5278,-2.5755,-2.5837,-2.592,-2.6237,-2.5844,-2.6028,-2.6621,-2.5722,-2.7031,-3.0061,-2.9558,-3.0823,-3.3326,-3.3326,-3.3326,-3.3326,-3.3326,-3.3326,-3.3326,-3.3326,-3.3326,-3.3241,0.0,0.0,0.0,0.0,0.0,0.0,-1.2674,-1.3741,-1.4403,-1.3957,-1.5271,-1.6396,-1.6793,-1.7518,-1.7988,0.0,0.0,0.0,0.0,0.0,0.0,0.0,0.0,0.0,0.0,0.0,0.0,-2.11,-2.116,0.0,0.0,0.0,0.0,0.0,0.0,-2.3328,-2.3346,0.0,0.0,0.0,0.0,0.0,0.0,0.0,0.0,0.0,0.0,0.0,0.0,0.0,0.0,-1.4665,-1.4505,-1.4554,-1.4617,-1.431,-1.3888,-1.3689,-1.4176,-1.4144,-1.4053,-1.435,-1.5402,-1.5982,-1.466,-1.5229,-1.5656,-1.425,-1.4696,-1.5522,-1.628,-1.697,-1.7801,-1.9004,-1.9125,-1.9086,-1.927,-1.9282,-1.9082,-1.8477,-1.7797,-1.7392,-1.7139,-1.7163,-1.7172,-1.7139,-1.7993,-1.9363,-2.1307,-2.2279,-2.3325,-2.4473,-2.4371,-2.4292,-2.4415,-2.4527,-2.4766,-2.497,-2.5094,-2.5407,-2.5753,-2.5169,-2.6632,-2.9545,-2.9027,-3.0508,-3.3326,-3.3326,-3.3326,-3.3326,-3.3326,-3.3326,-3.3326,-3.3326,-3.3326,-3.3241,0.0,0.0,0.0,0.0,0.0,0.0,-1.233,-1.3089,-1.3748,-1.3945,-1.4803,-1.5611,-1.6232,-1.6782,-1.7366,-1.808,0.0,0.0,0.0,0.0,0.0,0.0,0.0,0.0,0.0,0.0,-1.954,-2.0252,-2.0304,0.0,0.0,0.0,0.0,0.0,0.0,-2.2556,-2.2539,0.0,0.0,0.0,0.0,0.0,0.0,0.0,0.0,0.0,0.0,0.0,-1.6013,-1.5007,-1.5061,0.0,-1.452,-1.4162,0.0,0.0,-1.3809,-1.3756,-1.3702,-1.3702,-1.3799,-1.4182,-1.493,-1.5363,-1.457,-1.4935,-1.5163,-1.4093,-1.4615,-1.5482,-1.6234,-1.6928,-1.7762,-1.8811,-1.9112,-1.9175,-1.9219,-1.9327,-1.9106,-1.8209,-1.7631,-1.7143,-1.6507,-1.6492,-1.6574,-1.6812,-1.7375,-1.8602,-2.0589,-2.1411,-2.2507,-2.3783,-2.3861,-2.407,-2.4522,-2.4612,-2.4769,-2.4993,-2.478,-2.4946,-2.5527,-2.4705,-2.6187,-2.9468,-2.8949,-3.0455,-3.3326,-3.3326,-3.3326,-3.3326,-3.3326,-3.3326,-3.3326,-3.3326,-3.3326,-3.3241,0.0,0.0,0.0,0.0,0.0,-1.2354,-1.2294,-1.284,-1.349,-1.4026,-1.463,-1.5317,-1.6083,-1.6337,-1.6921,-1.7921,-1.7868,0.0,0.0,0.0,0.0,0.0,0.0,0.0,0.0,0.0,-1.876,-1.9432,-1.9468,-1.9682,0.0,0.0,-2.0699,-2.0846,0.0,0.0,0.0,0.0,0.0,0.0,0.0,0.0,0.0,0.0,0.0,0.0,0.0,0.0,0.0,0.0,0.0,0.0,0.0,0.0,0.0,0.0,-1.357,-1.3408,-1.3297,-1.3355,-1.3642,-1.4221,-1.4702,-1.4977,-1.4709,-1.4775,-1.4755,-1.4026,-1.4562,-1.5421,-1.6052,-1.675,-1.7532,-1.8479,-1.8835,-1.9023,-1.9065,-1.9261,-1.9077,-1.8153,-1.7754,-1.7202,-1.643,-1.6223,-1.6327,-1.6648,-1.6812,-1.7836,-2.0032,-2.0498,-2.1507,-2.3199,-2.3362,-2.3678,-2.4161,-2.4249,-2.4327,-2.4481,-2.42,-2.4374,-2.4853,-2.4374,-2.5982,-2.9151,-2.898,-3.0615,-3.3326,-3.3326,-3.3326,-3.3326,-3.3326,-3.3326,-3.3326,-3.3326,-3.3241,-3.3157,0.0,0.0,0.0,0.0,0.0,0.0,-1.2709,-1.3374,-1.3997,-1.4356,-1.5109,-1.58,-1.6423,-1.6522,-1.665,-1.7002,-1.7267,0.0,0.0,0.0,0.0,0.0,0.0,0.0,0.0,0.0,-1.7961,-1.8797,-1.8797,-1.9156,-1.9803,-1.9803,-2.0012,-2.0418,0.0,0.0,0.0,0.0,0.0,0.0,0.0,0.0,-1.8104,0.0,0.0,0.0,0.0,0.0,0.0,0.0,0.0,0.0,0.0,-1.3615,-1.3674,0.0,-1.2912,-1.2258,-1.292,-1.3156,-1.345,-1.4535,-1.499,-1.5199,-1.5192,-1.4982,-1.466,-1.4101,-1.4616,-1.5276,-1.5648,-1.6303,-1.7079,-1.799,-1.8306,-1.853,-1.8824,-1.91,-1.899,-1.8448,-1.8205,-1.7808,-1.6939,-1.6596,-1.6476,-1.6656,-1.6484,-1.7423,-1.9778,-1.9474,-2.0411,-2.2927,-2.2777,-2.2713,-2.2713,-2.2938,-2.3012,-2.3012,-2.3235,-2.3383,-2.3626,-2.4333,-2.6125,-2.8528,-2.9177,-3.0943,-3.3326,-3.3326,-3.3326,-3.3326,-3.3326,-3.3326,-3.3326,-3.3326,-3.3157,-3.2988,0.0,0.0,0.0,0.0,0.0,0.0,-1.2709,-1.3263,-1.3867,-1.4347,-1.5016,-1.5697,-1.6238,-1.6436,-1.6565,-1.6761,-1.7086,0.0,0.0,0.0,0.0,0.0,0.0,0.0,0.0,0.0,-1.7421,-1.772,-1.772,-1.7947,-1.8366,-1.8774,-1.9089,-1.9339,-1.9687,-1.9884,0.0,0.0,0.0,0.0,0.0,-1.9067,-1.9123,0.0,0.0,0.0,0.0,0.0,0.0,0.0,0.0,0.0,0.0,0.0,0.0,-1.3819,-1.3419,-1.3054,-1.3251,-1.3237,-1.3356,-1.3941,-1.4095,-1.4205,-1.4514,-1.4408,-1.4239,-1.4212,-1.491,-1.5623,-1.5834,-1.6656,-1.7565,-1.8526,-1.8715,-1.903,-1.9668,-1.9565,-1.9191,-1.8395,-1.7358,-1.6614,-1.6422,-1.6381,-1.6402,-1.6335,-1.7041,-1.8069,-1.9316,-1.9963,-2.1135,-2.2916,-2.2777,-2.2777,-2.2927,-2.3001,-2.2911,-2.275,-2.3143,-2.3194,-2.3039,-2.3677,-2.5633,-2.849,-2.8754,-3.0485,-3.3326,-3.3326,-3.3326,-3.3326,-3.3326,-3.3326,-3.3326,-3.3326,-3.3241,-3.3157,0.0,0.0,0.0,0.0,0.0,0.0,-1.2885,-1.3509,-1.4095,-1.4543,-1.5217,-1.5874,-1.6337,-1.6534,-1.6663,-1.6675,-1.6918,0.0,0.0,0.0,0.0,0.0,0.0,0.0,0.0,-1.6863,-1.7018,-1.7018,-1.7073,-1.7199,-1.7462,-1.7881,-1.8198,-1.8447,-1.8727,-1.8925,0.0,0.0,0.0,0.0,-1.8849,-1.8717,-1.8893,0.0,0.0,0.0,0.0,0.0,0.0,0.0,0.0,0.0,0.0,0.0,0.0,0.0,-1.415,-1.386,-1.3393,-1.3332,-1.3587,-1.4105,-1.4106,-1.4142,-1.4767,-1.4531,-1.4257,-1.4457,-1.4959,-1.5414,-1.575,-1.6419,-1.7171,-1.7895,-1.8319,-1.8792,-1.9376,-1.925,-1.8808,-1.8143,-1.7109,-1.6437,-1.6437,-1.6231,-1.6072,-1.5997,-1.6952,-1.7992,-1.8774,-1.9793,-2.0969,-2.2422,-2.2518,-2.2578,-2.2672,-2.286,-2.2805,-2.2673,-2.315,-2.329,-2.3011,-2.3649,-2.5415,-2.7982,-2.8545,-3.0321,0.0,-3.2905,-3.3101,-3.3297,-3.3073,-3.3115,-3.3326,-3.3326,-3.3326,-3.3213,0.0,0.0,0.0,0.0,0.0,0.0,0.0,-1.3964,-1.4617,-1.4938,-1.5723,-1.6361,-1.6746,-1.688,-1.6897,-1.6739,-1.6829,0.0,0.0,0.0,0.0,0.0,0.0,0.0,-1.6392,-1.6595,-1.668,-1.668,-1.6778,-1.6905,-1.6951,-1.7102,-1.738,-1.7747,-1.7747,-1.7973,0.0,0.0,0.0,0.0,-1.7921,-1.7776,0.0,0.0,0.0,0.0,0.0,0.0,0.0,0.0,0.0,0.0,0.0,0.0,0.0,0.0,0.0,0.0,0.0,-1.3515,-1.4073,-1.4695,-1.4772,-1.4836,-1.5558,-1.5154,0.0,-1.4876,-1.4756,-1.4842,-1.5443,-1.5817,-1.6177,-1.659,-1.74,-1.8118,-1.8415,-1.823,-1.7961,-1.7803,-1.7196,-1.68,-1.6908,-1.6179,-1.565,-1.5733,-1.6503,-1.7288,-1.8172,-1.8985,-2.0103,-2.1594,-2.1988,-2.2182,-2.2157,-2.2615,-2.2827,-2.2793,-2.3369,-2.3508,-2.3338,-2.4052,-2.5289,-2.7005,-2.8467,-3.0204,-3.2013,-3.2192,-3.2665,-3.3143,-3.2553,-3.2679,-3.3115,-3.3199,-3.3115,-3.3031,0.0,0.0,0.0,0.0,0.0,0.0,0.0,0.0,0.0,0.0,-1.6264,-1.6825,-1.7601,-1.74,-1.7206,0.0,0.0,0.0,0.0,0.0,0.0,0.0,0.0,0.0,-1.6231,-1.6392,-1.6479,-1.6479,-1.6405,-1.6436,-1.6637,-1.665,-1.6808,-1.7102,-1.7102,-1.7186,0.0,0.0,0.0,0.0,-1.7664,-1.7689,0.0,0.0,0.0,0.0,-1.6102,-1.552,0.0,0.0,0.0,0.0,0.0,0.0,0.0,0.0,-1.4184,-1.4202,-1.3746,0.0,-1.4409,-1.4553,-1.4405,-1.438,0.0,-1.4781,-1.4699,-1.4988,0.0,-1.5248,-1.5942,-1.602,-1.6368,-1.7392,-1.7752,-1.7935,-1.829,-1.777,-1.7435,-1.7602,-1.6526,-1.595,-1.6645,-1.5935,-1.5567,-1.565,-1.6291,-1.7038,-1.7932,-1.8714,-1.9653,-2.0764,-2.0902,-2.1517,-2.2798,-2.3223,-2.3307,-2.3018,-2.3587,-2.3621,-2.3198,-2.3768,-2.49,-2.6407,-2.7385,-2.8807,-3.0596,-3.1251,-3.1632,-3.1907,-3.1766,-3.1713,-3.1676,-3.1839,-3.1704,-3.1459,0.0,0.0,0.0,0.0,0.0,0.0,0.0,0.0,0.0,0.0,-1.6442,-1.6963,-1.7927,-1.7585,-1.726,0.0,0.0,0.0,0.0,0.0,0.0,0.0,0.0,-1.6025,-1.6025,-1.61,-1.6132,-1.6132,-1.6088,-1.6175,-1.625,-1.6349,-1.6448,-1.659,-1.659,-1.659,0.0,0.0,0.0,-1.7653,-1.7056,0.0,0.0,0.0,0.0,0.0,-1.5705,-1.5187,0.0,-1.3631,-1.3303,-1.3381,0.0,0.0,0.0,0.0,-1.4223,-1.427,-1.4167,-1.4391,-1.4654,-1.4867,-1.4763,-1.4758,-1.5251,0.0,0.0,0.0,0.0,-1.523,-1.5796,-1.5967,-1.6403,-1.7236,-1.7666,-1.7911,-1.8002,-1.7463,-1.7079,-1.6941,-1.6067,-1.5551,-1.5995,-1.5545,-1.5189,-1.5353,-1.5913,-1.6638,-1.7362,-1.8246,-1.9183,-2.0239,-2.0432,-2.1152,-2.2373,-2.2809,-2.3123,-2.3231,-2.3804,-2.3834,-2.35,-2.3772,-2.4522,-2.5709,-2.6797,-2.8143,-2.9508,-3.0414,-3.0992,-3.1377,-3.1162,-3.127,-3.1495,-3.1537,-3.1523,-3.1453,0.0,0.0,0.0,0.0,0.0,0.0,0.0,0.0,0.0,0.0,0.0,0.0,0.0,0.0,0.0,0.0,0.0,0.0,0.0,0.0,0.0,0.0,0.0,-1.5951,-1.5867,-1.5951,-1.5915,-1.5748,-1.5953,-1.5985,-1.5957,-1.6057,-1.6149,-1.6178,-1.6093,-1.6105,0.0,0.0,-1.6302,-1.7046,-1.6454,0.0,0.0,0.0,0.0,0.0,0.0,0.0,0.0,-1.3035,-1.2684,-1.2881,-1.3195,0.0,0.0,0.0,0.0,0.0,-1.4363,-1.4583,-1.4851,-1.5142,-1.5196,-1.5292,-1.5661,0.0,0.0,0.0,0.0,0.0,-1.5476,-1.5926,-1.6259,-1.6578,-1.7257,-1.7583,-1.7492,-1.7107,-1.6703,-1.6166,-1.5544,-1.5249,-1.5384,-1.5063,-1.4779,-1.486,-1.5444,-1.6063,-1.6764,-1.7608,-1.8645,-1.987,-2.0279,-2.0795,-2.1553,-2.223,-2.2798,-2.3372,-2.3948,-2.4116,-2.397,-2.3891,-2.4135,-2.485,-2.6392,-2.7511,-2.8369,-2.9512,-3.035,-3.0769,-3.0445,-3.08,-3.1447,-3.1409,-3.1567,-3.1711,0.0,0.0,0.0,0.0,0.0,0.0,0.0,0.0,0.0,0.0,0.0,0.0,0.0,0.0,0.0,0.0,0.0,0.0,0.0,0.0,0.0,-1.7588,-1.7105,-1.6573,-1.6138,-1.6562,-1.6397,-1.5558,-1.5949,-1.5949,-1.5603,-1.5603,-1.5794,-1.615,-1.5532,-1.5567,-1.6022,-1.581,-1.6047,-1.65,-1.6421,0.0,0.0,0.0,0.0,0.0,0.0,0.0,0.0,-1.4017,-1.3327,-1.2703,-1.3033,0.0,0.0,0.0,0.0,0.0,-1.3647,-1.4202,-1.4613,-1.4412,-1.4568,-1.4703,-1.4574,0.0,0.0,0.0,0.0,0.0,0.0,-1.5905,-1.6111,-1.6386,-1.6587,-1.6682,-1.6682,-1.6221,-1.591,-1.5779,-1.4926,-1.4514,-1.519,-1.4698,-1.4448,-1.461,-1.4462,-1.5056,-1.6674,-1.6714,-1.7508,-1.9323,-1.9656,-2.0169,-2.0995,-2.2363,-2.314,-2.3219,-2.3876,-2.4189,-2.4105,-2.3681,-2.3557,-2.3757,-2.5234,-2.6013,-2.6424,-2.8061,-2.8828,-2.9069,-2.9408,-2.9543,-2.9625,-3.0427,-3.0492,-3.014,0.0,0.0,0.0,0.0,0.0,0.0,0.0,0.0,0.0,0.0,0.0,0.0,0.0,0.0,0.0,0.0,0.0,0.0,0.0,0.0,0.0,-1.7589,-1.7468,-1.7007,-1.6232,-1.6384,-1.6127,-1.539,-1.5533,-1.5521,-1.5289,-1.5671,-1.5975,-1.6209,-1.5948,-1.5889,-1.5902,-1.553,-1.5626,-1.6069,0.0,0.0,0.0,0.0,0.0,0.0,0.0,0.0,0.0,0.0,-1.294,-1.2299,-1.267,0.0,0.0,0.0,0.0,0.0,-1.2923,-1.3433,-1.3953,-1.3561,-1.4458,-1.5402,-1.547,-1.5176,0.0,0.0,0.0,0.0,0.0,-1.5681,-1.6122,-1.6755,-1.669,-1.6507,-1.6507,-1.581,-1.5237,-1.5237,-1.46,-1.422,-1.461,-1.4234,-1.4034,-1.4193,-1.3925,-1.4367,-1.5724,-1.6122,-1.6991,-1.8509,-1.9264,-1.9843,-2.0324,-2.1496,-2.2273,-2.2682,-2.299,-2.3174,-2.3222,-2.2993,-2.2891,-2.311,-2.4823,-2.5615,-2.5917,-2.7826,-2.8553,-2.854,-2.8768,-2.9066,-2.9462,-3.0276,-3.0326,-2.996,0.0,0.0,0.0,0.0,0.0,0.0,0.0,0.0,0.0,0.0,0.0,0.0,0.0,0.0,0.0,0.0,0.0,0.0,0.0,0.0,-1.775,-1.7353,-1.7499,-1.7168,-1.6217,-1.6153,-1.5816,-1.5211,-1.505,-1.5003,-1.5061,-1.5665,-1.6107,-1.627,-1.6237,-1.6097,-1.5796,-1.5367,-1.5387,-1.5682,0.0,0.0,0.0,0.0,0.0,0.0,0.0,0.0,0.0,0.0,0.0,0.0,0.0,0.0,0.0,-1.2373,-1.2547,-1.2629,-1.2492,-1.303,-1.359,-1.3316,-1.4329,-1.5478,-1.5835,-1.5592,0.0,0.0,0.0,0.0,0.0,-1.5307,-1.5914,-1.6699,-1.6535,-1.6182,-1.6111,-1.5415,-1.4822,-1.4754,-1.4385,-1.4088,-1.4088,-1.3945,-1.3817,-1.3817,-1.3633,-1.392,-1.4832,-1.5807,-1.6784,-1.7736,-1.8818,-1.9445,-1.9576,-2.0227,-2.1052,-2.198,-2.2092,-2.2285,-2.2332,-2.24,-2.2469,-2.2696,-2.4524,-2.5407,-2.5648,-2.7541,-2.825,-2.8134,-2.8285,-2.8783,-2.9522,-3.0162,-3.023,-3.0033,0.0,0.0,0.0,0.0,0.0,0.0,0.0,0.0,0.0,0.0,0.0,0.0,0.0,0.0,0.0,0.0,0.0,0.0,0.0,0.0,-1.7234,-1.7202,-1.7224,-1.6895,-1.6199,-1.6302,-1.5916,-1.4942,-1.4784,-1.4784,-1.4904,-1.539,-1.5949,-1.6457,-1.5751,-1.5506,-1.5618,-1.5433,-1.5392,-1.5487,-1.5871,0.0,0.0,0.0,0.0,0.0,0.0,0.0,0.0,0.0,0.0,0.0,0.0,0.0,-1.1911,-1.1389,-1.1404,-1.1768,-1.2572,-1.3377,-1.4091,-1.4163,-1.3935,-1.3726,-1.3952,-1.453,0.0,-1.4307,0.0,0.0,-1.4764,-1.4804,-1.5074,-1.55,-1.5432,-1.5233,-1.4805,-1.4804,-1.4754,-1.4233,-1.4102,-1.4088,-1.4088,-1.3945,-1.3817,-1.3817,-1.3633,-1.392,-1.4832,-1.5807,-1.6645,-1.7404,-1.8324,-1.8711,-1.8701,-1.8698,-1.9561,-2.1252,-2.1924,-2.2217,-2.2217,-2.2343,-2.24,-2.2491,-2.3982,-2.4839,-2.5332,-2.6334,-2.6941,-2.7356,-2.7813,-2.8382,-2.9007,-2.9479,-2.9726,-2.9784,0.0,0.0,0.0,0.0,0.0,0.0,0.0,0.0,0.0,0.0,0.0,0.0,0.0,0.0,0.0,0.0,0.0,0.0,0.0,-1.7468,-1.7225,-1.6809,-1.6871,-1.6665,-1.6104,-1.587,-1.5493,-1.4898,-1.4761,-1.4701,-1.48,-1.5644,-1.6159,-1.6385,-1.6287,-1.6018,-1.5636,-1.5465,-1.5522,-1.5669,-1.5501,-1.611,0.0,0.0,0.0,0.0,0.0,0.0,0.0,0.0,-1.4364,-1.3428,-1.2733,-1.2342,-1.2042,-1.1396,-1.1926,-1.2549,-1.1884,-1.3224,-1.4456,-1.3001,-1.3107,0.0,0.0,-1.4244,-1.4244,-1.4402,-1.4557,0.0,-1.4396,-1.462,-1.4865,-1.4705,-1.4694,-1.4548,-1.4361,-1.4269,-1.411,-1.4102,-1.4088,-1.3931,-1.3662,-1.3507,-1.3342,-1.3158,-1.3063,-1.3185,-1.3615,-1.5092,-1.5965,-1.6061,-1.7665,-1.8448,-1.8228,-1.8296,-1.8652,-1.9316,-2.0127,-2.0499,-2.064,-2.1018,-2.135,-2.1755,-2.3007,-2.4075,-2.4978,-2.6081,-2.6744,-2.7102,-2.7449,-2.7689,-2.802,-2.9103,-2.9493,-2.9594,0.0,0.0,0.0,0.0,0.0,0.0,0.0,0.0,0.0,0.0,0.0,0.0,0.0,0.0,0.0,0.0,0.0,0.0,-1.7423,-1.7368,-1.7048,-1.6547,-1.6682,-1.6546,-1.6032,-1.5583,-1.5258,-1.5086,-1.4954,-1.4892,-1.4892,-1.5741,-1.6174,-1.6185,-1.6388,-1.6171,-1.5526,-1.5548,-1.5598,-1.5636,-1.5409,-1.5888,0.0,0.0,0.0,0.0,0.0,0.0,0.0,0.0,-1.4666,-1.395,-1.3259,-1.2567,-1.1949,-1.1761,-1.2497,-1.3284,-1.2587,-1.3894,-1.5086,-1.3505,0.0,0.0,-1.4757,-1.4261,-1.3818,-1.4058,-1.3815,-1.354,-1.3819,-1.411,-1.4249,-1.3825,-1.3798,-1.3739,-1.3735,-1.3555,-1.349,-1.3649,-1.3642,-1.348,-1.3114,-1.3061,-1.3037,-1.2835,-1.2696,-1.2746,-1.29,-1.4371,-1.5253,-1.5231,-1.6768,-1.7685,-1.7695,-1.7708,-1.7694,-1.7765,-1.8477,-1.8975,-1.9262,-1.9819,-2.0384,-2.0926,-2.2349,-2.3617,-2.4702,-2.5895,-2.6572,-2.6844,-2.6914,-2.6914,-2.7042,-2.8211,-2.8843,-2.9116,0.0,0.0,0.0,0.0,0.0,0.0,0.0,0.0,0.0,0.0,0.0,0.0,0.0,0.0,0.0,0.0,0.0,0.0,-1.7278,-1.6987,-1.6751,-1.657,-1.657,-1.6457,-1.6114,-1.5573,-1.535,-1.5505,-1.534,-1.5285,-1.5295,-1.5703,-1.5914,-1.5914,-1.5914,-1.5615,-1.5225,-1.5676,-1.5615,-1.5245,-1.5686,-1.5876,-1.5926,0.0,0.0,0.0,0.0,0.0,0.0,0.0,-1.4771,-1.3701,-1.3701,-1.2615,-1.1525,-1.2349,-1.3074,-1.3816,-1.507,-1.5762,-1.6108,-1.6074,0.0,0.0,-1.5306,-1.4547,-1.3618,-1.2837,-1.2881,-1.3137,-1.3137,-1.3137,-1.3052,-1.2705,-1.2699,-1.2693,-1.2597,-1.2643,-1.2713,-1.2842,-1.273,-1.2571,-1.2571,-1.2693,-1.2822,-1.2815,-1.2845,-1.29,-1.29,-1.381,-1.4489,-1.501,-1.5631,-1.6331,-1.6977,-1.6754,-1.6637,-1.6818,-1.7265,-1.7722,-1.8201,-1.894,-1.9617,-2.027,-2.2121,-2.3505,-2.4611,-2.5648,-2.6246,-2.6457,-2.6218,-2.6111,-2.6181,-2.686,-2.7541,-2.8283,0.0,0.0,0.0,0.0,0.0,0.0,0.0,0.0,0.0,0.0,0.0,0.0,0.0,0.0,0.0,0.0,0.0,0.0,-1.7078,-1.6797,-1.6581,-1.6488,-1.6249,-1.6077,-1.5961,-1.6075,-1.5748,-1.5008,-1.5184,-1.5345,-1.5598,-1.5796,-1.5856,-1.574,-1.5856,-1.5718,-1.5369,-1.5703,-1.5875,-1.5837,-1.5341,-1.5738,-1.6506,0.0,0.0,0.0,0.0,0.0,0.0,0.0,0.0,0.0,-1.4844,-1.422,-1.3785,-1.3224,-1.3929,-1.4833,-1.4095,-1.5251,-1.6319,-1.4985,0.0,0.0,0.0,-1.3999,0.0,0.0,-1.2705,-1.3052,-1.2875,-1.279,-1.2705,-1.2272,-1.221,-1.2236,-1.2159,-1.2325,-1.2506,-1.2664,-1.2651,-1.2495,-1.2376,-1.2357,-1.2368,-1.2227,-1.2277,-1.2305,-1.2452,-1.3386,-1.4138,-1.4488,-1.5414,-1.6086,-1.6581,-1.6493,-1.6488,-1.6545,-1.667,-1.709,-1.7711,-1.8251,-1.9106,-2.008,-2.0643,-2.2091,-2.4256,-2.5548,-2.6198,-2.6326,-2.6056,-2.6002,-2.6181,-2.686,-2.7215,-2.7569,0.0,0.0,0.0,0.0,0.0,0.0,0.0,0.0,0.0,0.0,0.0,-1.7656,0.0,0.0,0.0,0.0,0.0,0.0,0.0,-1.657,-1.641,-1.6306,-1.6077,-1.5984,-1.6048,-1.6188,-1.6107,-1.582,-1.588,-1.5989,-1.6188,-1.589,-1.5753,-1.5624,-1.5449,-1.5245,-1.5147,-1.5467,-1.5737,-1.5902,-1.5422,-1.5762,-1.6425,0.0,0.0,0.0,0.0,0.0,0.0,0.0,0.0,0.0,-1.5627,-1.5129,-1.4644,-1.4453,-1.5242,-1.6046,-1.5381,-1.6275,-1.7116,-1.6114,-1.6126,-1.6256,-1.5476,0.0,0.0,-1.2565,-1.2783,-1.2884,-1.2379,-1.2212,-1.2058,-1.1807,-1.1598,-1.163,-1.1693,-1.1712,-1.1812,-1.2085,-1.2228,-1.2164,-1.1923,-1.2132,-1.2205,-1.2016,-1.2077,-1.215,-1.2298,-1.2878,-1.3576,-1.4254,-1.4917,-1.559,-1.6384,-1.6384,-1.6384,-1.6384,-1.656,-1.679,-1.7164,-1.745,-1.8143,-1.9177,-2.0205,-2.2063,-2.4526,-2.5412,-2.5934,-2.6233,-2.6002,-2.5948,-2.6059,-2.6481,-2.6833,-2.72,0.0,0.0,-1.6428,-1.6869,0.0,0.0,0.0,0.0,0.0,0.0,-1.7534,-1.749,0.0,0.0,0.0,-1.6751,-1.6524,-1.6296,0.0,0.0,-1.6239,-1.6114,-1.6056,-1.6095,-1.6246,-1.5991,-1.6355,-1.7317,-1.7022,-1.6868,-1.6898,-1.5923,-1.552,-1.544,-1.4814,-1.4616,-1.4799,-1.513,-1.5448,-1.5666,-1.5815,-1.5864,-1.5965,-1.6184,0.0,0.0,0.0,0.0,0.0,0.0,0.0,0.0,-1.62,-1.5548,-1.4829,-1.5841,-1.6619,-1.7308,-1.787,-1.8035,-1.8055,-1.8461,-1.8074,-1.7367,-1.67,-1.5696,-1.4615,-1.3269,-1.2887,-1.2542,-1.1727,-1.1444,-1.1284,-1.1364,-1.11,-1.1004,-1.1253,-1.1045,-1.1094,-1.1366,-1.1558,-1.1632,-1.1484,-1.2003,-1.2224,-1.2077,-1.2231,-1.2378,-1.2378,-1.2456,-1.311,-1.437,-1.4528,-1.5163,-1.6555,-1.6514,-1.6514,-1.6566,-1.687,-1.6936,-1.6757,-1.669,-1.7105,-1.7973,-2.0488,-2.2834,-2.4885,-2.5092,-2.5536,-2.6056,-2.5948,-2.5893,-2.5893,-2.5893,-2.6355,-2.7016,0.0,0.0,-1.6111,-1.661,0.0,0.0,0.0,0.0,-1.6853,-1.6797,-1.6684,-1.6637,-1.6751,-1.6694,0.0,-1.6637,-1.6581,-1.6467,-1.6296,0.0,-1.5989,-1.5931,-1.57,-1.5615,-1.575,-1.6086,-1.6443,-1.6769,-1.6214,-1.6067,-1.6373,-1.5242,-1.4726,-1.4717,-1.4693,-1.4833,-1.5158,-1.5127,-1.5532,-1.6103,-1.5604,-1.5686,-1.6204,-1.5981,-1.602,0.0,0.0,0.0,0.0,0.0,0.0,0.0,-1.6802,-1.6991,-1.7178,-1.6808,-1.7191,-1.7621,-1.7462,-1.7258,0.0,-1.7657,-1.7837,-1.7857,-1.7683,-1.7367,-1.6273,-1.36,-1.214,-1.1477,-1.1649,-1.1204,-1.1042,-1.1686,-1.1435,-1.1282,-1.1617,-1.1417,-1.1328,-1.1416,-1.1409,-1.1558,-1.1855,-1.2157,-1.2378,-1.2673,-1.2746,-1.2826,-1.2973,-1.3042,-1.3854,-1.5495,-1.5587,-1.6297,-1.7772,-1.7472,-1.7472,-1.7832,-1.7497,-1.7493,-1.7687,-1.7291,-1.7461,-1.8079,-2.0546,-2.2168,-2.3254,-2.4493,-2.5384,-2.5948,-2.5893,-2.5893,-2.5893,-2.5893,-2.6032,-2.6145,0.0,0.0,0.0,0.0,0.0,0.0,0.0,0.0,-1.6637,-1.6467,-1.6353,-1.6353,-1.657,-1.6457,0.0,0.0,-1.6296,-1.6066,-1.5884,-1.5652,-1.5546,-1.5478,-1.5388,-1.5419,-1.5576,-1.6182,-1.6553,-1.6712,-1.6197,-1.6158,-1.6495,-1.5475,-1.4894,-1.4711,-1.4599,-1.4608,-1.4705,-1.5096,-1.5432,-1.568,-1.5473,-1.5547,-1.5903,-1.5627,-1.5678,-1.5929,-1.5859,0.0,0.0,0.0,0.0,0.0,0.0,0.0,-1.8044,-1.7719,-1.792,-1.8189,-1.7891,-1.7605,0.0,-1.761,0.0,-1.787,-1.787,-1.7277,-1.6316,-1.4667,-1.3343,-1.2152,-1.1318,-1.0852,-1.0762,-1.1146,-1.1112,-1.11,-1.1252,-1.1427,-1.1508,-1.1449,-1.1844,-1.2098,-1.2032,-1.2444,-1.2746,-1.29,-1.2973,-1.3119,-1.3193,-1.3327,-1.3892,-1.4973,-1.5369,-1.6004,-1.6966,-1.7148,-1.738,-1.7637,-1.7675,-1.785,-1.8082,-1.7622,-1.7633,-1.8173,-1.9529,-2.1071,-2.2674,-2.3555,-2.4706,-2.5893,-2.5893,-2.5893,-2.5893,-2.5893,-2.5893,-2.5893,0.0,0.0,0.0,0.0,0.0,0.0,0.0,0.0,0.0,-1.6285,-1.6181,-1.6181,-1.6343,-1.6114,-1.6009,0.0,0.0,0.0,-1.5362,-1.5205,-1.5098,-1.497,-1.5181,-1.5299,-1.5411,-1.6028,-1.6468,-1.6685,-1.64,-1.6427,-1.6712,-1.589,-1.5187,-1.4692,-1.4648,-1.44,-1.4188,-1.5088,-1.5373,-1.5252,-1.5399,-1.5523,-1.5497,-1.5346,-1.5497,-1.5797,-1.5647,-1.5921,-1.6342,-1.6342,0.0,0.0,0.0,0.0,-1.8117,-1.8303,-1.8494,-1.8683,-1.8443,-1.8178,-1.7874,-1.7764,-1.77,-1.77,-1.7619,-1.674,-1.5777,-1.5682,-1.4604,-1.3086,-1.1181,-1.0619,-1.0513,-1.0663,-1.0777,-1.0896,-1.0971,-1.1371,-1.1623,-1.1527,-1.222,-1.249,-1.2093,-1.2656,-1.2984,-1.2961,-1.3114,-1.3259,-1.3331,-1.3431,-1.3744,-1.4181,-1.4943,-1.5533,-1.5899,-1.6764,-1.7229,-1.7316,-1.7813,-1.8093,-1.8245,-1.7745,-1.7745,-1.8145,-1.8463,-2.007,-2.2495,-2.2698,-2.4062,-2.5893,-2.5893,-2.5893,-2.5893,-2.5893,-2.5893,-2.5893,0.0,0.0,0.0,0.0,0.0,0.0,0.0,0.0,0.0,0.0,-1.5604,-1.5381,-1.5526,-1.543,-1.5332,-1.5332,-1.5274,-1.5215,-1.5088,0.0,0.0,-1.497,-1.5027,-1.4928,-1.4671,-1.5204,-1.5558,-1.5707,-1.6063,-1.6245,-1.6084,-1.5498,-1.479,-1.3995,-1.4917,-1.5129,-1.4827,-1.5062,-1.5353,-1.5661,-1.5394,-1.5437,-1.5762,-1.5762,-1.5842,-1.607,-1.5991,-1.6272,-1.6542,-1.6542,-1.6603,0.0,0.0,0.0,-1.7895,-1.8108,-1.8434,-1.8621,-1.8266,0.0,-1.762,0.0,-1.77,-1.7619,-1.7473,-1.6903,-1.6095,-1.5171,-1.3502,-1.2134,-1.1856,-1.0983,-1.0443,-1.1186,-1.1138,-1.1134,-1.1709,-1.1563,-1.1454,-1.1421,-1.1654,-1.1799,-1.1895,-1.2135,-1.256,-1.3201,-1.3286,-1.3419,-1.3684,-1.3785,-1.407,-1.4837,-1.5652,-1.6418,-1.7246,-1.7771,-1.8261,-1.8621,-1.855,-1.8486,-1.8337,-1.8013,-1.7844,-1.7835,-1.8532,-2.0013,-2.1963,-2.27,-2.4104,-2.5893,-2.5893,-2.5893,-2.5893,-2.5893,-2.5893,-2.5893,0.0,0.0,0.0,0.0,0.0,0.0,0.0,0.0,0.0,0.0,0.0,-1.5313,-1.5313,-1.5264,-1.5205,-1.5313,-1.5264,-1.5088,-1.4843,-1.4734,0.0,0.0,-1.4958,-1.4907,-1.4497,-1.5173,-1.5578,-1.5624,-1.5872,-1.6017,-1.6035,-1.6156,-1.5543,-1.4423,-1.4956,-1.505,-1.4724,-1.4772,-1.4949,-1.5099,-1.494,-1.5192,-1.5692,-1.5289,-1.5613,-1.6142,-1.5648,-1.585,-1.6403,-1.6342,-1.6473,-1.6648,-1.6962,0.0,0.0,0.0,-1.8141,-1.8372,-1.825,-1.8021,-1.7746,0.0,-1.77,-1.77,-1.7619,-1.7103,-1.6575,-1.619,-1.4797,-1.3279,-1.208,-1.1565,-1.1335,-1.126,-1.131,-1.1522,-1.1893,-1.1928,-1.1957,-1.1853,-1.1969,-1.2034,-1.1997,-1.2275,-1.2652,-1.3005,-1.3157,-1.3355,-1.3483,-1.3611,-1.3973,-1.4571,-1.5366,-1.612,-1.6794,-1.7546,-1.8081,-1.8464,-1.8351,-1.8293,-1.8226,-1.8066,-1.792,-1.7723,-1.8047,-1.938,-2.1358,-2.2018,-2.3553,-2.5416,-2.5767,-2.5893,-2.5893,-2.5893,-2.5893,-2.5893,0.0,0.0,0.0,0.0,0.0,0.0,0.0,0.0,0.0,0.0,0.0,-1.5186,-1.5088,0.0,0.0,0.0,-1.5088,-1.4911,-1.4666,0.0,0.0,0.0,0.0,-1.4808,-1.4515,-1.5093,-1.5441,-1.5542,-1.5643,-1.5834,-1.5977,-1.6578,-1.616,-1.5074,-1.5379,-1.5303,-1.4941,-1.479,-1.4806,-1.4887,-1.4907,-1.5202,-1.5718,-1.53,-1.567,-1.6376,-1.5601,-1.5799,-1.6351,-1.6351,-1.6484,-1.6722,-1.7009,-1.7207,0.0,0.0,0.0,-1.7852,0.0,0.0,-1.7721,-1.7738,-1.7781,-1.7781,-1.7781,-1.7259,-1.6935,-1.718,-1.6137,-1.4699,-1.298,-1.2512,-1.2224,-1.1774,-1.1717,-1.1752,-1.2045,-1.2223,-1.2304,-1.2208,-1.2385,-1.2365,-1.2123,-1.2387,-1.2645,-1.2802,-1.3009,-1.3209,-1.3275,-1.3399,-1.3736,-1.4285,-1.5004,-1.5693,-1.6415,-1.729,-1.7865,-1.8084,-1.8084,-1.8084,-1.8084,-1.8084,-1.7975,-1.781,-1.781,-1.8885,-2.0759,-2.1549,-2.3003,-2.481,-2.56,-2.5893,-2.5893,-2.5893,-2.5893,-2.5893,0.0,0.0,0.0,0.0,0.0,0.0,0.0,0.0,0.0,0.0,0.0,-1.4706,-1.4715,-1.4616,-1.4515,-1.4575,-1.4515,-1.4515,-1.4506,0.0,0.0,0.0,0.0,0.0,-1.4515,-1.4552,-1.4753,-1.5129,-1.5505,-1.5695,-1.5748,-1.6345,-1.6237,-1.5525,-1.6375,-1.6474,-1.5913,-1.535,-1.5369,-1.5741,-1.5694,-1.5787,-1.6069,-1.6469,-1.6678,-1.6797,-1.6678,-1.6615,-1.661,-1.6819,-1.6883,-1.6893,-1.6906,-1.7315,-1.7703,0.0,0.0,0.0,-1.7828,-1.7518,0.0,-1.778,-1.7959,-1.7959,-1.7959,-1.7397,-1.6935,-1.7136,-1.661,-1.5867,-1.5392,-1.3818,-1.2739,-1.323,-1.2346,-1.1748,-1.2104,-1.2061,-1.2065,-1.2255,-1.2321,-1.2318,-1.2303,-1.216,-1.2311,-1.2763,-1.285,-1.2915,-1.3116,-1.3116,-1.343,-1.4154,-1.4904,-1.5776,-1.6687,-1.7501,-1.7963,-1.8084,-1.8084,-1.8084,-1.8084,-1.8084,-1.8084,-1.8084,-1.8084,-1.8842,-2.0232,-2.1453,-2.2799,-2.4191,-2.5423,-2.5893,-2.5893,-2.5893,-2.5893,-2.5893,0.0,0.0,0.0,0.0,0.0,0.0,0.0,0.0,0.0,0.0,0.0,0.0,0.0,-1.4506,-1.4515,-1.4515,-1.4515,0.0,0.0,0.0,0.0,0.0,0.0,0.0,0.0,-1.4515,-1.4708,-1.5102,-1.5239,-1.5588,-1.6102,-1.6315,-1.6249,-1.5991,-1.5808,-1.5664,-1.5607,-1.5088,-1.5186,-1.5734,-1.5702,-1.6173,-1.674,-1.6222,-1.6485,-1.704,-1.6653,-1.6547,-1.6704,-1.7134,-1.7049,-1.6756,-1.6911,-1.6884,-1.6713,-1.6828,-1.6782,-1.6923,-1.7362,0.0,0.0,-1.7787,-1.7996,-1.8136,-1.839,-1.7769,-1.7212,-1.7662,-1.6964,-1.6342,-1.6751,-1.5613,-1.4394,-1.352,-1.3216,-1.3006,-1.2732,-1.2537,-1.2556,-1.291,-1.2758,-1.26,-1.2649,-1.271,-1.2727,-1.2813,-1.2867,-1.2992,-1.3232,-1.2929,-1.3473,-1.4923,-1.5119,-1.6032,-1.7788,-1.8073,-1.8259,-1.8313,-1.8139,-1.8084,-1.8084,-1.8084,-1.8084,-1.8084,-1.8084,-1.8666,-1.9609,-2.0879,-2.197,-2.2958,-2.4685,-2.5303,-2.5359,-2.5753,-2.5893,-2.5893,0.0,0.0,0.0,-1.6277,0.0,-1.6074,-1.539,-1.5615,-1.5642,-1.489,0.0,0.0,0.0,0.0,-1.4515,-1.4515,-1.4515,-1.4515,-1.4515,-1.4515,0.0,0.0,0.0,0.0,0.0,-1.4515,-1.4643,-1.49,-1.5166,-1.5442,-1.5778,-1.6178,-1.6237,-1.6008,-1.5463,-1.5401,-1.5659,-1.5065,-1.5231,-1.5944,-1.615,-1.6571,-1.7056,-1.6698,-1.6857,-1.7175,-1.6943,-1.6838,-1.686,-1.7395,-1.7446,-1.7199,-1.7007,-1.659,-1.614,-1.6523,-1.6613,-1.6685,-1.7138,-1.7257,-1.745,-1.7896,-1.8,-1.819,-1.8726,-1.8148,-1.7662,-1.8119,-1.7433,-1.6994,-1.748,-1.6849,-1.5878,-1.4783,-1.4522,-1.425,-1.3535,-1.3701,-1.3776,-1.3532,-1.3569,-1.3423,-1.3029,-1.3155,-1.3194,-1.2891,-1.3042,-1.3216,-1.339,-1.3268,-1.4034,-1.5911,-1.611,-1.6957,-1.8464,-1.8422,-1.8422,-1.8464,-1.8356,-1.8247,-1.8193,-1.8193,-1.8139,-1.8084,-1.8084,-1.8398,-1.8958,-2.0469,-2.1381,-2.1952,-2.3927,-2.4797,-2.5036,-2.543,-2.5725,-2.5893,-1.7434,-1.6798,-1.6249,-1.6185,-1.5811,-1.5371,-1.5067,-1.5018,-1.4909,-1.4602,0.0,0.0,0.0,0.0,0.0,-1.4543,-1.4543,-1.4543,-1.4533,-1.4533,0.0,0.0,0.0,0.0,-1.4515,-1.4515,-1.4515,-1.4515,-1.5294,-1.5414,-1.4872,-1.6026,-1.618,-1.5538,-1.5469,-1.5682,-1.6026,-1.547,-1.5614,-1.6349,-1.6998,-1.7048,-1.6857,-1.7866,-1.7659,-1.7,-1.7668,-1.7548,-1.7178,-1.7657,-1.8106,-1.8168,-1.7231,-1.6509,-1.614,-1.6515,-1.6358,-1.6298,0.0,0.0,0.0,-1.8114,-1.8082,-1.8067,-1.9003,-1.8669,-1.81,-1.8313,-1.8061,-1.7783,-1.7705,-1.736,-1.7083,-1.6927,-1.607,-1.5226,-1.4744,-1.557,-1.572,-1.4072,-1.4673,-1.4782,-1.3514,-1.3558,-1.3517,-1.3152,-1.3407,-1.358,-1.3571,-1.4154,-1.5245,-1.6957,-1.7897,-1.8464,-1.8614,-1.8464,-1.8464,-1.8614,-1.8614,-1.8518,-1.8422,-1.8422,-1.8313,-1.8084,-1.8084,-1.8139,-1.8282,-2.0245,-2.1094,-2.125,-2.3303,-2.4455,-2.4924,-2.4952,-2.5331,-2.5837,-1.694,-1.6826,-1.66,-1.6459,-1.6722,-1.6626,-1.564,-1.598,-1.6064,0.0,0.0,0.0,-1.4964,-1.4937,-1.5056,-1.5331,-1.5359,-1.5239,-1.4955,-1.4937,-1.4808,-1.4524,-1.4515,-1.4515,-1.4515,-1.4515,-1.4515,-1.4515,-1.501,-1.5349,-1.546,-1.5798,-1.6008,-1.6044,-1.5515,-1.5365,-1.5441,-1.5291,-1.5599,-1.6252,-1.6236,-1.6598,-1.7127,-1.6983,-1.7038,-1.7239,-1.7631,-1.7571,-1.7485,-1.8364,-1.825,-1.7561,-1.6715,-1.6232,-1.5955,-1.6201,-1.6351,-1.6447,-1.6528,0.0,0.0,0.0,0.0,0.0,-1.833,-1.7906,-1.7606,-1.8184,-1.753,-1.6994,-1.7539,-1.7441,-1.7402,-1.7556,-1.6835,-1.5978,-1.5466,-1.5992,-1.6341,-1.6018,-1.633,-1.6446,-1.6054,-1.6235,-1.6071,-1.5425,-1.56,-1.5644,-1.5391,-1.5958,-1.6461,-1.6757,-1.771,-1.8302,-1.8614,-1.8464,-1.8422,-1.8464,-1.8464,-1.8422,-1.8422,-1.8518,-1.8464,-1.8313,-1.8313,-1.8518,-1.8987,-2.004,-2.0463,-2.0617,-2.2592,-2.3463,-2.3674,-2.4151,-2.447,-2.4695,-1.6759,-1.676,-1.6694,-1.6751,-1.6685,-1.6328,-1.5642,-1.5826,-1.5955,0.0,0.0,0.0,-1.5377,-1.5349,-1.5432,-1.567,-1.5689,-1.5524,-1.5129,-1.5102,-1.4928,-1.4533,-1.4515,-1.4588,-1.4753,-1.4753,-1.4836,-1.5001,-1.5404,-1.5634,-1.5698,-1.6037,-1.6233,-1.6309,-1.5687,-1.5426,-1.5426,-1.5082,-1.5189,-1.5594,-1.5882,-1.6126,-1.6259,-1.648,-1.6519,-1.6668,-1.6995,-1.7079,-1.7192,-1.8066,-1.797,-1.7364,-1.6839,-1.6504,-1.628,-1.6228,-1.6528,-1.6829,-1.6596,-1.678,-1.6986,-1.7286,0.0,0.0,-1.7806,-1.755,-1.7281,-1.7653,-1.7368,-1.7102,-1.7458,-1.7357,-1.7412,-1.7955,-1.7445,-1.6816,-1.6555,-1.7248,-1.7522,-1.6913,-1.7385,-1.7629,-1.7091,-1.7249,-1.716,-1.6646,-1.6668,-1.666,-1.6549,-1.6866,-1.7157,-1.7291,-1.7831,-1.8247,-1.8518,-1.8422,-1.8422,-1.8464,-1.853,-1.853,-1.8464,-1.8625,-1.8625,-1.8464,-1.8422,-1.8721,-1.9331,-1.994,-2.0383,-2.0759,-2.2166,-2.2873,-2.314,-2.3519,-2.3878,-2.416,0.0,-1.6609,-1.6599,-1.6892,-1.6064,-1.5364,-1.5364,-1.5302,-1.5249,0.0,-1.5524,-1.5689,-1.5689,-1.5689,-1.5707,-1.5753,-1.5799,-1.5652,-1.5258,-1.5194,-1.4992,-1.4588,-1.4533,-1.468,-1.5029,-1.5084,-1.5276,-1.5625,-1.6046,-1.6083,-1.5771,-1.6505,-1.6679,-1.6327,-1.6044,-1.5833,-1.5762,-1.495,-1.4585,-1.4665,-1.5682,-1.5583,-1.5015,-1.6102,-1.6158,-1.5697,-1.6133,-1.6362,-1.6657,-1.7269,-1.7441,-1.7433,-1.7284,-1.7095,-1.6856,-1.6536,-1.6866,-1.7288,-1.7067,-1.688,-1.6878,-1.7392,-1.6936,0.0,-1.7352,-1.7302,-1.6989,-1.6959,-1.7216,-1.7437,-1.7373,-1.7175,-1.7292,-1.8068,-1.788,-1.7698,-1.7803,-1.8865,-1.8988,-1.7326,-1.821,-1.8471,-1.7346,-1.7534,-1.7606,-1.7397,-1.7153,-1.7127,-1.729,-1.7313,-1.7556,-1.8084,-1.8084,-1.8193,-1.8367,-1.8367,-1.841,-1.856,-1.8679,-1.8679,-1.8625,-1.8732,-1.8709,-1.8531,-1.8441,-1.878,-1.9428,-2.0004,-2.0584,-2.1286,-2.1935,-2.2521,-2.2999,-2.2999,-2.3364,-2.392,-1.599,-1.6298,-1.6449,-1.6187,-1.5945,-1.5858,-1.5858,-1.6008,-1.6193,-1.6514,-1.6046,-1.5689,-1.5689,-1.5689,-1.5826,-1.6166,-1.6486,-1.6505,-1.6111,-1.5762,-1.5395,-1.5001,-1.468,-1.4552,-1.4625,-1.4937,-1.5139,-1.5212,-1.5615,-1.5945,-1.6202,-1.6358,-1.656,-1.6798,-1.6376,-1.6053,-1.5745,-1.4829,-1.4429,-1.4501,-1.4906,-1.5148,-1.5311,-1.5592,-1.5654,-1.5682,-1.5988,-1.6065,-1.6207,-1.6966,-1.7115,-1.7038,-1.7355,-1.7303,-1.7177,-1.7261,-1.7575,-1.7916,-1.7908,-1.7731,-1.7534,-1.753,-1.7138,0.0,-1.6763,-1.6661,-1.6618,-1.6712,-1.6432,-1.6345,-1.6997,-1.7156,-1.7272,-1.74,-1.826,-1.8868,-1.8643,-1.9142,-1.9462,-1.9121,-1.9528,-1.977,-1.9467,-1.9662,-1.9662,-1.9372,-1.8814,-1.8318,-1.7931,-1.7909,-1.7975,-1.8084,-1.8084,-1.8139,-1.8139,-1.8073,-1.8139,-1.8422,-1.8476,-1.8583,-1.8744,-1.8893,-1.8665,-1.814,-1.8437,-1.8931,-1.9577,-2.0039,-2.0584,-2.1286,-2.1935,-2.2255,-2.2367,-2.2367,-2.2437,-2.262,-1.6233,-1.6337,-1.6372,-1.629,-1.5935,-1.5737,-1.586,-1.5935,-1.6156,-1.656,-1.6257,-1.6001,-1.6001,-1.6001,-1.6166,-1.6578,-1.6789,-1.6743,-1.6349,-1.612,-1.5817,-1.5414,-1.5203,-1.5102,-1.5102,-1.5496,-1.5707,-1.5707,-1.6101,-1.6404,-1.6615,-1.6615,-1.6757,-1.699,-1.6431,-1.6166,-1.61,-1.5097,-1.4598,-1.4481,-1.4615,-1.483,-1.5105,-1.545,-1.5541,-1.5454,-1.5462,-1.5658,-1.6012,-1.6528,-1.6953,-1.7209,-1.7406,-1.7622,-1.7742,-1.7471,-1.7877,-1.833,-1.8009,-1.7896,-1.7729,-1.7567,-1.7116,0.0,0.0,-1.6233,-1.6141,-1.6082,-1.5994,-1.6072,-1.6481,-1.6767,-1.696,-1.7191,-1.8049,-1.8531,-1.8274,-1.9057,-1.9605,-1.9605,-1.9813,-2.0009,-2.0074,-2.0216,-2.0147,-1.9912,-1.9545,-1.9069,-1.8552,-1.8221,-1.8084,-1.8084,-1.8084,-1.8084,-1.8084,-1.8139,-1.8139,-1.8139,-1.8476,-1.8583,-1.8637,-1.8893,-1.8802,-1.8522,-1.8614,-1.9236,-2.0129,-2.0267,-2.0832,-2.1732,-2.2077,-2.2184,-2.2184,-2.2184,-2.2184,-2.2226,-1.6503,-1.6514,-1.6444,-1.6477,-1.5853,-1.544,-1.5689,-1.5625,-1.5725,-1.6147,-1.6266,-1.6285,-1.6211,-1.6331,-1.656,-1.6881,-1.7046,-1.6972,-1.6569,-1.6477,-1.6276,-1.5936,-1.5771,-1.5725,-1.5808,-1.6147,-1.6321,-1.6321,-1.6716,-1.6908,-1.6908,-1.683,-1.6979,-1.7135,-1.6599,-1.6455,-1.665,-1.5621,-1.5145,-1.5041,-1.4768,-1.4624,-1.4579,-1.521,-1.5315,-1.5062,-1.4864,-1.5194,-1.5716,-1.6063,-1.6656,-1.7372,-1.7449,-1.7838,-1.8241,-1.768,-1.804,-1.8586,-1.8165,-1.797,-1.7831,-1.7594,-1.7019,-1.643,0.0,0.0,0.0,-1.5449,-1.5693,-1.6017,-1.6287,-1.6487,-1.6799,-1.739,-1.7964,-1.824,-1.8012,-1.8975,-1.962,-1.9521,-1.9803,-2.003,-2.0205,-2.0193,-2.0101,-1.9901,-1.9795,-1.9517,-1.8988,-1.8506,-1.8242,-1.815,-1.8139,-1.8084,-1.8084,-1.8259,-1.8193,-1.7952,-1.8412,-1.8484,-1.8258,-1.8577,-1.8626,-1.8554,-1.8706,-1.9393,-2.0296,-2.0492,-2.1224,-2.2184,-2.2184,-2.2184,-2.2184,-2.2184,-2.2184,-2.2184,-1.5761,-1.6478,-1.6868,-1.6086,-1.5661,-1.544,-1.5689,-1.5395,-1.5313,-1.5707,-1.6083,-1.6175,-1.5799,-1.6404,-1.6862,-1.6899,-1.7568,-1.7807,-1.7385,-1.7037,-1.6817,-1.6771,-1.6074,-1.5863,-1.6239,-1.6294,-1.6321,-1.6321,-1.6716,-1.6908,-1.6908,-1.6751,-1.6829,-1.7225,-1.7108,-1.7078,-1.7107,-1.6512,-1.6391,-1.6546,-1.5324,-1.4489,-1.3962,-1.4529,-1.4601,-1.4497,-1.4569,-1.4816,-1.5057,-1.5471,-1.6055,-1.6724,-1.7139,-1.7666,-1.8204,-1.8426,-1.8614,-1.877,-1.9026,-1.8586,-1.7963,-1.7731,-1.7088,-1.6412,-1.5966,0.0,-1.5706,-1.5449,0.0,-1.5841,-1.6873,0.0,0.0,-1.8393,-1.896,-1.9283,-1.9079,-1.9634,-1.9821,-1.9304,-1.9736,-2.0228,-2.0624,-2.0455,-2.0234,-1.9941,-1.9904,-1.9622,-1.9112,-1.8907,-1.8665,-1.8391,-1.8193,-1.8084,-1.8084,-1.8139,-1.8084,-1.8084,-1.7944,-1.7878,-1.7866,-1.7659,-1.7339,-1.6943,-1.8228,-1.8953,-1.9265,-2.0566,-2.1527,-2.2184,-2.2184,-2.2184,-2.2184,-2.2184,-2.2184,-2.2184,-1.6185,-1.6401,-1.6517,-1.6035,-1.5848,-1.5767,-1.5725,-1.5753,-1.5945,-1.634,-1.6349,-1.6422,-1.6707,-1.6835,-1.7101,-1.7578,-1.7926,-1.8054,-1.7871,-1.7706,-1.7614,-1.7614,-1.7055,-1.6716,-1.6661,-1.6661,-1.6551,-1.6321,-1.6569,-1.676,-1.6908,-1.6682,-1.6884,-1.7329,-1.7009,-1.7124,-1.7508,-1.6667,-1.6348,-1.6385,-1.5732,-1.4977,-1.4281,-1.4776,-1.4856,-1.4649,-1.4641,-1.4784,-1.5127,-1.556,-1.5939,-1.6471,-1.7295,-1.7709,-1.8038,-1.838,-1.8783,-1.9036,-1.8971,-1.8616,-1.8147,-1.7812,-1.7378,-1.686,-1.6027,-1.5989,-1.6153,-1.6077,0.0,0.0,0.0,0.0,0.0,0.0,-1.9008,-1.934,-1.8858,-1.9567,-2.0199,-2.047,-2.0319,-2.0366,-2.0664,-2.0476,-2.0302,-2.0344,-1.9932,-1.9503,-1.9181,-1.8816,-1.8487,-1.8096,-1.7975,-1.792,-1.7963,-1.7787,-1.7585,-1.7402,-1.7403,-1.7311,-1.7085,-1.7175,-1.7243,-1.7277,-1.7873,-1.8592,-1.936,-2.0281,-2.1115,-2.1784,-2.209,-2.2184,-2.2184,-2.2184,-2.2184,-2.2184,-1.6609,-1.6596,-1.6545,-1.6265,-1.6175,-1.6033,-1.5753,-1.6138,-1.6578,-1.6872,-1.6752,-1.6899,-1.7596,-1.7504,-1.7642,-1.8229,-1.8495,-1.8568,-1.8458,-1.8449,-1.8449,-1.8449,-1.7871,-1.746,-1.7248,-1.7128,-1.6941,-1.6545,-1.6684,-1.6821,-1.6908,-1.6621,-1.6768,-1.7261,-1.6937,-1.7119,-1.7761,-1.7035,-1.6704,-1.6698,-1.6104,-1.5397,-1.4784,-1.4999,-1.507,-1.4919,-1.4672,-1.4838,-1.5292,-1.5295,-1.5744,-1.6365,-1.7102,-1.7453,-1.7684,-1.8015,-1.8361,-1.8681,-1.8506,-1.823,-1.8021,-1.7891,-1.7658,-1.7267,-1.6477,-1.655,-1.681,-1.681,-1.681,0.0,0.0,0.0,-1.8309,-1.8685,0.0,-1.9462,-1.9158,-1.9834,-2.0469,-2.0961,-2.0761,-2.0613,-2.076,-2.0535,-2.0565,-2.1019,-2.0185,-1.9688,-1.9778,-1.9016,-1.8452,-1.8124,-1.7834,-1.7755,-1.7854,-1.7581,-1.7213,-1.6916,-1.6888,-1.6685,-1.6417,-1.6727,-1.6991,-1.7296,-1.7713,-1.8377,-1.927,-1.9999,-2.0716,-2.1358,-2.1809,-2.2076,-2.2184,-2.2184,-2.2184,-2.2217,-1.6751,-1.7167,-1.7314,-1.6959,-1.6569,-1.6175,-1.5753,-1.6367,-1.689,-1.6908,-1.7229,-1.7623,-1.8054,-1.844,-1.8669,-1.8687,-1.9412,-1.9696,-1.9292,-1.9265,-1.9265,-1.9265,-1.8352,-1.7859,-1.8082,-1.7833,-1.7487,-1.7148,-1.7166,-1.7097,-1.6908,-1.6342,-1.6279,-1.668,-1.7011,-1.7395,-1.7796,-1.7769,-1.797,-1.8205,-1.6657,-1.5696,-1.5133,-1.5007,-1.5007,-1.5084,-1.4608,-1.4846,-1.5325,-1.4479,-1.523,-1.6503,-1.6139,-1.6581,-1.7189,-1.7261,-1.7213,-1.7283,-1.7744,-1.76,-1.7512,-1.8072,-1.783,-1.752,-1.7533,-1.7534,-1.7578,-1.7578,-1.7578,-1.7841,-1.8691,-1.8543,-1.878,-2.0195,-2.0093,0.0,0.0,-2.0788,-2.0643,-2.0037,-2.073,-2.1219,-2.1026,-2.0869,-2.1087,-2.179,-2.0955,-2.0638,-2.1212,-1.9943,-1.8991,-1.8589,-1.8014,-1.7711,-1.7711,-1.7474,-1.7213,-1.6916,-1.6529,-1.6161,-1.5829,-1.6125,-1.6249,-1.6318,-1.7739,-1.8409,-1.8535,-1.9778,-2.0608,-2.1122,-2.133,-2.1756,-2.2184,-2.2184,-2.2184,-2.2278,-1.7418,-1.7425,-1.7392,-1.6978,-1.6798,-1.6661,-1.6514,-1.6954,-1.7293,-1.7293,-1.766,-1.7963,-1.8109,-1.8476,-1.8715,-1.8715,-1.9201,-1.9577,-1.9714,-1.9457,-1.954,-2.0081,-1.8902,-1.8507,-1.9062,-1.8358,-1.793,-1.7788,-1.7638,-1.7507,-1.7263,-1.6839,-1.6767,-1.7008,-1.7142,-1.7336,-1.7631,-1.7718,-1.7787,-1.7743,-1.6704,-1.5986,-1.5576,-1.5363,-1.5284,-1.5155,-1.4592,-1.462,-1.493,-1.4438,-1.4647,-1.5257,-1.5848,-1.6109,-1.633,-1.6818,-1.7088,-1.7144,-1.7283,-1.7022,-1.6905,-1.7569,-1.7677,-1.7573,-1.759,-1.7961,-1.8433,-1.885,-1.8585,-1.8714,-1.997,-1.984,-1.9747,-2.041,-2.0448,-2.0498,0.0,-2.0861,-2.0864,-2.0668,-2.1522,-2.1895,-2.1347,-2.0876,-2.0957,-2.1811,-2.1276,-2.1158,-2.1697,-2.0873,-2.0013,-1.9144,-1.8467,-1.8147,-1.8224,-1.7484,-1.7055,-1.7093,-1.664,-1.6223,-1.5794,-1.6205,-1.6565,-1.6876,-1.7395,-1.7864,-1.8331,-1.9142,-1.9878,-2.0564,-2.1013,-2.1545,-2.2091,-2.2184,-2.2184,-2.2356,-1.7639,-1.7781,-1.7748,-1.718,-1.7238,-1.7284,-1.7138,-1.733,-1.7495,-1.7495,-1.7734,-1.7954,-1.8109,-1.8476,-1.8715,-1.8715,-1.921,-1.9641,-1.9916,-1.9806,-1.9971,-2.0493,-1.9682,-1.9316,-1.9557,-1.9156,-1.859,-1.7858,-1.7991,-1.7713,-1.7184,-1.6835,-1.6756,-1.7018,-1.7152,-1.7261,-1.7395,-1.7742,-1.7708,-1.7449,-1.6676,-1.6131,-1.5788,-1.5432,-1.5225,-1.5035,-1.4542,-1.4486,-1.4614,-1.4233,-1.4371,-1.488,-1.551,-1.5701,-1.5761,-1.623,-1.6466,-1.6656,-1.6967,-1.6885,-1.6858,-1.7641,-1.782,-1.7972,-1.8298,-1.8738,-1.9214,-1.9867,-1.9897,-1.9937,-2.0547,-2.0616,-2.0579,-2.0588,-2.0662,-2.0699,0.0,-2.0947,-2.1033,-2.1131,-2.1736,-2.1927,-2.1453,-2.1043,-2.13,-2.2377,-2.1886,-2.1844,-2.2614,-2.1661,-2.0753,-1.9965,-1.9149,-1.8727,-1.8845,-1.7793,-1.7315,-1.746,-1.6814,-1.6337,-1.6064,-1.6552,-1.6905,-1.7199,-1.7378,-1.7706,-1.811,-1.8535,-1.9266,-2.0126,-2.0603,-2.1258,-2.1949,-2.2137,-2.2449,-2.292,-1.7619,-1.812,-1.8408,-1.7703,-1.7889,-1.8009,-1.7587,-1.7541,-1.7541,-1.7504,-1.7513,-1.766,-1.8027,-1.844,-1.8687,-1.8687,-1.9412,-1.9888,-1.9934,-2.0264,-2.0475,-2.0521,-2.0559,-2.0264,-1.9655,-2.0148,-1.9483,-1.7596,-1.8126,-1.7827,-1.6702,-1.645,-1.6482,-1.6639,-1.7058,-1.7208,-1.7225,-1.781,-1.7814,-1.7432,-1.6685,-1.616,-1.5703,-1.5197,-1.4976,-1.4841,-1.4363,-1.437,-1.4569,-1.3759,-1.4311,-1.5322,-1.5131,-1.5331,-1.5615,-1.5343,-1.5407,-1.5744,-1.6585,-1.695,-1.7323,-1.8139,-1.8293,-1.8519,-1.9399,-1.9619,-1.9768,-2.0476,-2.11,-2.1326,-2.0412,-2.0811,-2.116,-2.083,-2.0725,-2.0749,-2.0947,-2.0997,-2.1082,-2.1375,-2.145,-2.145,-2.1423,-2.145,-2.2002,-2.3406,-2.2764,-2.2818,-2.4026,-2.2305,-2.125,-2.1094,-2.0044,-1.9423,-1.9423,-1.8449,-1.7939,-1.7927,-1.6992,-1.6552,-1.6552,-1.7031,-1.724,-1.724,-1.772,-1.7882,-1.7922,-1.8123,-1.881,-1.9781,-2.0043,-2.0823,-2.186,-2.2123,-2.2965,-2.4006,-1.8387,-1.8502,-1.8629,-1.8403,-1.8485,-1.8421,-1.8027,-1.821,-1.8183,-1.7578,-1.777,-1.777,-1.7275,-1.7853,-1.8275,-1.8275,-1.8742,-1.9283,-1.9888,-1.9732,-1.9879,-2.0493,-1.9901,-1.97,-1.9784,-1.9937,-1.9632,-1.8821,-1.8856,-1.8562,-1.8093,-1.7605,-1.7304,-1.7273,-1.7636,-1.7752,-1.7667,-1.7866,-1.7624,-1.691,-1.6528,-1.5878,-1.5065,-1.4713,-1.4362,-1.4101,-1.3944,-1.3975,-1.4026,-1.3926,-1.4082,-1.4416,-1.4569,-1.4777,-1.4888,-1.4548,-1.4869,-1.5349,-1.5294,-1.5635,-1.619,-1.694,-1.7159,-1.7322,-1.8118,-1.8277,-1.8536,-1.9283,-1.9585,-1.9991,-2.0966,-2.0914,-2.0874,-2.134,-2.1038,-2.0762,-2.0875,-2.0961,-2.1033,-2.1229,-2.1879,-2.2073,-2.1464,-2.1942,-2.2629,-2.3434,-2.3781,-2.43,-2.5077,-2.369,-2.2644,-2.2037,-2.0823,-2.008,-1.9978,-1.9054,-1.8503,-1.8435,-1.7833,-1.7323,-1.6879,-1.7365,-1.7638,-1.772,-1.7842,-1.7882,-1.7882,-1.7963,-1.8399,-1.908,-1.925,-2.0314,-2.1883,-2.2491,-2.3463,-2.4511,-1.9069,-1.8867,-1.8778,-1.8907,-1.8687,-1.8385,-1.8155,-1.8311,-1.8219,-1.7578,-1.7697,-1.7606,-1.7079,-1.7505,-1.7779,-1.7706,-1.8145,-1.865,-1.9109,-1.9081,-1.9246,-1.9795,-1.9897,-1.9809,-1.9754,-2.0333,-1.9987,-1.865,-1.8957,-1.8734,-1.7939,-1.7754,-1.7588,-1.7608,-1.7807,-1.7903,-1.7898,-1.7723,-1.7281,-1.6751,-1.6229,-1.5695,0.0,-1.4728,-1.4464,-1.4247,-1.4135,-1.4013,-1.3925,-1.396,-1.407,-1.4258,-1.4497,-1.4545,-1.4456,-1.4609,-1.484,-1.5116,-1.5476,-1.5811,-1.6171,-1.6643,-1.6954,-1.7278,-1.7798,-1.8091,-1.851,-1.9068,-1.9395,-1.9735,-2.02,-2.0432,-2.0716,-2.1182,-2.0972,-2.0762,-2.0888,-2.0961,-2.1033,-2.118,-2.2029,-2.23,-2.1477,-2.2128,-2.2844,-2.342,-2.3909,-2.4609,-2.5453,-2.4214,-2.3266,-2.2818,-2.1165,-2.028,-2.0182,-1.9173,-1.8563,-1.8455,-1.7954,-1.7543,-1.7297,-1.7502,-1.772,-1.7935,-1.7842,-1.7842,-1.7882,-1.7882,-1.8276,-1.8903,-1.9709,-2.0869,-2.2204,-2.3139,-2.396,-2.4688,-1.9653,-1.9197,-1.892,-1.9261,-1.8687,-1.8183,-1.8128,-1.8082,-1.7908,-1.7541,-1.7449,-1.735,-1.7144,-1.735,-1.7368,-1.7216,-1.7688,-1.8064,-1.8119,-1.8449,-1.8718,-1.8889,-1.9863,-2.0039,-1.9476,-2.0634,-2.0124,-1.7967,-1.8796,-1.8592,-1.7417,-1.7552,-1.7666,-1.7794,-1.775,-1.792,-1.8043,-1.7413,-1.7051,-1.6722,-1.5891,-1.556,-1.5405,-1.4943,-1.4692,-1.4709,-1.4538,-1.43,-1.407,-1.407,-1.4318,-1.4625,-1.4775,-1.4638,-1.4496,-1.5194,-1.5149,-1.5174,-1.6207,-1.6518,-1.6619,-1.6652,-1.7093,-1.7589,-1.7718,-1.8199,-1.8706,-1.9009,-1.9577,-1.9765,-1.8908,-1.9764,-2.062,-2.0686,-2.0646,-2.0657,-2.0782,-2.0921,-2.1033,-2.1229,-2.2029,0.0,-2.1477,-2.221,-2.2885,-2.3259,-2.3606,-2.4238,-2.5315,-2.4173,-2.3398,-2.328,-2.1363,-2.0247,-2.0167,-1.9106,-1.8445,-1.8262,-1.7681,-1.7502,-1.7639,-1.7474,-1.7625,-1.7962,-1.7788,-1.776,-1.7882,-1.7882,-1.8221,-1.8848,-2.0497,-2.1657,-2.2503,-2.362,-2.4312,-2.4759,-1.9889,-1.9762,-1.962,-1.9338,-1.8916,-1.8495,-1.8174,-1.7834,-1.7578,-1.7504,-1.7211,-1.7009,-1.6948,-1.7009,-1.7138,-1.7396,-1.7559,-1.7752,-1.81,-1.8192,-1.8303,-1.8518,-1.8863,-1.886,-1.8529,-1.9292,-1.9443,-1.9062,-1.8734,-1.8776,-1.917,-1.8311,-1.8008,-1.8202,-1.8213,-1.8115,-1.7978,-1.7705,-1.7235,-1.6679,-1.5923,-1.5289,-1.48,-1.4436,-1.4288,-1.4339,-1.4437,-1.4469,-1.441,-1.4538,-1.4725,-1.497,-1.5459,-1.5736,-1.5874,-1.5764,-1.599,-1.6185,-1.5579,-1.5636,-1.5942,-1.5948,-1.6175,-1.6369,-1.647,-1.6601,-1.6796,-1.7118,-1.7638,-1.8292,-1.8852,-1.958,-2.0294,-2.0769,-2.0355,-2.0053,-2.0279,-2.0691,-2.1082,-2.1326,-2.2128,-2.23,-2.1477,-2.2679,-2.3275,-2.2775,-2.3771,-2.4472,-2.4504,-2.3753,-2.3228,-2.3043,-2.1653,-2.0611,-2.0038,-1.9533,-1.8901,-1.8131,-1.7697,-1.7461,-1.7432,-1.7404,-1.7515,-1.7747,-1.772,-1.776,-1.7882,-1.7882,-1.7936,-1.8181,-1.9349,-2.0573,-2.1694,-2.2813,-2.4044,-2.5201,-2.0346,-2.0014,-1.9706,-1.9469,-1.8709,-1.8018,-1.799,-1.753,-1.7266,-1.7468,-1.733,-1.714,-1.7079,-1.6958,-1.6912,-1.7024,-1.7254,-1.7407,-1.7611,-1.771,-1.7844,-1.8048,-1.8337,-1.8404,-1.8112,-1.8883,-1.918,-1.8955,-1.8679,-1.8689,-1.9098,-1.8311,-1.8076,-1.8163,-1.8477,-1.8428,-1.8008,-1.7813,-1.7321,-1.6607,-1.5814,-1.53,-1.5059,-1.4883,-1.4834,-1.4834,-1.4834,-1.4893,-1.5001,-1.5332,-1.568,-1.614,-1.6507,-1.6358,-1.6053,-1.6209,-1.6064,-1.5799,-1.5553,-1.5614,-1.5836,-1.5869,-1.6207,-1.6487,-1.638,-1.6617,-1.6873,-1.6812,-1.7007,-1.7496,-1.8286,-1.8996,-1.9514,-1.9838,-2.007,-2.0188,-2.003,-2.0541,-2.101,-2.118,-2.1916,-2.2101,-2.1477,-2.2387,-2.2862,-2.2396,-2.3289,-2.3931,-2.4082,-2.373,-2.3339,-2.2884,-2.1252,-2.0075,-1.9436,-1.8689,-1.8077,-1.7544,-1.7342,-1.7295,-1.7404,-1.7225,-1.7391,-1.7801,-1.7597,-1.7679,-1.7922,-1.7935,-1.8055,-1.8388,-1.9559,-2.0735,-2.197,-2.3072,-2.4217,-2.5185,-2.0512,-2.0012,-1.9669,-1.9434,-1.8425,-1.7648,-1.78,-1.7306,-1.7088,-1.733,-1.7367,-1.7305,-1.7171,-1.696,-1.683,-1.6742,-1.7028,-1.7235,-1.7245,-1.7392,-1.7529,-1.7706,-1.8052,-1.816,-1.8018,-1.8672,-1.8936,-1.8769,-1.8682,-1.8682,-1.8769,-1.834,-1.8096,-1.8037,-1.8579,-1.8511,-1.8008,-1.7716,-1.7243,-1.6597,-1.5869,-1.5498,-1.541,-1.541,-1.5468,-1.5526,-1.5536,-1.5758,-1.6063,-1.6448,-1.6639,-1.6795,-1.7179,-1.674,-1.6154,-1.6636,-1.6197,-1.561,-1.5816,-1.5925,-1.5957,-1.6044,-1.6552,-1.6896,-1.6665,-1.6979,-1.7301,-1.6965,-1.6918,-1.7166,-1.8026,-1.8369,-1.8617,-1.9074,-1.9808,-2.0227,-1.99,-2.0456,-2.0924,-2.0997,-2.1559,-2.1766,-2.138,-2.1808,-2.2096,-2.2001,-2.2636,-2.3109,-2.3447,-2.3365,-2.3043,-2.2552,-2.0904,-1.9643,-1.8911,-1.8009,-1.7405,-1.7044,-1.7044,-1.717,-1.7363,-1.7086,-1.7253,-1.776,-1.7515,-1.7597,-1.7922,-1.8042,-1.8305,-1.8725,-2.0247,-2.1386,-2.234,-2.3638,-2.4515,-2.5107,-1.9889,-1.9754,-1.9667,-1.8892,-1.8345,-1.8014,-1.78,-1.7446,-1.7116,-1.6954,-1.6963,-1.6963,-1.6963,-1.6927,-1.6968,-1.7097,-1.7166,-1.7314,-1.7461,-1.747,-1.7529,-1.7706,-1.7745,-1.7832,-1.8008,-1.8086,-1.8496,-1.9228,-1.8828,-1.8919,-1.9466,-1.886,-1.8379,-1.8018,-1.8096,-1.8086,-1.7988,-1.7607,-1.7168,-1.6689,-1.6201,-1.5762,-1.541,-1.541,-1.5642,-1.6104,-1.6415,-1.718,-1.8043,-1.8052,-1.7066,-1.5954,-1.6712,-1.6945,-1.7013,-1.7137,-1.7078,-1.6893,-1.6323,-1.6318,-1.6436,-1.6349,-1.6658,-1.6897,-1.6846,-1.6914,-1.694,-1.6973,-1.6918,-1.7338,-1.8798,-1.8048,-1.7748,-1.9601,-1.9449,-1.9284,-1.9925,-2.0518,-2.0924,-2.0997,-2.1086,-2.1099,-2.1046,-2.1086,-2.1289,-2.1718,-2.2003,-2.2159,-2.2072,-2.1981,-2.1799,-2.1642,-2.0987,-2.0083,-1.8911,-1.8793,-1.8231,-1.7199,-1.7199,-1.7199,-1.7199,-1.7199,-1.7253,-1.7446,-1.7502,-1.7666,-1.7922,-1.8358,-1.8592,-1.8821,-2.0998,-2.2003,-2.2401,-2.4108,-2.4863,-2.5091,-1.9639,-1.9487,-1.9249,-1.8905,-1.8432,-1.7991,-1.7805,-1.7555,-1.7323,-1.7254,-1.7047,-1.6978,-1.7038,-1.7107,-1.7176,-1.7392,-1.7442,-1.751,-1.7579,-1.7735,-1.7803,-1.7862,-1.7862,-1.794,-1.8008,-1.8008,-1.8301,-1.8896,-1.8721,-1.8857,-1.9442,-1.9111,-1.8799,-1.8389,-1.8389,-1.8242,-1.7978,-1.7559,-1.7129,-1.667,-1.5957,-1.5566,-1.541,-1.5546,-1.5931,-1.6472,-1.6631,-1.7335,-1.807,-1.774,-1.7642,-1.7718,-1.78,-1.7505,-1.7152,-1.7186,-1.6945,-1.6547,-1.6249,-1.6362,-1.6479,-1.6479,-1.6705,-1.6876,-1.6876,-1.6876,-1.6918,-1.6918,-1.696,-1.7187,-1.7856,-1.783,-1.7974,-1.8816,-1.9272,-1.9488,-1.937,-2.0171,-2.0693,-2.0422,-2.0637,-2.0848,-2.0997,-2.0961,-2.1004,-2.1266,-2.2058,-2.2711,-2.3194,-2.2959,-2.2707,-2.2544,-2.0989,-1.9747,-1.8858,-1.8187,-1.7613,-1.7073,-1.7157,-1.7199,-1.7199,-1.7115,-1.7225,-1.7404,-1.7693,-1.8002,-1.8333,-1.8592,-1.9035,-1.9596,-2.0558,-2.1605,-2.2676,-2.2959,-2.3907,-2.4981,-1.929,-1.9087,-1.8846,-1.8639,-1.8299,-1.8002,-1.7754,-1.752,-1.7392,-1.7323,-1.7047,-1.6978,-1.7245,-1.7314,-1.7382,-1.7529,-1.7647,-1.7706,-1.7784,-1.794,-1.8008,-1.8008,-1.8008,-1.8008,-1.8008,-1.8008,-1.8213,-1.8562,-1.8562,-1.8799,-1.9092,-1.8965,-1.875,-1.8447,-1.8517,-1.8282,-1.786,-1.7698,-1.7244,-1.6609,-1.5979,-1.5645,-1.5594,-1.5941,-1.6482,-1.7069,-1.739,-1.7981,-1.8577,-1.7885,-1.8312,-1.8955,-1.8211,-1.7516,-1.7067,-1.7112,-1.6792,-1.6405,-1.6491,-1.665,-1.6765,-1.6735,-1.6905,-1.7086,-1.7002,-1.7002,-1.7002,-1.7002,-1.7002,-1.7044,-1.7199,-1.7568,-1.7982,-1.8196,-1.8922,-1.9337,-1.8996,-1.9821,-2.0306,-1.9996,-2.0407,-2.0814,-2.1173,-2.0967,-2.102,-2.1425,-2.2074,-2.2683,-2.3136,-2.3152,-2.2942,-2.2479,-2.0727,-1.9491,-1.8825,-1.7926,-1.7297,-1.7002,-1.7157,-1.7199,-1.7199,-1.7115,-1.717,-1.7404,-1.7733,-1.8094,-1.8563,-1.8831,-1.9391,-2.0131,-2.0524,-2.1487,-2.2564,-2.2295,-2.3228,-2.4586,-1.873,-1.8582,-1.8446,-1.8096,-1.8018,-1.794,-1.7706,-1.7442,-1.7107,-1.6908,-1.6908,-1.7047,-1.747,-1.747,-1.7529,-1.7706,-1.7706,-1.7784,-1.8008,-1.8008,-1.8008,-1.8008,-1.8008,-1.8008,-1.8008,-1.8008,-1.8213,-1.8562,-1.8562,-1.8562,-1.8562,-1.8223,-1.8018,-1.8018,-1.8357,-1.8165,-1.7615,-1.793,-1.7498,-1.6507,-1.6497,-1.6237,-1.5972,-1.6708,-1.7357,-1.8015,-1.8967,-1.967,-2.0053,-1.9149,-1.9102,-1.9105,-1.7427,-1.6816,-1.6731,-1.6931,-1.696,-1.6918,-1.7115,-1.731,-1.7434,-1.724,-1.7365,-1.7434,-1.724,-1.7199,-1.7199,-1.7199,-1.7073,-1.7044,-1.7199,-1.7212,-1.7437,-1.8087,-1.8222,-1.8447,-1.8995,-1.9494,-1.9812,-1.9799,-2.0309,-2.0972,-2.1653,-2.109,-2.1222,-2.2458,-2.2036,-2.1495,-2.0967,-2.1891,-2.1904,-2.0777,-2.0113,-1.9491,-1.8825,-1.833,-1.77,-1.7002,-1.7157,-1.7199,-1.7199,-1.7199,-1.7253,-1.7404,-1.7488,-1.7854,-1.8458,-1.9051,-1.963,-2.0212,-2.1412,-2.1884,-2.1979,-2.2627,-2.3322,-2.3923,-1.8242,-1.8213,-1.8164,-1.8037,-1.8008,-1.8008,-1.793,-1.7794,-1.7725,-1.7666,-1.7666,-1.7666,-1.7803,-1.7725,-1.7725,-1.7862,-1.793,-1.793,-1.8008,-1.8008,-1.8008,-1.8008,-1.8008,-1.8008,-1.8008,-1.8008,-1.8076,-1.8213,-1.8496,-1.886,-1.9308,-1.8934,-1.8864,-1.8982,-1.8816,-1.8603,-1.8354,-1.7748,-1.7272,-1.6908,-1.6307,-1.6035,-1.5914,-1.6275,-1.7146,-1.8232,-1.8608,-1.9527,-2.0367,-1.9256,-1.9256,-1.9422,-1.8143,-1.7552,-1.7408,-1.757,-1.7385,-1.7115,-1.7199,-1.7352,-1.7434,-1.724,-1.7352,-1.7434,-1.724,-1.7199,-1.7199,-1.7199,-1.7157,-1.7199,-1.7352,-1.7393,-1.7633,-1.8358,-1.8422,-1.8504,-1.9041,-1.9574,-1.9895,-1.9799,-2.042,-2.1049,-2.1653,-2.109,-2.1064,-2.193,-2.2128,-2.2232,-2.2454,-2.2115,-2.1904,-2.1851,-2.0126,-1.9014,-1.866,-1.7883,-1.731,-1.6918,-1.7115,-1.7199,-1.7199,-1.7365,-1.7406,-1.7446,-1.8002,-1.8525,-1.9006,-1.9609,-2.012,-2.061,-2.1014,-2.1442,-2.1821,-2.1553,-2.2501,-2.3844,-1.8008,-1.8008,-1.8008,-1.8008,-1.8008,-1.8008,-1.8008,-1.7872,-1.7803,-1.7803,-1.7803,-1.7803,-1.7803,-1.7794,-1.7862,-1.8008,-1.8008,-1.8008,-1.8008,-1.8008,-1.8008,-1.8008,-1.8008,-1.8008,-1.8008,-1.8008,-1.8008,-1.8008,-1.8271,-1.8615,-1.896,-1.8894,-1.8962,-1.9079,-1.893,-1.8783,-1.8522,-1.7971,-1.7542,-1.7053,-1.6555,-1.6393,-1.6513,-1.6888,-1.7743,-1.8821,-1.9214,-1.9965,-2.0631,-1.9659,-1.9724,-2.004,-1.9153,-1.876,-1.852,-1.8192,-1.7742,-1.7323,-1.7461,-1.7529,-1.7611,-1.7419,-1.7447,-1.7434,-1.724,-1.7199,-1.7199,-1.7199,-1.7253,-1.7337,-1.7475,-1.757,-1.7814,-1.8315,-1.8446,-1.8518,-1.8652,-1.939,-1.9864,-1.964,-2.0338,-2.1049,-2.1653,-2.109,-2.0985,-2.1666,-2.1747,-2.193,-2.223,-2.2101,-2.1812,-2.1485,-1.9786,-1.8761,-1.8429,-1.7639,-1.717,-1.7002,-1.7212,-1.7295,-1.7295,-1.7557,-1.7639,-1.7666,-1.8408,-1.9006,-1.9464,-1.9909,-2.0376,-2.0794,-2.0794,-2.1063,-2.1379,-2.0952,-2.1963,-2.3465,-1.8008,-1.8008,-1.8008,-1.8008,-1.8008,-1.8008,-1.8008,-1.7745,-1.7539,-1.7539,-1.7539,-1.7539,-1.7539,-1.7803,-1.8008,-1.8008,-1.8008,-1.8008,-1.8008,-1.8008,-1.8008,-1.8008,-1.8008,-1.8008,-1.8008,-1.8008,-1.8008,-1.8008,-1.8008,-1.8008,-1.8076,-1.8269,-1.8337,-1.8405,-1.8875,-1.8771,-1.824,-1.8551,-1.803,-1.7028,-1.6997,-1.7154,-1.739,-1.8147,-1.8886,-1.9619,-2.0372,-2.0762,-2.0809,-2.0188,-2.0347,-2.0752,-2.034,-2.0154,-1.9914,-1.8822,-1.8062,-1.7651,-1.7842,-1.7922,-1.7882,-1.776,-1.7625,-1.7434,-1.724,-1.7199,-1.7199,-1.7199,-1.7308,-1.7391,-1.7488,-1.7706,-1.7922,-1.8057,-1.8384,-1.8503,-1.8208,-1.9128,-1.9711,-1.9442,-2.0202,-2.0985,-2.1653,-2.109,-2.0985,-2.1666,-2.1077,-2.0699,-2.0699,-2.1655,-2.1537,-2.003,-1.9265,-1.861,-1.81,-1.761,-1.735,-1.724,-1.7391,-1.7446,-1.7474,-1.7882,-1.8068,-1.8108,-1.875,-1.9346,-1.9823,-2.0065,-2.0426,-2.0794,-2.0794,-2.0794,-2.0794,-2.0794,-2.1647,-2.2817,-1.7949,-1.8008,-1.8008,-1.8008,-1.8008,-1.8008,-1.8008,-1.794,-1.7872,-1.7872,-1.7872,-1.7872,-1.7872,-1.794,-1.8008,-1.8008,-1.8008,-1.8008,-1.8008,-1.8008,-1.8008,-1.8008,-1.8008,-1.8008,-1.8008,-1.8008,-1.8144,-1.8414,-1.8269,-1.8405,-1.8808,-1.8875,-1.8942,-1.9075,-1.9218,-1.9145,-1.902,-1.8601,-1.8134,-1.7472,-1.7121,-1.6825,-1.6694,-1.739,-1.8135,-1.8886,-1.9695,-2.0398,-2.0795,-2.0332,-2.0505,-2.0877,-2.0353,-2.0274,-2.0187,-1.9539,-1.8979,-1.8493,-1.8206,-1.8055,-1.7975,-1.7868,-1.7652,-1.7475,-1.7391,-1.735,-1.7308,-1.7199,-1.7253,-1.7295,-1.7391,-1.7597,-1.795,-1.8521,-1.8726,-1.9051,-1.966,-2.004,-2.0287,-2.0351,-2.0654,-2.1099,-2.1653,-2.109,-2.0985,-2.1666,-2.1077,-2.0699,-2.0699,-2.0604,-2.0329,-1.986,-1.8884,-1.8236,-1.7943,-1.7597,-1.7391,-1.7434,-1.7774,-1.7921,-1.7961,-1.8355,-1.8549,-1.8574,-1.9288,-1.9666,-1.9823,-2.041,-2.0695,-2.0794,-2.0794,-2.0794,-2.0794,-2.0794,-2.1363,-2.2201,-1.7676,-1.7881,-1.8008,-1.8008,-1.8008,-1.7949,-1.7754,-1.7881,-1.7939,-1.7744,-1.7891,-1.8008,-1.8008,-1.8008,-1.8008,-1.8008,-1.8008,-1.8008,-1.8008,-1.8008,-1.8008,-1.8008,-1.8008,-1.8008,-1.8008,-1.8008,-1.8076,-1.8279,-1.8269,-1.8472,-1.8741,-1.8875,-1.9075,-1.9198,-1.8979,-1.901,-1.9253,-1.8643,-1.8427,-1.8415,-1.7988,-1.7977,-1.8137,-1.8282,-1.8833,-1.9579,-2.0003,-2.0485,-2.0921,-2.0721,-2.0877,-2.1126,-2.0852,-2.0819,-2.0705,-1.9993,-1.9355,-1.8754,-1.822,-1.8016,-1.7935,-1.7922,-1.7788,-1.7666,-1.7556,-1.7474,-1.7432,-1.7295,-1.7295,-1.7337,-1.7419,-1.7811,-1.8259,-1.8696,-1.9155,-1.9642,-2.008,-2.0455,-2.0676,-2.0585,-2.0801,-2.103,-2.1233,-2.0933,-2.083,-2.1246,-2.0733,-2.0368,-2.0368,-1.9754,-1.9409,-1.9501,-1.8653,-1.8047,-1.7699,-1.7591,-1.7597,-1.7693,-1.8028,-1.8198,-1.8198,-1.8779,-1.908,-1.9132,-1.9823,-2.012,-2.0154,-2.0613,-2.0794,-2.0794,-2.0794,-2.0794,-2.0794,-2.0794,-2.1268,-2.1948,-1.7275,-1.7578,-1.7812,-1.7812,-1.7812,-1.7695,-1.7344,-1.7588,-1.7686,-1.7334,-1.7598,-1.7812,-1.7812,-1.7812,-1.7812,-1.7812,-1.7812,-1.7871,-1.8008,-1.8008,-1.8008,-1.8008,-1.8008,-1.8008,-1.8008,-1.8008,-1.8076,-1.8144,-1.8337,-1.8472,-1.8539,-1.8808,-1.9008,-1.9177,-1.8653,-1.8739,-1.9149,-1.8612,-1.867,-1.9,-1.8725,-1.8998,-1.9564,-1.9214,-1.9631,-2.0435,-2.0459,-2.0723,-2.1033,-2.118,-2.1326,-2.1423,-2.1423,-2.1423,-2.1227,-2.0268,-1.9467,-1.8821,-1.8234,-1.8016,-1.7949,-1.7949,-1.7949,-1.7909,-1.7842,-1.7693,-1.757,-1.7515,-1.7474,-1.7474,-1.7529,-1.8135,-1.865,-1.8803,-1.9584,-2.016,-2.0151,-2.0644,-2.0868,-2.0422,-2.0655,-2.0726,-2.0499,-2.0499,-2.0499,-2.0499,-2.0136,-1.9906,-1.9906,-1.9066,-1.8749,-1.9065,-1.8451,-1.7895,-1.7475,-1.7693,-1.7882,-1.7989,-1.8358,-1.85,-1.8539,-1.9295,-1.9639,-1.966,-2.0239,-2.0494,-2.0527,-2.0728,-2.0794,-2.0794,-2.0794,-2.0794,-2.0794,-2.0794,-2.1189,-2.1742,-1.6758,-1.6885,-1.6934,-1.6934,-1.6934,-1.6904,-1.6846,-1.6885,-1.6904,-1.6846,-1.6885,-1.6934,-1.6934,-1.6934,-1.6934,-1.6934,-1.6934,-1.7236,-1.7959,-1.8008,-1.8008,-1.8008,-1.8008,-1.8008,-1.8008,-1.8144,-1.8472,-1.8942,-1.8942,-1.9198,-1.9671,-1.9539,-1.9473,-1.9518,-1.8933,-1.8711,-1.8774,-1.8487,-1.7999,-1.7395,-1.7718,-1.7511,-1.7016,-1.7523,-1.8232,-1.9085,-1.9837,-2.056,-2.118,-2.1326,-2.1375,-2.1423,-2.1423,-2.1423,-2.1179,-2.0134,-1.9754,-1.9453,-1.8667,-1.8333,-1.824,-1.824,-1.824,-1.824,-1.8201,-1.8135,-1.8069,-1.7922,-1.7868,-1.7842,-1.7842,-1.8302,-1.8843,-1.9388,-2.0021,-2.0536,-2.081,-2.0926,-2.0722,-2.0009,-2.007,-1.9925,-1.9403,-1.9443,-1.9522,-1.9522,-1.9442,-1.9389,-1.9389,-1.8883,-1.8706,-1.9029,-1.8123,-1.7568,-1.7516,-1.7962,-1.8279,-1.8436,-1.9147,-1.9493,-1.9493,-1.9975,-2.02,-2.0185,-2.0392,-2.0494,-2.0527,-2.0728,-2.0794,-2.0794,-2.0794,-2.0794,-2.0794,-2.0794,-2.0857,-2.1047,-1.6328,-1.6689,-1.684,-1.6758,-1.6602,-1.6465,-1.6387,-1.6572,-1.6641,-1.6406,-1.6582,-1.6665,-1.6665,-1.6665,-1.6602,-1.6602,-1.6602,-1.6767,-1.7164,-1.7259,-1.7324,-1.7324,-1.7549,-1.7773,-1.8008,-1.7974,-1.8165,-1.8674,-1.8705,-1.8854,-1.9114,-1.8924,-1.886,-1.8955,-1.8309,-1.8246,-1.8541,-1.827,-1.8227,-1.8366,-1.8323,-1.8273,-1.8222,-1.8024,-1.8513,-1.9359,-1.9837,-2.051,-2.1229,-2.1375,-2.1423,-2.1423,-2.1423,-2.1206,-2.0772,-2.0038,-1.9371,-1.8865,-1.8486,-1.8358,-1.8344,-1.8489,-1.8542,-1.8503,-1.8411,-1.8333,-1.8214,-1.8042,-1.7935,-1.7882,-1.7882,-1.8601,-1.9184,-1.913,-2.0051,-2.0764,-2.071,-2.0615,-2.0545,-2.0452,-2.0319,-2.0193,-2.007,-2.0152,-2.0233,-2.0233,-1.9693,-1.9391,-1.9391,-1.865,-1.8248,-1.8317,-1.8004,-1.7961,-1.8238,-1.8082,-1.824,-1.8822,-1.9199,-1.9493,-1.9711,-2.0115,-2.0304,-2.0304,-2.0426,-2.0494,-2.0527,-2.0728,-2.0794,-2.0794,-2.0794,-2.0794,-2.0794,-2.0794,-2.0794,-2.0842,-1.5908,-1.6357,-1.667,-1.6403,-1.623,-1.6045,-1.5928,-1.6201,-1.6299,-1.5967,-1.6159,-1.6311,-1.6311,-1.6177,-1.6177,-1.6177,-1.6177,-1.6177,-1.6177,-1.6239,-1.6398,-1.6655,-1.6986,-1.7307,-1.7705,-1.7678,-1.779,-1.8227,-1.8397,-1.8489,-1.8438,-1.833,-1.8394,-1.8423,-1.7841,-1.7841,-1.8233,-1.8025,-1.8328,-1.9037,-1.8692,-1.8817,-1.9088,-1.8315,-1.8673,-1.9631,-1.9722,-2.0396,-2.1264,-2.1212,-2.1301,-2.1396,-2.126,-2.0847,-2.0419,-1.9925,-1.903,-1.8228,-1.8333,-1.8358,-1.8397,-1.8659,-1.8711,-1.8673,-1.8634,-1.8503,-1.8358,-1.8201,-1.8109,-1.8043,-1.8043,-1.8836,-1.9296,-1.8833,-1.983,-2.0569,-2.0346,-2.0153,-2.0187,-2.058,-2.0328,-2.0194,-2.0289,-2.0351,-2.0385,-2.0433,-1.9565,-1.9162,-1.9473,-1.8521,-1.8124,-1.8382,-1.8242,-1.838,-1.8893,-1.8422,-1.8528,-1.925,-1.9325,-1.9545,-1.9833,-2.015,-2.0304,-2.0339,-2.046,-2.0527,-2.0561,-2.0728,-2.0794,-2.0794,-2.0794,-2.0794,-2.0794,-2.0794,-2.0794,-2.0794,-1.5459,-1.5508,-1.5537,-1.5518,-1.5488,-1.5469,-1.5459,-1.5488,-1.5449,-1.5263,-1.5292,-1.5243,-1.5124,-1.5124,-1.5124,-1.5124,-1.5124,-1.5124,-1.5124,-1.5124,-1.5537,-1.6437,-1.6357,-1.645,-1.6763,-1.7382,-1.7759,-1.7926,-1.8575,-1.8805,-1.8681,-1.8648,-1.8687,-1.8665,-1.8019,-1.7776,-1.7841,-1.7888,-1.7725,-1.7469,-1.7686,-1.7532,-1.7144,-1.6874,-1.7699,-1.8955,-1.9101,-2.0105,-2.1293,-2.0738,-2.0914,-2.1328,-2.0725,-2.0522,-2.0386,-1.9863,-1.9001,-1.8242,-1.8439,-1.8478,-1.8542,-1.876,-1.8736,-1.875,-1.8917,-1.8788,-1.8673,-1.8634,-1.8556,-1.8478,-1.8478,-1.8781,-1.9017,-1.8975,-1.9407,-1.9678,-1.9683,-1.9669,-1.9607,-1.9421,-1.9426,-1.9199,-1.8473,-1.8521,-1.8622,-1.8752,-1.8106,-1.8139,-1.9349,-1.8681,-1.8963,-2.0421,-1.9069,-1.8486,-1.8893,-1.9332,-1.9603,-1.9654,-2.0045,-2.0235,-2.027,-2.027,-2.0339,-2.0388,-2.046,-2.0577,-2.0693,-2.0777,-2.0794,-2.0794,-2.0794,-2.0794,-2.0794,-2.0794,-2.0794,-2.0794,-1.541,-1.541,-1.541,-1.541,-1.541,-1.541,-1.541,-1.5303,-1.5264,-1.5215,-1.5156,-1.5039,-1.5039,-1.4902,-1.4834,-1.4834,-1.4834,-1.4834,-1.4834,-1.4834,-1.5157,-1.5918,-1.5811,-1.604,-1.6719,-1.6996,-1.7359,-1.7781,-1.785,-1.7945,-1.8051,-1.7806,-1.7734,-1.7802,-1.7571,-1.7494,-1.7549,-1.7903,-1.7825,-1.7444,-1.7604,-1.7743,-1.7763,-1.7511,-1.8382,-1.9697,-1.9851,-2.057,-2.1382,-2.1117,-2.0941,-2.0779,-2.0562,-2.0026,-1.932,-1.8794,-1.8426,-1.8242,-1.8439,-1.8556,-1.8673,-1.8851,-1.8903,-1.8917,-1.8993,-1.8955,-1.8841,-1.8711,-1.8673,-1.8595,-1.8517,-1.8929,-1.9127,-1.8751,-1.9349,-1.9686,-1.9302,-1.9402,-1.9615,-1.9794,-1.9514,-1.9354,-1.9304,-1.9091,-1.8968,-1.9012,-1.8452,-1.8283,-1.8765,-1.8479,-1.8831,-2.0049,-1.9465,-1.956,-2.0384,-1.9598,-1.9515,-2.008,-2.005,-2.0189,-2.0426,-2.0561,-2.061,-2.0592,-2.0677,-2.0711,-2.0693,-2.0777,-2.0794,-2.0794,-2.0794,-2.0794,-2.0794,-2.0794,-2.0794,-2.0794,-1.541,-1.541,-1.541,-1.541,-1.541,-1.541,-1.541,-1.5313,-1.5156,-1.5156,-1.5029,-1.4911,-1.4862,-1.4734,-1.4666,-1.4666,-1.4666,-1.4666,-1.4666,-1.4666,-1.4796,-1.5266,-1.5172,-1.5465,-1.6133,-1.6466,-1.6759,-1.7174,-1.7308,-1.7376,-1.7496,-1.7229,-1.7145,-1.7278,-1.7278,-1.7278,-1.7344,-1.7948,-1.7956,-1.7503,-1.7676,-1.7913,-1.8259,-1.799,-1.8862,-2.0232,-2.037,-2.0726,-2.1063,-2.0935,-2.0684,-2.0454,-2.0278,-1.9714,-1.8942,-1.8194,-1.8121,-1.8268,-1.8439,-1.862,-1.8774,-1.8955,-1.8993,-1.8941,-1.8993,-1.8955,-1.8841,-1.8673,-1.8581,-1.8542,-1.8386,-1.8735,-1.8889,-1.847,-1.9002,-1.9308,-1.8879,-1.903,-1.9307,-1.9723,-1.9382,-1.9213,-1.9443,-1.9125,-1.8945,-1.899,-1.8535,-1.8397,-1.8714,-1.9237,-1.9757,-2.0186,-2.0419,-2.0755,-2.127,-1.9989,-1.9645,-2.0304,-2.012,-2.0189,-2.0426,-2.0628,-2.0662,-2.0644,-2.0728,-2.0761,-2.0744,-2.0761,-2.0794,-2.0794,-2.0794,-2.0794,-2.0794,-2.0794,-2.0794,-2.0794,-1.541,-1.54,-1.54,-1.54,-1.541,-1.541,-1.541,-1.5254,-1.5156,-1.5029,-1.4834,-1.4656,-1.4506,-1.4515,-1.4515,-1.4515,-1.4515,-1.4515,-1.4515,-1.4515,-1.4515,-1.4515,-1.4515,-1.4684,-1.497,-1.573,-1.6089,-1.6114,-1.7053,-1.7323,-1.7011,-1.72,-1.7278,-1.7278,-1.7278,-1.7278,-1.7344,-1.7948,-1.7945,-1.7503,-1.7666,-1.7963,-1.8259,-1.799,-1.8862,-2.0232,-2.032,-2.0426,-2.04,-1.9904,-2.0035,-2.0386,-1.9863,-1.9686,-1.9442,-1.8317,-1.8147,-1.8319,-1.8464,-1.8644,-1.8822,-1.8993,-1.8889,-1.8836,-1.8979,-1.8841,-1.8673,-1.8517,-1.8411,-1.8226,-1.8028,-1.8095,-1.8202,-1.8202,-1.8254,-1.8358,-1.8478,-1.8478,-1.8623,-1.8948,-1.8794,-1.8609,-1.8422,-1.8218,-1.8131,-1.8305,-1.8098,-1.8447,-1.9442,-2.1272,-2.1963,-2.1301,-2.1932,-2.1963,-2.1322,-2.0643,-2.0304,-2.0304,-2.0304,-2.0304,-2.0304,-2.0441,-2.0494,-2.0527,-2.0728,-2.0794,-2.0794,-2.0794,-2.0794,-2.0794,-2.0794,-2.0794,-2.0794,-2.0794,-2.0794,-2.0794,-1.4971,-1.4727,-1.4609,-1.4922,-1.4971,-1.5068,-1.5371,-1.5051,-1.4802,-1.4991,-1.4599,-1.435,-1.4478,-1.4515,-1.4515,-1.4515,-1.4515,-1.4515,-1.4515,-1.4515,-1.4515,-1.4515,-1.4911,-1.5186,-1.5303,-1.5976,-1.6382,-1.6457,-1.6613,-1.6842,-1.7011,-1.6976,-1.7043,-1.7278,-1.7278,-1.7278,-1.7311,-1.7701,-1.7504,-1.7005,-1.7305,-1.7636,-1.8012,-1.7909,-1.8608,-1.9631,-1.967,-1.9723,-1.9756,-1.9598,-1.9741,-1.9849,-1.9239,-1.8764,-1.8385,-1.8018,-1.8095,-1.8319,-1.8464,-1.8711,-1.8941,-1.8993,-1.8993,-1.8979,-1.904,-1.8979,-1.8917,-1.8879,-1.8721,-1.8592,-1.8372,-1.8386,-1.8347,-1.8095,-1.8082,-1.8108,-1.8121,-1.8507,-1.8769,-1.8779,-1.8793,-1.8623,-1.8279,-1.7837,-1.7571,-1.7545,-1.7814,-1.8252,-1.8893,-2.0287,-2.1106,-2.1285,-2.1932,-2.2037,-2.145,-2.0678,-2.0304,-2.0304,-2.0887,-2.0961,-2.0677,-2.1334,-2.1402,-2.0974,-2.099,-2.0941,-2.0877,-2.0827,-2.0794,-2.0794,-2.0794,-2.0794,-2.0794,-2.0794,-2.0794,-2.0794,-1.4521,-1.4316,-1.4165,-1.4482,-1.4521,-1.4619,-1.4863,-1.4576,-1.4398,-1.4544,-1.4195,-1.4035,-1.4338,-1.4326,-1.439,-1.4497,-1.4515,-1.4515,-1.4515,-1.4515,-1.4515,-1.4515,-1.5069,-1.5362,-1.5245,-1.572,-1.6124,-1.6343,-1.641,-1.6581,-1.6842,-1.6853,-1.6976,-1.72,-1.7267,-1.7278,-1.7311,-1.755,-1.7291,-1.685,-1.7153,-1.7546,-1.7907,-1.8274,-1.8967,-1.9825,-2.0093,-1.9941,-1.9588,-1.9811,-1.996,-1.9876,-1.9078,-1.8725,-1.8548,-1.8139,-1.8189,-1.8411,-1.8581,-1.8812,-1.9055,-1.9055,-1.9055,-1.9055,-1.9101,-1.9055,-1.8993,-1.8927,-1.8851,-1.8697,-1.8439,-1.84,-1.8268,-1.8016,-1.7975,-1.7975,-1.7975,-1.8262,-1.8453,-1.8369,-1.8383,-1.8286,-1.802,-1.7673,-1.757,-1.7881,-1.8405,-1.8954,-1.9398,-2.0427,-2.1029,-2.1062,-2.175,-2.1802,-2.1221,-2.073,-2.0494,-2.0509,-2.0983,-2.1054,-2.081,-2.1437,-2.1631,-2.1454,-2.147,-2.1437,-2.1272,-2.1254,-2.1047,-2.0794,-2.0794,-2.0794,-2.0794,-2.0794,-2.0794,-2.0777,-1.4029,-1.4,-1.398,-1.4019,-1.4029,-1.4038,-1.4077,-1.3995,-1.3869,-1.3907,-1.3736,-1.378,-1.4017,-1.4091,-1.4211,-1.4423,-1.4497,-1.4515,-1.4515,-1.4515,-1.4506,-1.4565,-1.5079,-1.5313,-1.5088,-1.5371,-1.5652,-1.5931,-1.6343,-1.6581,-1.6637,-1.6842,-1.7011,-1.7011,-1.7211,-1.7278,-1.7311,-1.7391,-1.7211,-1.685,-1.7159,-1.7503,-1.7907,-1.8626,-1.9426,-2.0219,-2.0795,-2.0381,-1.962,-2.017,-2.0292,-2.0075,-1.9089,-1.9117,-1.9364,-1.8453,-1.8321,-1.8556,-1.8721,-1.8936,-1.9101,-1.9101,-1.9101,-1.9101,-1.9101,-1.9055,-1.8979,-1.8874,-1.8736,-1.8595,-1.8321,-1.8202,-1.8123,-1.7922,-1.7882,-1.7842,-1.7842,-1.7882,-1.7882,-1.7882,-1.776,-1.772,-1.772,-1.7652,-1.7961,-1.8849,-1.9528,-2.0019,-2.041,-2.1271,-2.145,-2.0803,-2.1465,-2.155,-2.0889,-2.0889,-2.0857,-2.0794,-2.0857,-2.0857,-2.0827,-2.1102,-2.1437,-2.1856,-2.2009,-2.2057,-2.1979,-2.1979,-2.1584,-2.0968,-2.0921,-2.0889,-2.0889,-2.081,-2.0777,-2.0726,-1.3643,-1.3379,-1.3262,-1.3584,-1.3643,-1.375,-1.4029,-1.3805,-1.3656,-1.3869,-1.3585,-1.3504,-1.377,-1.3979,-1.409,-1.4183,-1.4381,-1.4515,-1.4515,-1.4515,-1.4625,-1.4862,-1.5029,-1.5254,-1.571,-1.6009,-1.6202,-1.6306,-1.6374,-1.6534,-1.6751,-1.6807,-1.6976,-1.7211,-1.7278,-1.7278,-1.7289,-1.7129,-1.7051,-1.6965,-1.6914,-1.6995,-1.7213,-1.7379,-1.7655,-1.8007,-1.8159,-1.8112,-1.8172,-1.8932,-1.8845,-1.8493,-1.8738,-1.8589,-1.8262,-1.8044,-1.8242,-1.8517,-1.8542,-1.8851,-1.9101,-1.9101,-1.9101,-1.9101,-1.9101,-1.9055,-1.9017,-1.9026,-1.8774,-1.8556,-1.8595,-1.8242,-1.7922,-1.776,-1.761,-1.7528,-1.7528,-1.7543,-1.7611,-1.7611,-1.7666,-1.7788,-1.8001,-1.8277,-1.838,-1.8288,-1.9118,-1.9645,-1.9773,-2.087,-2.1393,-2.1253,-2.2009,-2.2185,-2.1652,-2.1652,-2.1383,-2.081,-2.1347,-2.1383,-2.1038,-2.1631,-2.1967,-2.2112,-2.2095,-2.2346,-2.275,-2.2695,-2.258,-2.2374,-2.1853,-2.1663,-2.1584,-2.1,-2.0794,-2.0777,-1.3313,-1.3086,-1.2949,-1.3174,-1.3213,-1.3281,-1.3506,-1.335,-1.3241,-1.3404,-1.3239,-1.3167,-1.338,-1.3563,-1.3736,-1.3968,-1.4142,-1.4295,-1.4497,-1.4515,-1.4565,-1.4743,-1.4911,-1.5196,-1.5642,-1.5999,-1.6249,-1.6384,-1.6384,-1.6477,-1.6694,-1.6694,-1.6864,-1.7145,-1.7145,-1.7211,-1.7278,-1.7078,-1.7011,-1.7011,-1.7032,-1.7032,-1.7056,-1.7545,-1.7929,-1.8333,-1.8643,-1.8881,-1.8921,-1.8511,-1.852,-1.8696,-1.8466,-1.8371,-1.8289,-1.8085,-1.8202,-1.84,-1.8478,-1.8659,-1.8798,-1.8798,-1.8798,-1.8851,-1.9064,-1.9078,-1.904,-1.9101,-1.8874,-1.8697,-1.8841,-1.8478,-1.8109,-1.7868,-1.772,-1.7556,-1.735,-1.757,-1.776,-1.776,-1.8028,-1.8344,-1.8563,-1.8727,-1.8864,-1.8902,-1.9645,-2.0065,-2.0035,-2.0702,-2.1092,-2.1073,-2.1815,-2.1988,-2.1532,-2.2049,-2.1893,-2.1023,-2.139,-2.1439,-2.1199,-2.1569,-2.2034,-2.2641,-2.2607,-2.2901,-2.3444,-2.3407,-2.318,-2.2848,-2.2501,-2.2359,-2.228,-2.1568,-2.1061,-2.0744,-1.2978,-1.2929,-1.2832,-1.2881,-1.2881,-1.2881,-1.292,-1.2929,-1.2929,-1.2929,-1.2929,-1.2909,-1.2995,-1.3048,-1.324,-1.3774,-1.3782,-1.3956,-1.4378,-1.4405,-1.4433,-1.4565,-1.4921,-1.5196,-1.5468,-1.5816,-1.6124,-1.6384,-1.6384,-1.6488,-1.6627,-1.6627,-1.6797,-1.7067,-1.7067,-1.7145,-1.7278,-1.7078,-1.7011,-1.7078,-1.7211,-1.72,-1.7179,-1.805,-1.8632,-1.915,-1.9736,-1.9986,-1.9804,-1.8369,-1.8547,-1.9212,-1.8208,-1.8262,-1.8561,-1.8274,-1.8163,-1.8242,-1.84,-1.8478,-1.8517,-1.8517,-1.8517,-1.8595,-1.8912,-1.8988,-1.9026,-1.9101,-1.8898,-1.876,-1.8941,-1.8634,-1.8293,-1.8042,-1.7855,-1.7625,-1.7199,-1.7557,-1.7787,-1.7787,-1.8408,-1.8855,-1.8988,-1.9118,-1.9346,-1.9717,-2.0289,-2.0577,-2.0494,-2.0628,-2.0758,-2.0816,-2.145,-2.1603,-2.1247,-2.2176,-2.2181,-2.1309,-2.1309,-2.1309,-2.1309,-2.1309,-2.1971,-2.3096,-2.3096,-2.3485,-2.4097,-2.4097,-2.3765,-2.3264,-2.3101,-2.3054,-2.2975,-2.2311,-2.1582,-2.0832,-1.2627,-1.2578,-1.2578,-1.2735,-1.2735,-1.2813,-1.3132,-1.3104,-1.3075,-1.3075,-1.2978,-1.2852,-1.2753,-1.2878,-1.3066,-1.3332,-1.3378,-1.3543,-1.3937,-1.3965,-1.4246,-1.4902,-1.5196,-1.5468,-1.5816,-1.6181,-1.6374,-1.6384,-1.6384,-1.6545,-1.6751,-1.6751,-1.6931,-1.7267,-1.7267,-1.7278,-1.7278,-1.7078,-1.7078,-1.7267,-1.7278,-1.7379,-1.7468,-1.77,-1.7799,-1.7786,-1.7926,-1.8019,-1.8065,-1.7962,-1.7991,-1.8099,-1.7936,-1.7936,-1.8031,-1.795,-1.8043,-1.8202,-1.8242,-1.8361,-1.8517,-1.8517,-1.8517,-1.8517,-1.8556,-1.8595,-1.8659,-1.9026,-1.8707,-1.8514,-1.8917,-1.8333,-1.7841,-1.7988,-1.7516,-1.7086,-1.7044,-1.7044,-1.7044,-1.7044,-1.7881,-1.8511,-1.8577,-1.9391,-1.9839,-1.9551,-2.0045,-2.0373,-2.0423,-2.0457,-2.0705,-2.1279,-2.149,-2.1666,-2.18,-2.1956,-2.1789,-2.1309,-2.1309,-2.1309,-2.1309,-2.1309,-2.1971,-2.3096,-2.3096,-2.3771,-2.4863,-2.4863,-2.4815,-2.4673,-2.4018,-2.3781,-2.3686,-2.3006,-2.224,-2.1553,-1.2997,-1.2949,-1.29,-1.2929,-1.2958,-1.2997,-1.3152,-1.3152,-1.3152,-1.3152,-1.3094,-1.2949,-1.2725,-1.2532,-1.26,-1.291,-1.3158,-1.3461,-1.3855,-1.4102,-1.4372,-1.4734,-1.502,-1.5303,-1.5584,-1.5941,-1.6192,-1.6384,-1.6384,-1.6488,-1.6694,-1.6591,-1.6761,-1.7145,-1.7032,-1.7099,-1.7278,-1.7211,-1.7211,-1.7334,-1.7434,-1.7324,-1.7103,-1.7643,-1.7611,-1.7403,-1.7763,-1.7911,-1.7913,-1.7908,-1.7882,-1.7882,-1.7882,-1.7882,-1.7882,-1.7882,-1.7963,-1.8043,-1.8043,-1.8083,-1.8163,-1.8163,-1.8163,-1.8202,-1.8321,-1.8242,-1.8268,-1.8697,-1.8503,-1.8333,-1.8567,-1.8254,-1.7975,-1.7935,-1.7922,-1.7828,-1.7598,-1.7974,-1.8394,-1.8588,-1.8549,-1.8741,-1.9273,-1.9479,-1.966,-1.9762,-2.0045,-2.0254,-2.0392,-2.0441,-2.0634,-2.1067,-2.1475,-2.1629,-2.1453,-2.208,-2.2025,-2.1309,-2.1585,-2.1601,-2.1309,-2.1309,-2.1971,-2.3096,-2.3096,-2.3819,-2.5005,-2.5005,-2.5005,-2.4974,-2.4618,-2.4255,-2.3875,-2.3575,-2.2986,-2.235]}]]